GFSSW_con_sbcape_000.txt.gz
CAPE
5 9 16 23 30 47 62 59 77 63 62 49 45 25 9 10 25 28 11 0 0 102 130 0 0 0 0 0 0 0 0 0 0 0 0 0 0 0 0 0 0 0 0 0 0
3 7 26 48 55 90 106 83 67 77 81 75 51 33 31 39 17 18 0 0 0 294 15 0 0 0 0 0 0 0 0 0 0 0 0 0 0 0 0 0 0 0 0 0 0
5 3 6 49 74 79 106 110 83 79 90 99 59 38 62 50 14 0 0 0 0 220 137 0 0 0 0 0 0 0 0 0 0 0 0 0 0 0 0 0 0 0 0 0 0
2 0 1 21 82 68 114 111 109 82 89 112 73 53 84 66 0 0 0 0 0 51 94 16 0 0 0 0 0 0 0 0 0 0 0 0 0 0 0 0 0 0 0 0 0
12 26 30 35 31 82 206 180 157 159 112 106 95 111 58 22 0 0 0 0 0 107 95 12 0 0 0 0 0 0 0 0 0 0 0 0 0 0 0 0 0 0 0 0 0
54 81 58 45 41 47 146 195 263 235 174 152 126 177 53 7 0 0 0 0 0 68 112 16 0 0 0 0 0 0 0 0 0 0 0 0 0 0 0 0 0 0 0 0 0
47 58 65 53 35 75 171 207 268 298 241 195 188 95 56 0 0 0 0 3 7 51 71 5 0 0 0 0 0 0 0 0 0 0 0 0 0 0 0 0 0 0 0 0 0
52 58 59 32 46 94 168 318 319 302 272 259 246 75 20 0 0 0 0 0 11 41 108 41 22 0 0 0 0 0 0 0 0 0 0 0 0 0 0 0 0 0 0 0 0
58 52 43 1 0 43 102 156 269 344 353 329 126 32 0 92 0 0 0 0 12 18 105 57 5 0 0 0 0 0 0 0 0 0 0 0 0 0 0 0 0 0 0 0 0
47 63 80 48 13 56 130 158 185 295 231 180 79 57 1 4 0 0 0 0 52 20 107 82 21 0 0 0 0 0 0 0 0 0 0 0 0 0 0 0 0 0 0 0 0
35 41 37 74 71 86 62 82 21 15 92 17 3 20 6 3 23 13 29 6 76 68 50 51 8 0 0 0 0 0 0 0 0 0 0 0 0 0 0 0 0 0 0 0 0
39 23 11 53 50 79 59 77 11 0 20 0 0 4 149 35 9 34 89 75 59 25 48 47 16 0 0 0 0 0 0 0 0 0 0 0 0 0 0 0 0 0 0 0 0
38 22 23 24 21 66 50 53 13 6 7 88 77 0 113 76 101 76 82 43 7 33 45 6 11 0 0 0 0 0 0 0 0 0 0 0 0 0 0 0 0 0 0 0 0
39 32 15 7 3 41 56 6 31 24 84 7 60 70 93 127 90 32 6 10 59 22 44 18 0 0 0 0 0 0 0 0 0 0 0 0 0 0 0 0 0 0 0 0 0
34 26 7 8 38 31 32 41 62 13 33 0 44 61 75 67 12 1 0 2 21 21 0 1 0 0 0 0 0 0 0 0 0 0 0 0 0 0 0 0 0 0 0 0 0
16 13 6 9 24 60 21 36 39 13 2 16 39 81 3 39 0 0 1 0 9 0 0 0 0 0 0 0 0 0 0 0 0 0 0 0 0 0 0 0 0 0 0 0 0
8 13 8 6 9 12 13 53 14 30 5 41 24 20 16 3 1 8 1 1 0 0 0 0 0 0 0 0 0 0 0 0 0 0 0 0 0 0 0 0 0 0 0 0 0
2 13 5 0 0 0 16 39 26 7 12 2 23 10 8 3 0 0 0 0 0 0 0 0 0 0 0 0 0 0 0 0 0 0 0 0 0 0 0 0 0 0 0 0 0
2 0 0 0 1 1 15 14 26 26 1 7 8 6 16 15 3 0 0 0 0 0 0 0 0 0 0 0 0 0 0 0 0 0 0 0 0 0 0 0 0 0 0 0 0
0 0 0 0 0 5 16 22 27 25 0 12 10 7 20 0 0 0 0 0 4 0 0 0 0 0 0 0 0 0 0 0 0 0 0 0 0 0 0 0 0 0 0 0 0
0 0 0 0 0 8 11 23 39 3 14 45 29 7 0 0 0 0 9 8 0 8 0 0 0 0 0 0 0 0 0 0 0 0 0 0 0 0 0 0 0 0 0 0 0
0 0 0 0 0 0 2 20 31 24 5 2 0 0 0 33 4 1 0 0 0 0 0 0 0 0 0 0 0 0 0 0 0 0 0 0 0 0 0 0 0 0 0 0 0
0 0 0 0 0 0 0 0 0 2 0 31 37 19 19 8 8 0 0 0 0 0 0 0 0 0 0 0 0 0 0 0 0 0 0 0 0 0 0 0 0 0 0 0 0
0 0 0 0 0 0 0 0 0 0 0 0 0 0 0 0 0 0 0 0 0 0 0 0 0 0 0 0 0 0 0 0 0 0 0 0 0 0 0 0 0 0 0 0 0
0 0 0 0 0 0 0 0 0 0 0 0 0 0 0 0 0 0 0 0 0 0 0 0 0 0 0 0 0 0 0 0 0 0 0 0 0 0 0 0 0 0 0 0 0
0 0 0 0 0 0 0 0 0 0 0 0 0 0 0 0 0 0 0 0 0 0 0 0 0 0 0 0 0 0 0 0 0 0 0 0 0 0 0 0 0 0 0 0 0
0 0 0 0 0 0 0 0 0 0 0 0 0 0 0 0 0 0 0 0 0 0 0 0 0 0 0 0 0 0 0 0 0 0 0 0 0 0 0 0 0 0 0 0 0

GFSSW_con_sbcape_003.txt.gz
CAPE
1 3 8 7 4 2 13 30 87 92 95 50 51 44 36 40 28 11 4 0 0 17 293 0 0 0 0 0 0 0 0 0 0 0 0 0 0 0 0 0 0 0 0 0 0
1 5 7 13 11 12 19 74 124 156 104 76 44 49 37 43 19 11 0 0 0 31 53 0 0 0 0 0 0 0 0 0 0 0 0 0 0 0 0 0 0 0 0 0 0
10 9 12 29 41 63 68 93 138 147 145 112 73 70 75 28 11 0 0 0 0 0 9 0 0 0 0 0 0 0 0 0 0 0 0 0 0 0 0 0 0 0 0 0 0
12 10 15 8 10 47 90 116 189 158 177 139 116 104 98 30 0 0 0 0 0 0 0 80 0 0 0 0 0 0 0 0 0 0 0 0 0 0 0 0 0 0 0 0 0
5 16 2 0 0 12 70 143 292 305 242 200 164 147 63 31 0 0 0 0 0 0 3 69 0 0 0 0 0 0 0 0 0 0 0 0 0 0 0 0 0 0 0 0 0
17 27 37 21 15 28 38 123 329 390 334 259 226 226 52 4 0 0 0 0 0 0 45 66 0 0 0 0 0 0 0 0 0 0 0 0 0 0 0 0 0 0 0 0 0
31 30 40 20 49 53 51 103 273 380 368 272 256 84 52 1 0 0 0 0 0 0 78 50 0 0 0 0 0 0 0 0 0 0 0 0 0 0 0 0 0 0 0 0 0
41 42 37 27 39 49 83 113 233 437 435 353 333 85 20 0 0 0 0 1 0 0 55 70 0 0 1 0 0 0 0 0 0 0 0 0 0 0 0 0 0 0 0 0 0
42 38 71 84 44 31 46 103 192 329 420 381 130 76 27 0 0 0 0 1 0 0 5 50 21 1 13 3 0 0 0 0 0 0 0 0 0 0 0 0 0 0 0 0 0
0 35 59 66 84 68 54 92 107 136 190 105 111 88 23 0 0 0 0 0 26 0 55 112 27 10 0 0 7 0 0 0 0 0 0 0 0 0 0 0 0 0 0 0 0
40 33 32 35 74 109 68 30 17 46 43 15 50 20 0 1 0 0 0 0 34 36 29 28 15 22 0 0 0 0 0 0 0 0 0 0 0 0 0 0 0 0 0 0 0
37 28 22 41 58 52 5 11 5 4 39 35 1 8 4 68 75 5 1 5 37 13 21 70 21 0 0 0 0 0 0 0 0 0 0 0 0 0 0 0 0 0 0 0 0
52 29 28 57 36 51 3 4 57 44 40 19 1 26 11 66 42 51 13 40 1 26 47 10 0 1 0 0 0 0 0 0 0 0 0 0 0 0 0 0 0 0 0 0 0
50 29 24 29 11 45 24 37 55 69 2 5 42 56 8 38 64 93 42 49 14 1 33 25 0 4 0 0 0 0 0 0 0 0 0 0 0 0 0 0 0 0 0 0 0
43 34 15 11 34 9 11 10 46 70 0 3 81 133 100 40 35 61 21 111 0 0 43 0 0 11 25 0 0 0 0 0 0 0 0 0 0 0 0 0 0 0 0 0 0
13 26 16 16 30 35 39 48 37 28 22 23 78 32 77 55 48 52 42 1 0 12 0 0 1 16 0 0 0 0 0 0 0 0 0 0 0 0 0 0 0 0 0 0 0
1 8 16 18 25 54 62 75 29 23 1 34 5 27 27 64 37 42 47 44 4 43 21 0 0 0 0 0 0 0 0 0 0 0 0 0 0 0 0 0 0 0 0 0 0
0 14 10 4 17 30 69 43 14 5 10 18 34 15 1 52 18 55 16 18 7 0 0 0 0 0 0 0 0 0 0 0 0 0 0 0 0 0 0 0 0 0 0 0 0
9 0 4 4 24 9 38 5 14 6 24 9 11 11 25 33 13 6 2 0 0 0 0 0 0 0 0 0 0 0 0 0 0 0 0 0 0 0 0 0 0 0 0 0 0
1 0 0 0 12 14 34 17 16 0 4 0 4 11 16 8 2 13 3 0 0 0 0 0 0 0 0 0 0 0 0 0 0 0 0 0 0 0 0 0 0 0 0 0 0
0 0 2 6 17 14 26 11 1 2 18 26 3 8 0 0 0 1 0 0 0 0 0 0 0 0 0 0 0 0 0 0 0 0 0 0 0 0 0 0 0 0 0 0 0
0 0 2 0 1 0 6 33 0 0 15 35 1 0 0 0 0 0 0 0 0 0 1 0 0 0 0 0 0 0 0 0 0 0 0 0 0 0 0 0 0 0 0 0 0
0 1 2 0 0 0 10 17 27 38 24 25 0 0 1 0 0 0 0 0 0 0 0 0 0 0 0 0 0 0 0 0 0 0 0 0 0 0 0 0 0 0 0 0 0
0 0 0 1 0 0 0 10 2 0 0 0 4 1 14 1 0 0 0 0 0 0 0 0 0 0 0 0 0 0 0 0 0 0 0 0 0 0 0 0 0 0 0 0 0
0 0 0 0 0 0 0 0 0 0 0 0 8 6 1 0 0 0 0 0 0 0 0 0 0 0 0 0 0 0 0 0 0 0 0 0 0 0 0 0 0 0 0 0 0
0 0 0 0 0 0 0 0 0 0 0 0 0 0 0 0 0 0 0 0 0 0 0 0 0 0 0 0 0 0 0 0 0 0 0 0 0 0 0 0 0 0 0 0 0
0 0 0 0 0 0 0 0 0 0 0 0 0 0 0 0 0 0 0 0 0 0 0 0 0 0 0 0 0 0 0 0 0 0 0 0 0 0 0 0 0 0 0 0 0

GFSSW_con_sbcape_006.txt.gz
CAPE
1 3 5 10 10 5 3 12 41 92 107 104 68 84 78 58 28 3 3 0 0 0 147 17 0 0 0 0 0 0 0 0 0 0 0 0 0 0 0 0 0 0 0 0 0
2 4 8 8 10 23 30 19 31 67 78 121 86 60 92 40 6 6 0 0 0 1 0 0 0 0 0 0 0 0 0 0 0 0 0 0 0 0 0 0 0 0 0 0 0
18 10 6 8 11 17 39 43 45 61 74 109 121 124 131 2 1 0 0 0 0 0 1 3 0 0 0 0 0 0 0 0 0 0 0 0 0 0 0 0 0 0 0 0 0
13 26 12 7 2 3 20 48 60 68 71 95 140 235 157 13 0 2 0 0 0 0 3 53 27 0 0 0 0 0 0 0 0 0 0 0 0 0 0 0 0 0 0 0 0
4 23 19 7 7 2 0 18 31 82 99 151 203 231 64 25 0 0 0 0 0 0 4 25 0 0 0 0 0 0 0 0 0 0 0 0 0 0 0 0 0 0 0 0 0
37 31 13 17 19 4 6 0 9 66 89 270 384 334 36 14 0 0 0 0 0 0 4 29 7 0 0 0 0 0 0 0 0 0 0 0 0 0 0 0 0 0 0 0 0
48 38 31 13 6 24 28 14 6 73 138 268 427 141 31 0 0 0 0 0 0 1 0 12 43 0 0 0 0 0 0 0 0 0 0 0 0 0 0 0 0 0 0 0 0
52 53 33 29 16 19 16 40 32 103 127 317 398 28 2 0 0 0 0 0 0 0 0 77 138 2 3 0 0 0 0 0 0 0 0 0 0 0 0 0 0 0 0 0 0
23 16 27 53 57 65 34 45 79 79 131 274 116 21 22 0 0 0 0 0 4 0 8 82 7 16 10 0 0 0 0 0 0 0 0 0 0 0 0 0 0 0 0 0 0
41 31 14 20 40 60 67 24 62 45 57 49 81 11 0 0 0 0 0 0 12 2 15 140 56 22 14 10 9 0 0 0 0 0 0 0 0 0 0 0 0 0 0 0 0
45 61 22 18 15 73 62 32 5 18 20 1 0 1 0 0 0 0 0 0 9 2 39 89 74 27 0 0 0 0 0 0 0 0 0 0 0 0 0 0 0 0 0 0 0
62 81 36 14 38 72 9 0 0 3 5 0 28 0 27 34 77 7 4 11 33 0 31 144 25 1 0 0 3 0 0 0 0 0 0 0 0 0 0 0 0 0 0 0 0
58 46 42 32 63 49 1 0 61 35 38 0 0 37 18 38 45 10 10 22 26 0 6 24 11 4 0 0 0 0 0 0 0 0 0 0 0 0 0 0 0 0 0 0 0
26 17 16 58 33 31 2 7 45 39 15 10 14 3 35 22 30 30 5 27 19 0 2 43 1 6 3 0 0 3 0 0 0 0 0 0 0 0 0 0 0 0 0 0 0
43 26 45 62 54 39 41 2 39 62 0 0 14 7 34 6 23 61 1 3 2 0 35 36 7 26 6 1 0 0 0 0 0 0 0 0 0 0 0 0 0 0 0 0 0
25 32 53 41 58 35 10 30 26 23 0 2 44 7 13 1 60 71 71 67 16 0 29 0 0 15 5 0 0 0 0 0 0 0 0 0 0 0 0 0 0 0 0 0 0
0 17 37 63 44 72 27 11 7 24 1 26 21 17 28 15 65 40 9 12 18 37 39 0 2 0 0 0 0 0 0 0 0 0 0 0 0 0 0 0 0 0 0 0 0
2 15 25 25 30 36 32 3 23 9 2 27 33 1 10 32 48 38 14 31 9 0 3 2 16 0 0 0 0 0 0 0 0 0 0 0 0 0 0 0 0 0 0 0 0
12 0 10 17 36 21 11 8 10 3 3 36 29 0 11 30 24 52 29 14 10 1 0 0 0 0 0 0 0 0 0 0 0 0 0 0 0 0 0 0 0 0 0 0 0
1 0 0 6 40 33 16 8 15 2 0 7 2 10 90 33 15 5 10 24 5 0 0 0 0 0 0 0 0 0 0 0 0 0 0 0 0 0 0 0 0 0 0 0 0
0 0 4 5 46 48 17 3 9 0 0 9 14 2 6 1 14 2 1 0 0 0 0 0 0 0 0 0 0 0 0 0 0 0 0 0 0 0 0 0 0 0 0 0 0
0 0 14 12 33 57 22 50 1 4 30 19 12 4 1 3 3 3 1 0 0 0 0 0 0 0 0 0 0 0 0 0 0 0 0 0 0 0 0 0 0 0 0 0 0
0 6 7 10 7 8 21 13 17 6 21 29 0 0 0 3 3 1 0 0 0 0 0 0 0 0 0 0 0 0 0 0 0 0 0 0 0 0 0 0 0 0 0 0 0
0 0 8 11 1 0 6 10 31 10 3 0 0 0 0 13 0 0 0 0 0 0 0 0 0 0 0 0 0 0 0 0 0 0 0 0 0 0 0 0 0 0 0 0 0
0 0 0 0 0 0 0 4 10 2 0 0 25 0 2 0 0 0 0 0 0 0 0 0 0 0 0 0 0 0 0 0 0 0 0 0 0 0 0 0 0 0 0 0 0
0 0 0 0 0 0 0 0 0 0 0 1 3 0 0 0 0 0 0 0 0 0 0 0 0 0 0 0 0 0 0 0 0 0 0 0 0 0 0 0 0 0 0 0 0
0 0 0 0 0 0 0 0 0 0 0 0 0 0 0 0 0 0 0 0 0 0 0 0 0 0 0 0 0 0 0 0 0 0 0 0 0 0 0 0 0 0 0 0 0

GFSSW_con_sbcape_009.txt.gz
CAPE
2 1 2 5 8 10 3 0 2 24 64 71 100 99 109 79 24 0 1 0 0 0 0 0 1 1 0 0 0 0 0 0 0 0 0 0 0 0 0 0 0 0 0 0 0
9 4 3 3 6 12 15 13 0 6 22 73 45 87 79 55 0 1 0 0 0 0 0 5 0 0 0 0 0 0 0 0 0 0 0 0 0 0 0 0 0 0 0 0 0
6 2 1 2 3 10 14 19 25 18 25 46 63 96 100 1 0 0 0 0 0 0 0 2 13 0 0 0 0 0 0 0 0 0 0 0 0 0 0 0 0 0 0 0 0
2 0 0 7 11 16 9 8 23 41 36 51 74 90 77 0 0 0 0 0 4 1 0 8 48 0 0 0 0 0 0 0 0 0 0 0 0 0 0 0 0 0 0 0 0
5 1 2 0 27 13 17 0 4 25 51 64 75 97 6 27 1 0 0 0 0 10 0 7 43 0 3 0 0 0 0 0 0 0 0 0 0 0 0 0 0 0 0 0 0
5 2 3 0 9 43 24 0 0 17 60 71 95 99 0 8 0 0 0 0 0 9 4 8 48 0 0 0 0 0 0 0 0 0 0 0 0 0 0 0 0 0 0 0 0
6 27 10 3 31 32 21 22 3 2 52 81 83 29 30 0 0 0 0 0 0 2 5 0 18 0 0 0 0 0 0 0 0 0 0 0 0 0 0 0 0 0 0 0 0
12 19 33 20 49 37 27 28 32 27 18 77 92 6 11 0 0 0 0 0 0 0 2 3 8 31 3 0 0 0 0 0 0 0 0 0 0 0 0 0 0 0 0 0 0
7 11 0 0 35 69 72 28 38 62 64 60 15 39 5 2 7 0 0 0 1 31 0 0 6 72 22 1 0 0 0 0 0 0 0 0 0 0 0 0 0 0 0 0 0
14 57 41 4 26 24 71 58 36 25 26 25 17 11 0 3 6 1 0 0 0 72 89 90 67 78 35 24 27 0 0 0 0 0 0 0 0 0 0 0 0 0 0 0 0
22 54 64 9 5 28 52 4 3 13 15 0 1 0 11 0 1 2 0 0 0 86 3 21 91 52 17 19 3 0 0 0 0 0 0 0 0 0 0 0 0 0 0 0 0
19 42 58 28 18 29 52 0 0 0 0 0 0 0 3 62 164 31 0 0 6 7 0 83 44 43 2 4 0 0 0 0 0 0 0 0 0 0 0 0 0 0 0 0 0
9 35 34 0 15 53 10 0 1 16 9 4 0 9 37 0 47 62 0 0 66 0 0 10 30 31 5 10 22 0 0 0 0 0 0 0 0 0 0 0 0 0 0 0 0
23 43 45 17 58 13 5 4 6 5 15 16 1 1 45 120 27 25 0 3 64 0 0 61 12 21 23 0 0 2 0 0 0 0 0 0 0 0 0 0 0 0 0 0 0
36 62 44 22 29 43 13 0 6 21 6 1 5 14 26 6 11 20 0 48 22 0 48 46 108 5 6 0 0 0 0 0 0 0 0 0 0 0 0 0 0 0 0 0 0
19 47 57 24 33 26 14 13 52 9 0 17 25 35 24 32 65 68 1 41 47 0 8 7 10 34 5 0 0 0 0 0 0 0 0 0 0 0 0 0 0 0 0 0 0
24 50 48 36 56 31 9 35 9 6 1 21 21 32 5 3 11 19 14 15 14 9 8 2 15 5 11 0 0 0 2 2 1 0 0 0 0 0 0 0 0 0 0 0 0
18 36 27 15 45 9 48 12 5 13 1 10 6 16 23 11 33 42 2 8 24 3 0 8 26 0 0 0 0 0 0 0 0 0 0 0 0 0 0 0 0 0 0 0 0
17 2 17 9 58 38 3 3 0 9 0 19 9 5 39 24 58 42 23 8 8 6 0 3 0 0 0 0 0 0 0 0 0 0 0 0 0 0 0 0 0 0 0 0 0
1 2 3 4 18 10 3 9 10 2 12 0 0 0 0 13 5 10 4 31 54 0 0 0 0 0 0 0 0 0 0 0 0 0 0 0 0 0 0 0 0 0 0 0 0
1 1 4 29 10 22 7 5 8 31 0 0 12 8 6 0 7 2 0 16 36 0 0 0 0 0 0 0 0 0 0 0 0 0 0 0 0 0 0 0 0 0 0 0 0
0 0 16 3 20 22 14 15 9 0 3 0 0 10 0 0 0 42 3 1 2 0 0 0 0 0 0 0 0 0 0 0 0 0 0 0 0 0 0 0 0 0 0 0 0
0 8 36 12 11 10 9 16 19 16 34 43 0 2 0 0 9 37 3 0 0 0 0 0 0 0 0 0 0 0 0 0 0 0 0 0 0 0 0 0 0 0 0 0 0
0 9 28 17 12 15 34 13 17 30 41 25 0 0 0 0 0 1 2 0 0 0 0 0 0 0 0 0 0 0 0 0 0 0 0 0 0 0 0 0 0 0 0 0 0
0 0 0 1 4 1 10 12 14 20 8 0 3 0 0 2 1 0 0 0 0 0 0 0 0 0 0 0 0 0 0 0 0 0 0 0 0 0 0 0 0 0 0 0 0
0 0 0 0 0 1 0 7 11 4 0 5 0 0 2 3 0 0 0 0 0 0 0 0 0 0 0 0 0 0 0 0 0 0 0 0 0 0 0 0 0 0 0 0 0
0 0 0 0 0 0 0 0 0 0 0 0 0 0 0 0 0 0 0 0 0 0 0 0 0 0 0 0 0 0 0 0 0 0 0 0 0 0 0 0 0 0 0 0 0

GFSSW_con_sbcape_012.txt.gz
CAPE
0 2 2 1 2 0 0 0 1 3 25 46 76 58 72 66 39 16 4 0 0 0 0 0 78 186 80 1 0 0 0 0 0 0 0 0 0 0 0 0 0 0 0 0 0
0 2 1 0 0 0 0 1 2 0 0 21 34 35 57 52 38 30 0 0 0 0 0 6 106 214 101 0 0 0 0 0 0 0 0 0 0 0 0 0 0 0 0 0 0
0 2 0 1 0 2 11 7 14 13 7 0 18 29 70 41 33 6 0 15 40 17 0 1 103 140 110 12 3 0 0 0 0 0 0 0 0 0 0 0 0 0 0 0 0
1 0 0 0 0 0 0 6 9 29 34 33 38 47 82 18 23 47 4 0 8 26 18 0 25 52 120 53 4 0 0 0 0 0 0 0 0 0 0 0 0 0 0 0 0
3 0 0 0 0 0 0 0 0 22 33 38 53 63 56 37 13 22 0 0 0 5 12 1 66 52 87 84 34 0 0 0 0 0 0 0 0 0 0 0 0 0 0 0 0
12 1 0 0 0 0 0 0 5 0 38 56 59 75 20 13 1 0 0 0 0 1 17 5 50 38 98 141 67 2 1 0 0 0 0 0 0 0 0 0 0 0 0 0 0
19 11 10 0 0 0 0 7 24 28 32 55 65 52 33 2 0 0 0 0 0 0 3 9 28 113 41 114 77 39 15 7 0 0 0 0 0 0 0 0 0 0 0 0 0
13 26 15 0 0 0 0 5 41 74 27 52 51 46 18 0 0 0 0 0 0 0 0 3 20 39 53 80 70 64 61 57 0 1 0 0 0 0 0 0 0 0 0 0 0
12 49 24 4 0 5 10 59 59 79 71 57 32 34 12 0 0 0 0 0 0 0 0 0 33 61 149 4 67 100 46 34 11 1 0 0 0 0 0 0 0 0 0 0 0
17 49 64 48 12 7 0 39 71 56 51 40 44 48 0 0 0 0 0 0 0 175 47 104 52 125 217 46 35 37 37 15 22 0 0 0 0 0 0 0 0 0 0 0 0
27 49 59 67 33 4 13 9 4 24 25 0 0 0 0 0 0 3 4 6 21 171 89 105 52 5 53 69 26 20 1 18 7 0 0 0 0 0 0 0 0 0 0 0 0
21 55 58 64 47 28 32 5 0 0 10 0 3 0 24 2 56 35 42 1 14 4 13 63 50 9 30 46 23 28 14 7 10 0 0 0 0 0 0 0 0 0 0 0 0
18 48 52 39 20 16 46 17 0 1 5 8 3 12 18 5 31 115 81 2 0 1 14 14 0 14 17 58 38 47 12 6 5 0 0 0 0 0 0 0 0 0 0 0 0
35 56 65 58 29 41 41 2 0 0 2 6 14 4 37 65 28 19 76 2 78 15 27 11 13 22 79 24 32 34 23 1 1 14 28 0 0 0 0 0 0 0 0 0 0
40 70 69 50 33 14 4 1 0 0 6 0 8 3 6 21 68 39 131 2 32 70 12 2 2 49 75 20 7 44 22 13 25 7 0 2 0 0 0 0 0 0 0 0 0
35 60 62 56 62 9 3 5 8 8 5 16 13 31 40 35 8 135 154 20 76 63 8 0 21 0 61 5 19 0 0 0 0 0 12 1 0 0 0 0 0 0 0 0 0
40 41 38 23 10 50 8 28 9 18 2 32 25 37 16 13 28 54 59 39 31 53 26 0 26 30 78 36 0 26 30 42 48 24 5 0 0 0 0 0 0 0 0 0 0
25 20 15 22 44 78 11 13 21 3 9 13 19 18 20 29 26 83 37 43 41 23 0 11 17 74 56 29 0 0 32 16 14 1 2 0 0 0 0 0 0 0 0 0 0
8 4 12 25 74 29 9 10 4 17 3 17 22 24 6 23 2 55 16 18 6 3 0 13 5 0 15 0 0 0 2 0 0 0 0 0 0 0 0 0 0 0 0 0 0
0 0 3 0 41 30 5 24 12 8 1 21 5 4 11 23 33 23 17 1 1 4 13 0 1 0 0 0 0 0 0 0 0 0 0 0 0 0 0 0 0 0 0 0 0
2 4 3 5 4 6 11 26 16 12 0 14 4 4 5 11 5 24 7 0 0 8 20 6 0 0 0 1 3 6 8 0 0 0 1 0 0 0 0 0 0 0 0 0 0
4 19 11 0 3 13 11 12 14 12 3 3 10 0 0 3 1 35 2 1 0 26 14 0 1 0 0 0 0 0 0 0 13 0 0 0 0 0 0 0 0 0 0 0 0
0 9 6 2 16 15 13 19 9 24 4 0 14 6 0 0 3 5 13 0 0 20 14 0 2 4 3 0 0 0 0 0 0 0 0 0 0 0 0 0 0 0 0 0 0
0 13 39 45 23 15 13 15 13 17 4 6 23 30 0 0 4 0 28 1 1 0 0 0 0 0 0 0 0 0 0 0 0 2 0 0 0 0 0 0 0 0 0 0 0
0 3 1 4 8 8 27 20 13 32 44 37 17 7 0 0 18 22 13 3 0 0 0 0 5 0 0 0 0 0 0 0 0 0 0 0 0 0 0 0 0 0 0 0 0
0 0 0 1 6 2 1 32 12 15 16 11 8 2 0 0 0 4 3 0 1 4 4 0 10 0 0 0 0 0 0 0 0 0 0 0 0 0 0 0 0 0 0 0 0
0 0 0 0 0 3 4 4 14 8 1 0 4 1 2 8 2 3 0 0 0 0 0 4 0 0 0 0 0 0 0 0 0 0 0 0 0 0 0 0 0 0 0 0 0

GFSSW_con_sbcape_015.txt.gz
CAPE
3 5 5 1 0 0 0 0 0 0 1 4 22 55 73 71 24 10 1 0 0 0 0 0 0 70 143 111 3 0 2 2 0 0 0 0 0 0 0 0 0 0 0 0 0
4 4 3 1 0 1 0 0 0 0 0 0 7 27 66 58 46 41 3 0 0 0 0 0 0 5 236 104 44 0 1 0 0 0 2 1 0 0 0 0 0 0 0 0 0
5 4 4 1 2 0 0 0 0 0 0 0 4 33 58 50 41 21 23 8 19 11 0 0 1 67 61 186 56 24 0 0 0 3 0 0 0 0 0 0 0 0 0 0 0
5 5 2 4 5 4 0 0 0 0 12 13 19 31 72 35 10 70 13 0 1 7 3 0 0 4 28 101 73 46 7 0 6 6 0 0 0 0 0 0 0 0 0 0 0
5 10 6 1 7 10 1 0 0 0 1 31 45 51 60 48 16 40 0 0 0 8 11 2 0 0 13 23 127 40 21 4 1 3 0 0 0 0 0 0 0 0 0 0 0
5 13 7 1 1 0 0 0 0 0 0 7 69 77 50 29 1 9 24 0 0 1 13 39 3 0 10 11 56 40 50 19 20 5 0 0 0 0 0 0 0 0 0 0 0
3 15 8 1 10 28 12 1 0 0 0 0 63 59 47 0 0 0 0 0 0 0 25 20 33 47 36 25 17 60 69 15 19 26 0 1 0 0 0 0 0 0 0 0 0
1 4 35 20 27 37 34 11 0 0 0 0 23 56 52 0 0 0 0 0 0 0 0 18 58 23 43 84 16 54 104 35 20 20 0 1 0 0 0 0 0 0 0 0 0
7 8 39 22 25 48 53 60 45 5 13 6 4 65 19 0 0 0 0 0 3 0 0 10 48 44 59 89 92 86 49 28 54 27 1 9 0 0 0 0 0 0 0 0 0
46 29 35 52 34 40 36 38 56 39 28 35 30 41 0 0 0 0 0 0 8 5 6 31 66 45 45 148 66 41 31 22 26 17 0 3 0 0 0 0 0 0 0 0 0
51 33 33 31 52 50 25 17 0 4 20 0 0 0 0 0 0 0 0 5 6 24 57 31 98 50 9 1 8 42 95 59 30 19 21 4 0 0 0 0 0 0 0 0 0
55 37 48 38 58 65 33 16 0 0 7 3 1 5 8 1 3 0 3 16 25 29 40 237 207 79 2 0 20 109 55 106 33 28 0 0 1 0 0 0 0 0 0 0 0
56 37 44 43 45 29 26 10 0 0 4 5 0 5 3 23 8 27 17 20 21 44 62 227 114 108 43 13 103 84 71 38 18 14 0 2 1 0 0 0 0 0 0 0 0
51 40 48 57 4 1 34 0 0 0 0 8 9 2 9 26 25 12 70 61 47 37 42 66 87 2 108 13 11 133 74 45 29 20 10 13 1 0 0 0 0 0 0 0 0
46 60 65 44 43 53 7 2 0 1 13 3 17 3 12 19 18 12 0 122 61 45 12 25 3 19 88 16 101 22 52 33 39 47 16 8 10 0 0 0 0 0 0 0 0
47 48 68 62 27 34 1 2 3 6 10 13 8 14 21 41 15 44 20 79 66 43 27 12 4 19 25 60 18 23 90 73 23 16 10 1 9 0 0 0 0 0 0 0 0
53 36 32 3 12 25 1 5 7 14 1 23 19 30 39 35 44 51 23 59 87 40 48 6 0 5 42 65 41 30 38 25 53 38 2 3 13 5 0 0 0 0 0 0 0
34 34 14 0 50 4 8 7 9 4 2 9 13 21 42 15 32 33 37 51 47 1 6 8 32 13 14 24 11 7 22 10 7 13 3 0 0 0 0 0 0 0 0 0 0
24 46 10 2 54 9 5 5 12 15 9 30 28 64 71 16 24 33 13 42 17 1 10 14 13 2 46 32 4 0 44 1 0 0 29 0 0 0 0 0 0 0 0 0 0
6 2 1 5 46 14 6 15 27 19 12 14 8 16 14 4 15 23 69 0 4 0 0 9 7 0 0 0 0 5 32 10 2 0 9 5 0 0 0 0 0 0 0 0 0
0 2 15 7 18 2 1 18 26 26 7 13 7 19 20 5 16 12 4 0 0 0 10 16 5 0 3 13 10 8 2 3 6 0 32 53 1 0 0 0 0 0 0 0 0
2 5 9 10 11 9 9 9 17 24 5 13 31 23 17 9 15 17 0 0 0 0 17 33 20 8 0 0 1 1 0 4 15 0 0 0 0 0 0 0 0 0 0 0 0
1 39 12 5 8 16 11 15 14 12 6 22 11 15 14 8 20 17 17 0 3 0 33 26 3 31 14 0 0 1 0 15 6 15 3 0 1 0 0 0 0 0 0 0 0
3 49 11 22 6 7 15 16 17 12 8 9 10 12 12 13 2 0 0 5 6 0 16 8 0 1 7 0 0 1 0 0 0 2 0 2 1 0 0 0 0 0 0 0 0
0 25 1 11 13 7 17 13 13 27 4 0 17 13 5 2 1 9 0 14 9 1 1 31 24 9 2 1 0 0 2 0 1 0 0 0 0 0 0 0 0 0 0 0 0
0 0 40 21 0 6 9 11 9 2 4 34 10 32 1 1 0 5 9 24 19 59 38 23 18 0 0 0 0 0 0 0 0 0 0 0 0 0 0 0 0 0 0 0 0
0 0 0 12 34 21 14 1 9 10 12 7 27 34 23 4 0 48 14 19 17 10 19 16 18 9 10 0 0 0 0 0 0 0 0 0 0 0 0 0 0 0 0 0 0

GFSSW_con_sbcape_018.txt.gz
CAPE
1 2 13 13 6 1 0 1 0 0 1 3 0 26 38 28 31 5 0 0 0 0 0 0 0 0 8 81 108 21 0 0 0 0 0 0 0 0 0 0 0 0 0 0 0
2 5 8 9 10 4 2 0 1 1 0 0 0 1 16 7 11 28 0 13 13 0 0 0 0 0 0 93 71 5 0 0 0 0 0 0 0 0 0 0 0 0 0 0 0
1 5 3 4 5 6 2 4 0 0 4 0 0 1 12 7 10 0 16 10 43 22 0 0 0 0 15 31 51 16 0 0 0 0 0 3 0 0 0 0 0 0 0 0 0
3 1 0 0 6 1 1 1 1 0 5 10 7 6 45 5 20 21 5 0 0 17 9 0 0 0 28 12 25 38 15 0 0 0 9 0 0 0 0 0 0 0 0 0 0
2 4 3 0 1 1 0 0 0 0 9 33 25 19 0 13 4 11 0 0 0 0 5 3 6 0 1 11 23 29 34 13 1 0 0 3 0 0 0 0 0 0 0 0 0
1 5 7 0 3 4 0 0 0 11 0 28 50 52 19 9 0 4 17 2 0 7 37 48 24 3 0 6 1 27 35 37 18 2 1 0 0 0 0 0 0 0 0 0 0
1 6 25 1 1 9 0 0 0 13 28 22 57 21 21 0 0 0 6 0 0 0 0 24 18 49 22 9 11 6 15 68 5 4 11 3 0 0 0 0 0 0 0 0 0
9 19 27 50 12 21 0 0 0 16 43 40 54 53 13 0 0 0 0 0 0 0 0 0 12 26 27 28 47 49 29 0 0 10 5 3 0 0 0 0 0 0 0 0 0
23 48 44 67 52 47 15 0 0 38 37 41 23 52 3 0 0 0 0 0 0 0 0 0 2 35 34 41 27 41 0 0 0 3 12 7 0 0 0 0 0 0 0 0 0
60 54 58 72 72 62 13 0 0 9 30 23 9 20 0 0 0 0 0 4 2 6 9 3 16 36 42 29 2 1 20 0 0 0 11 4 0 0 0 0 0 0 0 0 0
51 51 50 76 74 60 15 16 0 0 6 0 0 0 0 0 0 0 0 3 10 18 13 14 20 6 0 0 0 0 3 47 0 24 14 2 0 0 0 0 0 0 0 0 0
61 39 54 75 89 71 38 16 1 1 1 1 0 1 0 3 2 0 0 13 16 17 13 33 17 0 0 2 3 14 13 17 22 28 15 0 0 0 0 0 0 0 0 0 0
64 42 65 73 53 49 27 1 0 0 5 12 0 0 0 0 9 12 0 0 2 5 8 15 0 0 2 1 26 5 36 4 8 34 11 5 0 0 0 0 0 0 0 0 0
66 60 67 34 17 3 11 4 5 0 1 2 9 1 0 1 4 1 7 11 9 5 8 25 0 8 25 22 27 25 3 5 136 0 9 0 0 0 0 0 0 0 0 0 0
67 67 55 1 48 36 11 0 0 0 0 0 13 0 5 1 3 1 0 27 28 3 41 0 0 2 93 66 52 5 97 5 1 24 56 13 1 0 0 0 0 0 0 0 0
67 51 48 30 15 10 3 0 0 3 1 2 4 14 30 11 9 6 6 34 26 27 28 2 32 47 21 54 0 0 72 45 32 9 17 13 0 0 0 0 0 0 0 0 0
68 40 30 7 2 0 0 1 3 7 0 13 13 16 8 29 30 9 19 31 31 42 6 10 3 0 24 73 20 47 83 5 86 23 0 0 0 0 0 0 0 0 0 0 0
53 38 14 0 2 0 1 1 2 5 0 6 9 11 24 27 31 21 20 23 22 9 0 10 1 1 3 3 46 31 1 1 1 0 0 0 0 0 0 0 0 0 0 0 0
46 35 4 7 2 0 2 1 6 21 8 11 14 23 34 20 20 20 31 7 0 3 13 59 10 4 0 0 54 18 1 2 10 0 0 0 0 0 0 0 0 0 0 0 0
34 5 2 1 7 2 6 7 12 19 9 12 26 12 6 3 19 16 9 0 0 10 0 1 7 0 6 3 5 35 1 9 5 13 29 0 0 0 0 0 0 0 0 0 0
0 1 0 2 2 11 1 2 13 14 7 11 20 19 3 0 9 11 4 0 0 0 0 6 10 6 9 39 8 23 21 15 0 1 13 0 0 0 0 0 0 0 0 0 0
1 3 11 8 17 5 5 2 9 14 12 15 19 28 13 13 0 11 1 16 0 0 1 3 12 6 2 0 0 0 0 0 8 0 0 0 0 0 0 0 0 0 0 0 0
1 8 20 6 3 3 5 7 11 30 23 16 14 4 10 13 6 0 3 20 0 0 0 7 14 10 19 3 31 19 0 0 0 0 0 0 0 0 0 0 0 0 0 0 0
0 9 15 18 9 2 6 8 8 8 8 20 9 13 7 10 12 1 0 8 4 0 75 28 7 3 15 1 1 7 0 0 0 0 0 0 0 0 0 0 0 0 0 0 0
0 8 1 5 4 6 2 10 9 11 4 2 10 2 8 12 12 0 0 30 0 0 0 7 17 7 0 0 0 0 0 0 0 0 0 0 0 0 0 0 0 0 0 0 0
1 0 1 6 0 1 5 8 7 6 9 8 0 17 16 0 1 0 0 10 5 0 0 0 3 0 0 0 0 0 0 0 0 0 0 0 0 0 0 0 0 0 0 0 0
0 0 0 3 16 3 9 2 5 12 7 0 0 0 31 0 1 0 2 30 5 0 0 8 0 11 0 0 0 0 0 0 0 0 0 0 0 0 0 0 0 0 0 0 0

GFSSW_con_sbcape_021.txt.gz
CAPE
2 1 0 4 0 0 1 1 2 1 0 2 0 29 56 33 28 1 0 0 0 0 0 0 0 0 0 0 1 0 0 0 0 0 0 0 0 0 0 0 0 0 0 0 0
2 3 2 3 0 0 0 3 2 3 1 0 11 16 37 24 5 8 0 0 15 2 0 0 0 0 0 0 4 4 0 0 0 0 0 0 0 0 0 0 0 0 0 0 0
1 3 4 1 0 0 0 0 3 2 5 1 0 5 48 13 3 0 0 4 47 24 0 0 0 0 0 0 1 11 0 0 0 0 0 0 0 0 0 0 0 0 0 0 0
1 5 6 1 0 0 0 0 0 0 5 18 0 0 53 26 0 0 0 0 2 52 16 2 0 0 2 8 0 4 6 0 0 0 0 0 0 0 0 0 0 0 0 0 0
0 2 8 6 1 0 0 0 0 0 0 13 23 35 31 18 1 0 0 0 0 0 18 21 8 0 0 0 0 2 0 0 0 0 0 0 0 0 0 0 0 0 0 0 0
15 1 8 10 1 1 0 0 0 0 0 0 12 46 23 4 0 0 0 0 0 0 3 18 7 3 1 0 0 0 3 0 0 1 0 0 0 0 0 0 0 0 0 0 0
43 18 18 19 2 2 2 13 0 0 0 0 0 24 26 0 0 0 1 0 0 0 0 5 28 65 22 2 0 0 0 0 0 0 3 0 0 0 0 0 0 0 0 0 0
49 41 18 24 21 6 23 8 4 14 1 0 0 16 3 0 0 0 0 0 0 0 0 0 0 2 12 13 0 4 20 1 0 0 2 14 0 0 0 0 0 0 0 0 0
65 50 38 35 56 52 28 10 0 8 36 16 0 11 0 0 0 0 0 0 0 0 0 0 0 9 1 9 0 11 3 8 1 0 5 16 0 0 0 0 0 0 0 0 0
80 66 51 48 60 60 32 0 0 4 39 22 6 10 0 0 0 0 0 0 0 0 7 0 0 0 5 29 2 1 0 0 0 0 1 1 1 0 0 0 0 0 0 0 0
87 72 65 47 53 60 0 0 0 0 12 0 0 0 0 0 0 0 0 0 0 0 7 0 1 5 0 0 0 0 0 0 0 3 10 0 0 0 0 0 0 0 0 0 0
86 82 93 53 67 63 0 0 1 0 1 2 0 0 0 1 0 0 0 0 4 12 1 3 4 0 0 0 12 1 0 0 0 0 4 3 0 0 0 0 0 0 0 0 0
82 82 82 56 69 26 6 0 0 0 23 5 0 0 0 2 3 0 0 0 0 5 2 0 0 0 0 0 5 7 0 0 0 0 0 0 0 0 0 0 0 0 0 0 0
98 90 76 47 12 0 6 0 0 0 6 0 3 7 5 2 0 3 6 0 15 6 2 3 0 0 0 0 1 6 0 0 0 33 13 28 13 0 0 0 0 0 0 0 0
123 100 70 0 0 0 0 0 0 8 0 0 8 0 8 0 2 0 3 12 12 4 3 0 0 0 0 0 4 0 0 0 11 8 19 11 35 0 0 0 0 0 0 0 0
106 110 36 4 0 0 0 0 0 2 0 1 0 6 7 20 11 13 0 9 13 25 14 0 3 5 0 0 10 0 1 0 24 55 54 5 19 0 0 0 0 0 0 0 0
91 78 27 1 1 0 0 0 0 1 0 4 6 7 4 13 18 17 26 21 15 6 8 1 1 2 5 19 12 33 24 15 50 31 5 0 11 0 0 0 0 0 0 0 0
134 73 9 1 0 0 0 11 3 0 0 2 4 1 12 2 21 15 38 17 29 5 9 0 0 0 0 0 20 3 0 16 9 13 1 1 14 0 0 0 0 0 0 0 0
96 69 11 3 0 0 5 3 0 0 0 9 9 15 21 17 6 3 1 25 1 1 0 4 0 0 0 0 0 3 0 0 10 3 7 0 0 0 0 0 0 0 0 0 0
108 69 28 2 0 1 4 7 0 3 4 5 19 7 5 3 8 33 0 0 0 0 0 0 6 1 0 11 3 88 38 23 6 11 4 0 0 0 0 0 0 0 0 0 0
2 36 8 3 7 10 0 15 4 7 7 15 17 29 12 0 0 0 0 0 0 0 0 1 7 15 1 8 3 28 13 66 40 0 0 0 0 0 0 0 0 0 0 0 0
0 16 6 5 15 15 10 4 0 10 13 15 14 22 28 3 0 0 0 0 0 0 1 1 8 6 2 20 16 6 1 1 3 1 0 0 0 0 0 0 0 0 0 0 0
1 23 6 0 2 7 7 1 1 13 16 17 20 11 0 11 0 0 0 0 0 0 0 6 11 1 14 3 10 3 7 10 17 8 0 0 0 0 0 0 0 0 0 0 0
3 15 33 22 2 6 3 5 9 6 13 23 19 3 1 10 0 3 0 6 0 0 0 1 12 6 14 16 8 7 1 7 11 0 0 0 0 0 0 0 0 0 0 0 0
0 11 2 2 2 5 2 5 8 6 10 7 8 4 0 0 0 0 0 0 0 13 23 23 5 10 4 4 2 2 0 3 4 0 0 0 0 0 0 0 0 0 0 0 0
0 1 1 0 0 4 5 5 4 8 9 8 1 2 0 0 0 0 0 0 7 7 0 2 3 10 0 0 1 1 0 0 0 0 0 0 0 0 0 0 0 0 0 0 0
0 0 0 5 0 3 2 0 1 2 2 1 0 1 0 0 4 3 2 0 13 0 0 0 1 10 0 2 0 0 0 0 0 0 0 0 0 0 0 0 0 0 0 0 0

GFSSW_con_sbcape_024.txt.gz
CAPE
0 3 5 12 6 2 3 3 0 0 0 3 5 25 60 62 49 0 0 0 0 0 0 0 0 0 0 0 0 0 1 0 0 0 0 0 0 0 0 0 0 0 0 0 0
0 3 8 8 10 5 3 0 5 0 0 0 7 7 48 25 18 7 0 19 27 3 0 0 0 0 0 0 0 3 2 0 0 0 0 0 0 0 0 0 0 0 0 0 0
2 2 6 10 6 2 2 0 0 0 0 0 0 16 39 9 2 0 1 31 74 13 0 0 0 0 0 0 0 3 5 0 0 0 0 0 0 0 0 0 0 0 0 0 0
12 3 5 9 3 1 0 0 0 0 0 11 3 0 23 0 0 0 0 1 46 44 0 0 0 0 0 0 0 0 0 0 1 0 0 0 0 0 0 0 0 0 0 0 0
21 1 6 8 3 0 0 0 0 0 0 0 9 24 2 6 0 0 0 0 0 17 8 5 0 0 0 0 0 0 0 0 0 0 0 0 0 0 0 0 0 0 0 0 0
51 20 9 7 10 0 0 0 0 0 0 0 0 14 0 1 0 0 0 0 0 0 0 7 0 0 0 0 0 0 0 0 0 0 0 0 0 0 0 0 0 0 0 0 0
82 60 33 22 16 2 0 0 0 0 0 0 0 3 8 0 0 0 0 0 0 1 1 3 7 19 19 0 0 0 0 0 0 0 0 0 0 0 0 0 0 0 0 0 0
106 98 60 44 17 15 27 8 0 0 0 1 2 7 0 0 0 0 0 0 0 0 0 0 0 0 0 0 0 0 0 0 0 0 0 0 0 0 0 0 0 0 0 0 0
118 102 75 54 60 65 56 13 0 0 17 22 0 0 0 0 0 0 0 0 0 0 0 0 0 0 0 20 8 0 2 0 0 0 0 0 0 0 0 0 0 0 0 0 0
115 102 98 63 66 70 58 13 0 0 18 34 11 5 0 0 0 0 0 0 0 0 0 0 0 0 0 9 5 3 0 0 0 0 0 0 0 0 0 0 0 0 0 0 0
102 85 83 81 74 73 9 0 0 0 8 2 0 0 0 0 0 0 0 0 0 0 0 0 1 2 0 0 0 0 0 0 0 0 0 0 0 0 0 0 0 0 0 0 0
105 120 94 99 95 67 0 0 0 0 0 0 0 0 0 2 0 0 0 0 0 0 0 4 15 0 0 0 0 0 0 0 0 0 0 0 0 0 0 0 0 0 0 0 0
123 111 90 121 88 33 2 0 0 0 9 2 0 3 3 11 7 1 0 0 0 1 1 0 0 0 0 0 0 3 4 3 4 0 0 0 0 0 0 0 0 0 0 0 0
104 124 111 101 10 0 4 0 0 2 1 0 0 6 8 38 14 6 3 0 7 6 0 7 0 0 0 0 0 2 0 6 18 14 1 21 3 0 0 0 0 0 0 0 0
121 155 135 1 0 0 0 0 0 12 0 0 3 0 10 8 0 0 0 11 9 2 1 0 0 0 0 0 0 0 0 0 8 13 24 0 11 0 0 0 0 0 0 0 0
111 164 46 1 0 0 0 0 1 0 0 3 0 2 11 11 10 4 0 18 16 24 13 0 0 0 0 0 0 2 4 2 1 12 32 0 12 0 0 0 0 0 0 0 0
24 187 11 0 0 0 0 0 0 0 0 4 2 3 0 9 1 10 26 17 14 13 1 9 11 2 5 9 6 24 40 15 19 14 0 0 0 0 0 0 0 0 0 0 0
36 125 6 0 0 0 0 0 0 0 0 2 0 5 1 0 3 10 35 31 10 13 15 4 2 3 0 0 1 1 4 0 0 0 0 38 3 0 0 0 0 0 0 0 0
41 98 10 2 0 0 0 6 0 0 0 0 3 6 5 7 2 15 23 9 4 16 0 2 2 0 0 0 7 5 40 0 0 0 29 1 0 0 0 0 0 0 0 0 0
57 73 17 0 0 0 3 3 0 0 1 2 0 4 2 3 18 11 0 0 1 0 0 0 0 0 0 0 1 29 6 5 21 4 5 3 0 0 0 0 0 0 0 0 0
70 21 13 2 5 8 1 6 0 0 0 0 7 20 15 0 1 0 0 0 0 0 0 0 0 0 0 2 0 14 3 22 1 0 35 16 0 0 0 0 0 0 0 0 0
25 9 9 6 13 11 8 0 0 0 1 8 6 16 25 9 0 0 0 0 0 0 0 0 16 2 0 0 0 6 3 13 13 0 46 2 0 0 0 0 0 0 0 0 0
25 38 9 0 0 8 8 0 1 8 14 11 11 10 5 30 20 0 0 0 0 0 0 16 13 1 0 4 11 14 11 9 44 47 0 38 0 0 0 0 0 0 0 0 0
15 5 30 17 15 1 6 8 7 0 6 12 14 23 19 5 3 0 0 0 0 0 0 11 27 1 2 22 8 7 10 2 33 22 1 0 0 0 0 0 0 0 0 0 0
17 14 3 3 7 1 2 5 7 11 5 14 15 15 5 0 0 0 0 0 0 0 10 9 25 23 14 3 11 20 0 6 0 0 1 0 0 0 0 0 0 0 0 0 0
12 3 3 0 0 4 4 5 3 4 9 9 11 1 18 0 0 0 0 0 0 7 6 16 4 2 1 1 12 15 16 13 2 1 2 1 0 0 0 0 0 0 0 0 0
11 0 0 1 2 9 9 4 3 1 2 4 1 3 1 0 0 0 0 0 0 0 2 8 7 4 9 2 4 18 17 1 0 0 2 0 0 0 0 0 0 0 0 0 0

GFSSW_con_sbcape_027.txt.gz
CAPE
6 0 3 4 9 11 12 10 5 2 8 9 10 11 66 72 36 10 0 0 0 0 0 0 0 0 0 0 0 0 0 0 0 0 0 0 0 0 0 0 0 0 0 0 0
19 7 3 7 7 9 11 7 4 0 3 3 1 15 16 52 33 25 0 23 36 20 0 0 0 0 0 0 0 1 0 0 0 0 0 0 0 0 0 0 0 0 0 0 0
30 23 1 5 12 5 7 6 2 0 0 8 0 5 14 3 0 0 2 54 71 37 0 0 0 0 0 0 0 1 2 0 0 0 0 0 0 0 0 0 0 0 0 0 0
55 33 10 1 14 8 5 1 0 0 3 10 0 0 14 3 0 0 0 0 42 15 0 0 0 0 0 0 0 0 0 0 0 0 0 0 0 0 0 0 0 0 0 0 0
96 50 20 2 11 10 7 0 0 0 0 1 0 1 1 1 0 0 0 0 0 22 6 2 0 0 0 0 0 0 0 0 0 0 0 0 0 0 0 0 0 0 0 0 0
205 87 53 29 7 17 8 2 0 0 0 0 0 18 0 0 0 0 0 0 0 0 1 4 1 0 0 0 0 0 0 0 0 0 0 0 0 0 0 0 0 0 0 0 0
141 109 82 60 14 23 18 16 7 0 0 0 0 3 0 0 0 0 0 0 0 0 0 0 4 25 14 10 0 0 0 0 0 0 0 0 0 0 0 0 0 0 0 0 0
109 98 106 70 40 33 26 34 26 7 1 0 0 1 0 0 0 0 0 0 0 0 0 0 13 0 0 2 0 1 0 0 0 0 0 0 0 0 0 0 0 0 0 0 0
133 90 103 81 61 74 58 56 28 11 28 23 0 0 0 0 0 0 0 0 0 0 0 0 0 0 3 31 11 0 0 0 0 0 0 0 0 0 0 0 0 0 0 0 0
124 117 102 95 86 80 66 48 7 5 16 51 4 2 0 0 0 0 0 0 0 0 0 0 0 1 11 28 1 0 0 0 0 0 0 0 0 0 0 0 0 0 0 0 0
94 98 110 102 91 110 46 0 0 0 9 4 1 0 0 0 0 0 0 0 0 0 0 0 0 0 0 0 0 0 0 0 0 0 0 0 0 0 0 0 0 0 0 0 0
35 102 113 121 136 109 0 0 0 0 0 0 0 0 0 0 0 0 0 0 0 0 0 2 5 0 0 0 0 0 2 1 0 0 0 0 0 0 0 0 0 0 0 0 0
2 105 86 136 129 41 0 0 0 0 0 0 0 1 0 5 18 0 0 0 0 0 0 0 0 0 0 0 0 0 2 3 2 0 0 0 0 0 0 0 0 0 0 0 0
13 123 85 132 72 5 5 0 0 0 0 0 0 0 13 29 9 0 0 0 0 0 0 0 0 0 0 0 0 2 0 0 4 22 1 0 0 0 0 0 0 0 0 0 0
34 10 76 90 0 1 0 0 0 0 0 0 6 0 14 12 0 0 0 11 8 0 0 0 0 0 0 0 0 7 0 7 23 7 1 0 3 0 0 0 0 0 0 0 0
69 26 88 0 0 0 0 0 2 0 0 1 1 6 15 14 12 6 2 24 14 19 7 0 0 0 0 0 0 2 5 10 10 8 4 0 0 0 0 0 0 0 0 0 0
54 80 78 0 0 0 0 0 0 0 0 2 1 4 0 1 3 9 1 18 21 7 10 11 9 1 0 0 0 13 13 3 12 13 0 0 0 0 0 0 0 0 0 0 0
63 83 74 0 0 1 0 0 0 0 0 1 0 0 0 0 2 5 12 2 23 27 11 2 14 5 1 0 0 0 4 7 0 0 0 0 0 0 0 0 0 0 0 0 0
59 31 76 12 0 11 0 0 0 0 0 0 0 6 2 1 2 11 13 3 1 1 5 3 0 0 0 0 1 12 13 0 2 0 0 0 0 0 0 0 0 0 0 0 0
48 35 67 8 1 1 1 0 0 0 0 0 0 0 0 0 10 10 1 0 0 0 1 0 0 0 0 3 2 4 0 18 15 0 0 0 0 0 0 0 0 0 0 0 0
67 26 31 18 1 2 0 1 0 0 0 0 0 14 2 0 3 0 0 0 0 0 0 4 0 0 1 7 0 6 8 5 3 0 1 0 0 0 0 0 0 0 0 0 0
23 4 20 6 12 4 7 0 0 0 0 0 0 6 11 4 4 0 0 0 0 0 4 1 1 0 0 0 0 0 0 12 5 0 0 0 0 0 0 0 0 0 0 0 0
10 30 19 17 0 3 11 1 0 3 2 7 14 12 7 16 35 0 0 0 0 0 0 1 12 1 6 1 12 13 4 14 5 13 0 0 0 0 0 0 0 0 0 0 0
26 6 47 21 11 0 10 7 7 0 6 8 7 14 16 26 12 2 0 0 0 0 0 0 19 4 0 5 3 17 18 25 18 6 0 0 0 0 0 0 0 0 0 0 0
41 6 3 6 13 0 0 6 8 12 2 12 11 15 14 21 1 7 0 0 0 3 13 3 12 11 4 0 2 11 14 9 7 9 11 0 0 0 0 0 0 0 0 0 0
25 17 7 5 4 7 2 10 1 3 5 9 11 3 9 21 1 0 0 0 0 0 9 14 5 1 0 1 11 25 16 10 2 0 1 0 0 0 0 0 0 0 0 0 0
11 0 1 8 7 14 10 7 2 5 2 0 0 5 16 14 2 0 0 0 1 0 8 10 8 11 0 10 4 13 6 6 5 3 3 1 0 0 0 0 0 0 0 0 0

GFSSW_con_sbcape_030.txt.gz
CAPE
32 12 0 0 6 12 11 4 6 11 5 14 23 10 17 78 81 19 1 0 0 0 0 0 0 0 0 0 0 0 0 0 0 0 0 0 0 0 0 0 0 0 0 0 0
63 24 15 1 2 8 15 9 3 8 7 5 0 15 5 51 59 40 1 15 24 7 0 0 0 0 0 0 0 1 0 0 0 0 0 0 0 0 0 0 0 0 0 0 0
89 51 30 12 0 7 10 13 4 2 1 1 0 9 13 1 1 0 23 56 67 60 0 0 0 0 0 0 0 0 2 0 0 0 0 0 0 0 0 0 0 0 0 0 0
109 93 45 26 5 9 4 7 4 0 0 1 6 1 13 0 0 0 0 0 38 12 0 0 0 0 0 0 0 0 0 0 0 0 0 0 0 0 0 0 0 0 0 0 0
117 103 90 43 21 12 7 8 3 2 0 2 17 23 1 0 0 0 0 0 0 4 7 8 0 0 0 0 0 0 0 0 0 0 0 0 0 0 0 0 0 0 0 0 0
91 128 123 101 45 21 14 10 2 1 0 0 5 22 1 0 0 0 0 0 0 15 12 6 9 0 1 0 0 0 0 0 0 0 0 0 0 0 0 0 0 0 0 0 0
109 119 130 116 72 27 31 20 19 4 0 0 6 0 0 0 0 0 0 0 0 0 10 1 0 13 19 3 0 0 0 0 0 0 0 0 0 0 0 0 0 0 0 0 0
22 116 128 121 101 55 44 31 42 22 0 2 13 0 0 0 0 0 0 0 0 0 0 0 14 8 0 0 0 8 0 0 0 0 0 0 0 0 0 0 0 0 0 0 0
24 36 114 135 121 81 96 71 61 39 26 24 0 0 0 0 0 0 0 0 0 0 0 0 0 0 0 13 6 10 4 0 0 0 0 0 0 0 0 0 0 0 0 0 0
18 37 53 107 137 102 143 74 49 5 16 42 1 0 0 0 0 0 0 0 0 0 0 0 0 1 6 8 0 0 0 0 0 0 0 0 0 0 0 0 0 0 0 0 0
53 55 15 99 118 124 53 0 0 0 5 0 3 0 0 0 0 0 0 0 0 0 0 0 0 0 0 0 0 0 0 2 0 0 0 0 0 0 0 0 0 0 0 0 0
61 69 23 63 131 142 0 0 0 0 0 0 0 0 0 0 0 0 0 0 0 0 0 0 2 0 0 0 0 0 3 1 0 0 0 0 0 0 0 0 0 0 0 0 0
67 38 37 23 117 22 0 0 0 0 0 0 0 1 0 3 1 0 0 0 0 0 0 0 0 0 0 0 0 0 0 0 0 0 0 0 0 0 0 0 0 0 0 0 0
62 12 22 12 154 2 13 0 0 0 0 0 2 0 0 11 1 0 0 0 0 0 0 0 0 0 0 0 0 2 0 0 0 1 1 0 0 0 0 0 0 0 0 0 0
65 30 16 23 2 2 0 0 0 0 0 0 11 4 26 0 0 0 0 8 9 0 0 0 0 0 1 0 0 1 0 0 0 3 1 0 9 0 0 0 0 0 0 0 0
132 44 38 20 13 0 0 0 0 0 0 4 4 15 21 16 14 4 13 25 3 18 3 0 0 0 0 0 0 5 4 6 14 2 6 0 0 0 0 0 0 0 0 0 0
149 74 87 56 3 0 0 0 0 0 0 2 5 6 4 8 5 13 13 22 17 14 5 3 8 0 0 0 0 5 23 2 8 11 0 0 0 0 0 0 0 0 0 0 0
107 122 89 73 1 0 0 0 0 0 0 2 0 1 0 0 1 0 15 13 20 10 14 5 0 4 0 0 0 0 4 0 0 0 0 0 0 0 0 0 0 0 0 0 0
103 66 83 51 7 0 5 0 0 0 0 0 3 0 0 0 1 13 16 0 1 3 8 3 0 0 0 0 0 22 11 0 4 3 4 0 0 0 0 0 0 0 0 0 0
34 71 34 69 32 12 2 0 0 0 0 0 0 0 0 0 0 10 2 0 3 1 3 0 1 0 0 0 0 7 1 6 1 0 0 0 0 0 0 0 0 0 0 0 0
48 51 53 65 41 20 0 0 0 0 0 0 0 0 0 0 0 2 0 0 0 0 0 6 7 0 3 3 1 13 20 24 0 0 0 0 0 0 0 0 0 0 0 0 0
21 33 71 69 11 7 11 0 0 0 0 0 0 0 0 0 5 1 0 0 0 0 0 0 18 1 0 0 0 0 0 1 0 0 0 0 0 0 0 0 0 0 0 0 0
46 49 61 0 0 2 1 0 0 0 0 0 0 0 2 8 23 1 0 0 0 0 0 0 13 1 0 0 1 4 2 9 1 2 0 0 0 0 0 0 0 0 0 0 0
0 6 17 18 14 0 0 8 0 0 0 0 5 6 11 27 15 5 1 0 0 0 0 0 13 0 0 0 3 18 4 8 6 4 0 0 0 0 0 0 0 0 0 0 0
5 3 1 2 6 2 1 0 5 5 2 15 8 6 13 8 9 32 0 0 0 0 0 0 17 9 4 1 2 7 17 5 3 0 3 0 0 0 0 0 0 0 0 1 0
6 20 12 0 7 0 1 9 6 5 3 3 19 9 11 24 0 0 0 0 0 0 2 13 3 0 0 2 8 3 9 21 4 5 7 6 1 0 0 0 0 0 0 2 0
21 17 27 11 24 10 6 4 1 2 1 0 0 7 13 4 2 1 0 0 0 5 14 7 8 10 0 1 8 4 4 7 9 5 3 3 0 0 1 0 0 0 0 0 0

GFSSW_con_sbcape_033.txt.gz
CAPE
101 97 29 2 0 0 6 14 12 13 13 2 2 1 19 78 85 3 0 0 0 3 0 0 0 0 0 0 0 0 0 0 0 0 0 0 0 0 0 0 0 0 0 0 0
101 107 84 19 2 0 3 9 6 13 12 2 3 0 1 50 55 32 2 9 17 32 0 0 0 0 0 0 0 0 0 0 0 0 0 0 0 0 0 0 0 0 0 0 0
118 114 137 66 20 0 1 3 4 3 10 5 5 0 4 0 1 0 33 76 91 87 0 0 0 0 0 0 0 0 0 0 0 0 0 0 0 0 0 0 0 0 0 0 0
94 117 123 118 63 11 0 0 4 0 1 12 15 0 11 2 1 0 0 0 0 6 0 0 0 0 0 0 0 0 0 0 0 0 0 0 0 0 0 0 0 0 0 0 0
30 88 104 121 99 25 6 0 1 1 0 0 19 9 0 1 1 0 0 0 0 1 12 0 0 0 0 0 0 0 0 0 0 0 0 0 0 0 0 0 0 0 0 0 0
15 38 42 112 146 89 20 0 1 1 0 0 3 8 0 0 0 0 0 0 0 14 18 4 0 0 0 0 0 0 0 0 0 0 0 0 0 0 0 0 0 0 0 0 0
23 22 42 76 132 105 48 12 0 0 0 0 11 0 0 0 0 0 0 0 0 4 8 14 0 0 0 0 0 0 0 0 0 0 0 0 0 0 0 0 0 0 0 0 0
35 25 22 21 76 139 90 43 18 33 22 11 22 0 0 0 0 0 0 0 0 0 0 0 6 20 4 0 0 4 3 0 0 0 0 0 0 0 0 0 0 0 0 0 0
56 42 17 34 45 123 133 130 80 64 52 37 0 0 0 0 0 0 0 0 0 0 0 3 0 0 3 0 0 5 0 0 0 0 0 0 0 0 0 0 0 0 0 0 0
60 63 37 33 6 96 123 96 63 16 39 41 4 0 0 0 0 0 0 0 0 0 0 0 0 3 10 0 0 0 0 0 0 0 0 0 0 0 0 0 0 0 0 0 0
80 65 58 42 23 67 45 6 0 0 2 0 1 0 0 0 0 0 0 0 0 0 0 0 1 3 0 0 0 0 0 0 0 0 0 0 0 0 0 0 0 0 0 0 0
116 83 63 39 78 27 1 0 0 0 0 0 0 0 0 0 0 0 0 0 0 0 0 0 2 0 0 0 0 2 5 1 0 0 0 0 0 0 0 0 0 0 0 0 0
102 83 79 32 58 34 2 0 0 0 0 0 0 1 0 0 0 0 0 0 0 0 0 0 0 0 0 0 0 0 0 0 0 0 0 0 0 0 0 0 0 0 0 0 0
114 60 27 41 36 80 6 0 0 0 0 0 0 0 4 18 2 0 0 0 0 0 0 0 0 0 0 0 0 1 0 0 0 1 3 0 0 0 0 0 0 0 0 0 0
74 55 34 60 35 29 1 0 0 0 0 0 5 10 12 0 0 0 0 4 0 0 0 0 0 0 1 0 0 0 0 0 0 1 4 2 5 0 0 0 0 0 0 0 0
227 186 119 40 47 0 0 0 0 0 0 6 6 27 33 20 20 1 7 21 5 9 1 0 0 0 0 0 0 0 0 9 10 9 18 0 2 0 0 0 0 0 0 0 0
144 165 85 29 5 42 1 4 0 0 0 10 9 24 16 8 15 17 17 15 11 9 2 12 6 1 0 0 0 0 46 5 14 25 1 0 0 0 0 0 0 0 0 0 0
107 123 99 72 33 45 3 3 0 0 0 0 2 5 3 2 1 8 13 21 18 8 8 0 0 0 1 3 0 3 1 0 0 0 0 0 0 0 0 0 0 0 0 0 0
20 2 38 76 58 13 2 0 0 0 0 1 4 5 1 0 0 8 8 3 2 12 11 5 0 0 0 0 1 25 25 0 4 1 34 0 0 0 0 0 0 0 0 0 0
30 42 64 84 59 26 0 0 0 0 0 0 0 0 1 1 0 6 3 0 0 0 0 0 0 0 0 1 3 8 0 15 13 8 10 0 0 0 0 0 0 0 0 0 0
8 46 34 59 59 18 0 0 0 0 0 0 0 0 0 0 0 0 0 0 0 0 1 1 1 0 8 4 0 6 14 35 11 15 10 2 0 0 0 0 0 0 0 0 0
26 3 10 67 0 1 3 0 0 0 0 0 0 0 0 0 2 0 0 0 0 0 0 0 8 2 0 0 0 0 0 3 12 0 1 0 0 0 0 0 0 0 0 0 0
43 29 48 0 1 4 3 0 0 0 0 0 0 0 0 0 0 0 0 0 0 0 0 0 5 1 0 0 0 2 0 4 7 2 1 0 0 0 0 0 0 0 0 0 0
1 7 1 12 6 3 0 0 1 0 0 0 0 0 1 9 0 1 3 0 0 0 0 0 2 0 0 0 0 3 2 5 3 1 0 0 0 0 0 0 0 0 0 0 0
0 4 1 2 9 0 0 0 0 1 0 0 2 1 0 6 8 5 1 0 0 0 0 1 23 2 1 0 0 2 2 0 3 0 0 0 1 0 0 0 0 0 0 0 0
20 17 0 0 1 2 3 0 0 0 0 0 0 0 1 10 2 0 0 0 0 0 0 2 13 3 4 3 1 1 2 4 1 4 4 7 1 0 0 0 0 0 0 1 0
5 9 27 2 3 9 2 1 0 0 0 0 0 2 7 6 0 0 0 0 2 2 1 15 7 9 0 0 0 3 6 11 8 9 0 7 0 0 0 0 0 0 0 0 3

GFSSW_con_sbcape_036.txt.gz
CAPE
82 98 102 86 15 0 0 1 11 6 3 13 7 5 17 48 72 21 22 6 1 15 0 0 0 0 0 0 0 0 0 0 0 0 0 0 0 0 0 0 0 0 0 0 0
16 92 113 95 66 9 0 0 0 4 0 3 7 5 18 39 71 38 14 43 53 44 0 0 0 0 0 0 0 0 0 0 0 0 0 0 0 0 0 0 0 0 0 0 0
13 42 110 104 110 37 0 0 0 0 0 0 7 0 10 10 51 18 25 98 104 83 11 0 0 0 0 0 1 4 0 0 0 0 0 0 0 0 0 0 0 0 0 0 0
13 13 40 110 103 113 14 2 0 0 0 0 10 0 4 15 19 2 0 0 73 73 24 0 0 0 0 0 0 0 0 0 0 0 0 0 0 0 0 0 0 0 0 0 0
20 9 16 59 91 117 54 20 1 0 0 0 3 2 3 5 3 0 0 0 0 59 40 3 0 0 2 0 0 0 0 0 0 0 0 0 0 0 0 0 0 0 0 0 0
32 12 18 6 49 98 100 39 4 0 0 0 0 2 0 0 0 0 0 0 4 31 50 25 5 0 1 1 0 1 0 0 0 0 0 0 0 0 0 0 0 0 0 0 0
56 51 27 10 25 60 120 64 12 0 0 0 0 0 0 0 0 0 0 0 0 34 59 16 0 0 7 11 7 2 0 0 0 0 0 0 0 0 0 0 0 0 0 0 0
59 52 39 27 16 17 79 116 71 40 0 0 0 0 0 0 0 0 0 0 0 6 44 26 21 10 11 1 2 0 0 0 0 0 0 0 0 0 0 0 0 0 0 0 0
73 63 63 48 46 20 56 150 98 62 28 20 0 0 0 0 0 0 0 0 0 0 0 41 25 13 10 11 7 3 0 0 0 0 0 0 0 0 0 0 0 0 0 0 0
95 110 77 72 38 51 22 116 74 59 56 51 5 1 0 0 0 0 0 0 0 0 0 4 2 8 0 3 0 0 0 0 0 0 0 0 0 0 0 0 0 0 0 0 0
128 126 111 72 51 44 22 1 0 1 11 0 1 0 0 0 0 0 0 0 0 10 14 8 13 1 0 0 0 0 0 1 1 0 0 0 0 0 0 0 0 0 0 0 0
169 124 153 83 75 32 63 10 0 0 1 0 0 0 0 0 0 0 0 0 0 7 12 8 5 0 0 0 4 6 6 3 0 0 0 0 0 0 0 0 0 0 0 0 0
144 120 114 84 61 43 50 53 0 0 0 0 0 0 0 0 0 0 0 0 0 3 1 1 0 0 0 3 10 9 7 2 0 0 0 0 0 0 0 0 0 0 0 0 0
120 137 139 97 57 25 36 47 0 0 7 0 5 0 1 4 0 0 0 0 0 0 5 7 1 0 0 2 1 1 0 0 0 2 1 1 0 0 0 0 0 0 0 0 0
174 240 166 125 45 35 48 2 0 0 13 0 16 10 12 0 0 5 0 2 6 0 0 0 0 4 6 0 1 1 1 1 5 9 3 0 10 0 0 0 0 0 0 0 0
150 74 144 116 89 4 44 0 9 14 1 19 21 41 29 11 11 13 11 18 9 7 5 3 0 0 3 0 1 1 8 9 11 21 17 0 5 0 0 0 0 0 0 0 0
65 60 111 73 8 45 39 11 3 19 0 18 13 38 17 16 36 19 27 20 13 21 21 8 8 4 1 8 7 15 28 12 14 24 1 0 0 0 0 0 0 0 0 0 0
58 74 100 40 98 79 47 0 12 1 4 7 18 27 17 10 13 12 23 19 21 9 13 9 2 5 6 8 5 15 17 10 1 0 0 0 0 0 0 0 0 0 0 0 0
88 95 139 151 143 80 5 17 4 0 1 4 10 9 3 4 1 7 10 7 3 8 5 10 0 0 3 1 7 21 18 1 22 23 30 0 0 0 0 0 0 0 0 0 0
25 126 92 126 87 27 3 15 0 0 0 2 2 1 3 3 3 2 1 0 3 7 6 6 8 0 1 1 6 16 7 12 38 8 1 0 0 0 0 0 0 0 0 0 0
12 73 77 132 8 0 5 5 8 0 0 0 0 3 2 4 4 2 2 0 0 0 18 7 1 2 5 9 3 7 20 34 6 16 12 0 0 0 0 0 0 0 0 0 0
14 32 41 68 1 6 4 16 7 0 0 0 0 0 0 1 2 5 0 0 0 0 5 2 11 15 1 0 0 0 1 9 30 0 9 17 2 0 0 0 0 0 0 0 0
30 24 20 65 11 19 6 15 0 0 0 0 0 0 0 0 0 3 2 0 0 0 0 8 24 5 0 0 0 7 0 0 19 13 20 20 0 0 0 0 0 0 0 0 0
17 11 1 1 10 5 29 16 3 0 0 0 0 0 0 2 0 9 2 0 0 0 0 8 12 0 0 0 3 20 2 2 6 17 3 14 4 0 0 0 5 0 0 1 0
16 18 8 25 25 19 20 11 4 1 0 0 0 0 0 1 2 11 0 0 0 0 2 3 22 5 0 0 0 5 10 9 2 4 9 0 7 1 1 8 10 0 0 1 0
9 36 10 1 0 18 5 3 0 0 0 0 0 0 1 0 0 5 2 2 7 1 3 8 16 24 8 0 3 4 6 5 2 3 2 7 8 0 1 5 0 0 1 11 2
13 10 34 10 8 19 9 1 0 0 0 0 0 1 5 0 0 1 7 4 10 14 19 9 11 8 16 0 2 8 8 6 6 2 5 11 0 1 1 0 0 1 0 3 2

GFSSW_con_sbcape_039.txt.gz
CAPE
10 23 63 122 101 72 9 1 0 5 1 2 5 2 2 20 51 46 31 26 16 7 0 1 0 0 0 0 0 0 11 0 0 0 0 0 0 0 0 0 0 0 0 0 0
8 13 20 57 120 107 54 1 2 6 2 1 1 2 0 6 49 21 2 31 17 13 0 2 0 0 0 0 0 2 2 0 0 0 0 0 0 0 0 0 0 0 0 0 0
17 10 12 26 50 101 96 19 3 9 3 0 0 0 0 2 62 12 38 50 67 49 20 13 8 0 0 0 0 0 6 0 0 0 0 0 0 0 0 0 0 0 0 0 0
22 26 12 11 28 61 124 77 11 8 2 0 0 0 0 22 36 18 0 29 113 66 39 12 14 4 2 1 0 0 0 0 0 0 0 0 0 0 0 0 0 0 0 0 0
25 36 32 14 11 17 98 126 28 6 4 0 0 0 2 1 19 1 0 0 7 94 63 23 14 21 16 2 0 0 0 0 0 0 0 0 0 0 0 0 0 0 0 0 0
37 45 53 46 15 11 30 125 70 15 4 0 0 0 1 0 0 0 0 0 6 52 76 31 23 13 19 15 0 2 0 0 0 0 0 0 0 0 0 0 0 0 0 0 0
46 38 44 53 33 11 12 114 109 46 8 0 0 1 4 0 0 0 0 0 29 16 52 40 20 0 13 8 11 1 0 0 0 0 0 0 0 0 0 0 0 0 0 0 0
41 60 57 57 56 40 53 80 149 87 6 3 0 0 2 0 0 0 0 0 18 74 64 6 1 12 4 0 0 0 0 0 0 0 0 0 0 0 0 0 0 0 0 0 0
55 60 91 99 85 65 38 50 55 54 19 24 1 0 2 0 0 0 0 8 25 36 49 50 17 15 7 9 12 6 0 0 0 0 0 0 0 0 0 0 0 0 0 0 0
91 104 125 105 81 76 45 53 78 76 67 41 8 0 0 0 0 0 0 15 17 13 28 22 14 6 11 25 5 2 1 0 0 0 0 0 0 0 0 0 0 0 0 0 0
131 126 129 121 140 81 63 44 77 77 58 4 0 0 0 0 0 0 0 11 13 18 7 8 8 0 0 0 0 0 0 0 0 0 0 0 0 0 0 0 0 0 0 0 0
72 162 152 136 139 86 53 42 38 10 10 4 0 0 0 0 0 0 0 5 18 20 4 7 7 0 0 0 0 0 1 0 0 0 0 0 0 0 0 0 0 0 0 0 0
46 121 141 101 123 84 50 5 15 6 19 15 4 3 0 0 4 0 0 3 7 17 6 15 0 0 0 0 0 0 0 0 0 0 0 0 0 0 0 0 0 0 0 0 0
54 134 141 106 49 59 57 2 41 13 16 1 11 3 7 3 5 4 0 0 7 11 15 18 3 0 0 0 0 1 0 0 0 0 0 0 0 0 0 0 0 0 0 0 0
49 86 90 96 54 68 55 46 13 49 37 6 8 13 15 0 2 13 6 10 10 1 0 1 0 2 1 0 0 0 1 0 0 3 1 0 1 0 0 0 0 0 0 0 0
48 61 108 123 211 103 83 122 39 8 16 15 15 9 9 12 15 16 19 15 9 2 7 6 1 2 2 0 1 1 2 2 1 2 8 0 0 0 0 0 0 0 0 0 0
58 93 73 131 128 165 103 47 21 17 1 20 17 23 9 6 17 27 26 22 10 12 10 8 4 3 0 2 4 4 12 7 9 15 0 0 0 0 0 0 0 0 0 0 0
67 80 145 143 126 88 13 13 61 7 5 4 24 36 20 10 15 20 28 14 6 3 0 2 5 3 2 3 4 5 9 1 0 0 0 0 0 0 0 0 0 0 0 0 0
55 36 179 142 145 4 11 20 76 4 5 6 29 34 27 14 10 27 25 12 6 2 3 3 0 0 2 6 2 8 9 1 12 6 3 0 0 0 0 0 0 0 0 0 0
40 43 124 146 112 44 13 17 3 2 1 10 6 2 10 19 15 13 11 3 0 5 8 3 3 0 8 4 7 4 4 6 26 6 0 0 0 0 0 0 0 0 0 0 0
25 27 148 191 157 18 30 24 8 3 0 7 5 2 1 8 0 2 1 0 4 3 1 7 2 1 3 5 2 4 11 10 8 11 6 1 0 0 0 0 0 0 0 0 0
17 20 77 18 23 7 17 21 11 6 2 6 7 2 3 6 0 4 5 1 0 0 2 2 13 5 0 0 0 3 4 5 14 0 0 12 2 0 0 0 0 0 6 0 0
6 22 33 58 32 10 4 24 15 2 6 7 2 1 0 4 0 3 2 0 0 0 5 2 10 3 0 0 2 5 0 0 7 11 20 25 1 0 0 0 0 0 0 2 1
6 19 31 40 33 18 22 13 5 7 9 1 0 0 1 4 1 1 3 0 0 0 1 7 11 1 0 18 2 13 0 3 4 15 2 10 5 1 1 3 0 0 0 1 9
51 34 10 9 34 45 37 1 4 6 4 2 0 1 0 2 5 3 2 4 1 0 0 8 11 7 6 1 0 2 3 3 2 2 2 1 4 1 5 10 4 7 14 8 22
8 25 23 11 7 20 3 9 5 0 1 8 11 0 0 0 3 4 6 2 0 2 3 4 24 45 4 0 0 9 3 4 4 3 3 5 4 0 0 1 0 9 13 22 62
11 9 27 5 13 7 8 21 13 6 0 1 3 3 1 1 0 3 0 5 10 10 11 30 20 9 3 0 0 2 5 9 10 5 15 5 2 1 0 3 6 0 2 16 8

GFSSW_con_sbcape_042.txt.gz
CAPE
9 10 12 8 29 71 104 83 17 2 10 11 9 7 1 2 16 33 13 1 28 18 0 0 0 0 0 0 0 0 0 0 0 0 0 0 0 0 0 0 0 0 0 0 81
12 13 12 7 10 42 61 99 76 4 10 8 7 3 0 3 26 6 0 30 54 50 0 0 0 0 0 0 0 0 0 0 0 0 0 0 0 0 0 0 0 0 0 0 0
15 14 16 19 7 8 22 78 131 33 10 4 2 0 0 0 29 1 1 25 74 49 8 0 1 0 0 0 0 0 0 0 0 0 0 0 0 0 0 0 0 0 0 0 0
37 17 15 17 25 21 13 8 112 80 21 2 0 0 0 1 9 3 98 60 118 89 27 27 3 3 0 0 0 0 0 0 0 0 0 0 0 0 0 0 0 0 0 0 0
38 33 36 32 51 43 13 11 43 160 34 4 0 0 0 20 6 8 7 6 58 90 50 18 1 0 0 0 0 0 0 0 0 0 0 0 0 0 0 0 0 0 0 0 0
42 48 26 43 46 49 30 9 10 161 55 14 0 0 0 0 1 0 0 0 0 75 68 61 13 7 11 4 1 1 0 0 0 0 0 0 0 0 0 0 0 0 0 0 0
59 61 45 38 40 59 52 16 18 118 77 40 0 0 0 0 0 0 0 0 6 34 81 68 14 0 8 15 2 8 0 0 0 0 0 0 0 0 0 0 0 0 0 0 0
88 88 55 45 77 84 63 42 13 62 87 49 0 3 2 0 0 0 0 0 4 32 54 14 0 5 4 0 0 0 0 0 0 0 0 0 0 0 0 0 0 0 0 0 0
86 100 109 87 94 81 82 63 17 26 124 68 17 12 0 0 0 0 0 0 7 5 63 24 14 1 0 0 5 1 0 0 0 0 0 0 0 0 0 0 0 0 0 0 0
137 153 138 98 148 127 84 48 28 50 94 78 49 10 0 0 0 0 0 7 14 28 60 48 20 4 16 7 1 0 0 0 0 0 0 0 0 0 0 0 0 0 0 0 0
158 96 96 159 189 144 118 55 73 53 65 25 0 0 0 0 0 0 0 8 7 31 4 8 5 0 1 5 0 0 0 0 0 0 0 0 0 0 0 0 0 0 0 0 0
116 67 91 94 167 165 96 25 10 20 52 15 6 11 0 0 0 0 0 8 7 4 1 1 0 0 0 0 0 0 0 0 0 0 0 0 0 0 0 0 0 0 0 0 0
76 44 74 182 71 45 38 18 80 45 15 12 22 17 0 0 0 0 0 5 4 8 7 3 0 0 0 0 0 0 0 0 0 0 0 0 0 0 0 0 0 0 0 0 0
65 51 69 87 43 14 7 39 70 73 7 23 17 24 1 3 1 0 0 0 6 5 10 3 0 0 0 0 0 0 0 0 0 0 0 0 0 0 0 0 0 0 0 0 0
47 35 47 77 62 5 61 93 57 23 2 12 7 26 3 0 0 0 0 5 6 1 1 0 0 0 0 0 0 0 0 0 0 0 0 0 0 0 0 0 0 0 0 0 0
44 28 63 30 152 26 98 68 17 4 2 21 2 14 33 29 8 0 8 0 1 1 0 1 0 0 0 0 0 0 0 0 0 0 0 0 0 0 0 0 0 0 0 0 0
36 30 42 58 40 151 70 38 10 14 4 31 12 10 12 22 19 13 8 1 0 0 1 0 0 0 0 1 0 0 1 0 1 1 0 0 0 0 0 0 0 0 0 0 0
60 76 31 118 153 5 29 31 2 18 10 1 22 13 19 17 18 22 18 7 2 0 2 0 2 2 0 0 0 0 3 0 0 0 0 0 0 0 0 0 0 0 0 0 0
43 26 137 194 93 0 0 8 4 3 0 16 30 26 13 11 6 18 12 9 3 4 2 0 0 0 0 1 0 2 0 0 1 0 0 0 0 0 0 0 0 0 0 0 0
24 29 149 125 33 19 6 35 3 2 3 20 10 9 9 3 14 22 21 2 0 1 0 2 2 0 3 0 1 0 0 0 3 0 0 0 0 0 0 0 0 0 0 0 0
18 2 126 103 41 25 14 1 3 6 6 9 0 0 2 11 4 3 0 0 1 0 0 0 1 0 0 0 0 1 0 1 1 0 0 0 0 0 0 0 0 0 0 0 0
28 11 73 58 10 6 3 9 8 10 11 4 3 0 1 5 5 1 0 0 1 1 0 0 6 1 0 0 0 1 0 0 1 0 0 0 0 0 0 0 0 0 0 0 0
9 21 62 25 8 6 1 9 2 8 9 9 5 2 1 0 0 0 1 0 0 0 4 0 6 0 0 0 0 0 0 0 0 0 0 0 0 0 0 0 0 0 0 0 0
6 24 8 27 40 7 24 21 14 21 16 1 0 0 1 1 0 1 0 0 0 0 0 1 3 0 0 0 0 0 0 0 1 0 0 0 0 0 0 0 0 0 0 0 0
33 17 5 22 27 6 10 14 0 4 6 8 8 12 4 0 1 0 1 0 0 0 0 0 1 1 0 0 0 0 0 0 0 0 1 0 2 0 0 0 0 0 0 0 0
3 11 17 1 0 19 0 4 16 13 16 1 12 0 0 2 2 0 1 0 0 0 4 3 2 0 0 0 0 0 0 0 0 0 1 7 2 0 0 0 0 0 0 4 20
5 5 4 7 2 4 13 14 11 9 2 0 0 0 1 0 0 0 0 0 0 0 2 7 3 0 1 0 0 0 0 0 0 0 6 4 1 2 0 0 0 3 5 0 7

GFSSW_con_sbcape_045.txt.gz
CAPE
18 19 18 20 12 10 19 30 61 106 19 3 8 9 10 7 12 23 10 0 0 38 0 0 0 0 0 0 0 0 0 0 0 0 0 0 0 0 0 0 0 0 0 6 147
30 25 22 19 16 17 9 23 17 61 74 9 8 5 6 27 14 13 0 0 24 66 3 0 0 0 0 0 0 0 0 0 0 0 0 0 0 0 0 0 0 0 0 0 171
31 31 30 20 31 23 29 18 19 15 126 39 6 4 7 21 33 0 0 0 101 63 0 0 0 0 0 0 0 0 0 0 0 0 0 0 0 0 0 0 0 0 0 0 11
56 60 38 29 31 29 59 45 25 27 99 85 9 6 22 14 1 5 20 12 76 54 17 16 7 6 0 0 0 0 0 0 0 0 0 0 0 0 0 0 0 0 0 0 0
57 58 65 74 47 38 54 63 40 26 37 110 23 10 22 19 2 6 368 75 98 72 47 11 11 0 0 0 0 0 0 0 0 0 0 0 0 0 0 0 0 0 0 0 0
96 110 76 53 51 31 49 59 53 37 43 131 34 59 11 8 0 0 0 15 57 65 48 59 3 0 0 0 0 0 0 0 0 0 0 0 0 0 0 0 0 0 0 0 0
94 92 100 84 62 64 72 78 63 27 6 145 55 31 12 0 0 0 0 0 0 25 51 57 46 7 3 0 0 0 0 0 0 0 0 0 0 0 0 0 0 0 0 0 0
123 150 160 145 120 96 85 66 65 19 11 42 60 25 10 0 0 0 0 0 0 14 64 44 6 2 1 0 0 0 0 0 0 0 0 0 0 0 0 0 0 0 0 0 0
172 177 181 165 133 130 139 87 60 10 15 117 57 18 4 0 0 0 0 0 5 40 14 9 0 0 0 0 0 0 0 0 0 0 0 0 0 0 0 0 0 0 0 0 0
164 172 159 126 130 137 165 132 64 19 76 72 41 26 3 0 0 0 0 0 5 66 35 18 1 0 0 0 0 0 0 0 0 0 0 0 0 0 0 0 0 0 0 0 0
139 107 122 92 104 92 48 5 14 61 110 11 6 0 0 0 0 0 0 0 30 45 0 15 0 0 0 0 0 0 0 0 0 0 0 0 0 0 0 0 0 0 0 0 0
102 75 69 76 156 107 41 6 15 23 2 0 4 4 0 0 0 0 0 2 21 9 0 0 0 0 0 2 0 0 0 0 0 0 0 0 0 0 0 0 0 0 0 0 0
65 62 45 69 91 36 14 8 69 36 2 22 15 7 0 0 0 0 0 2 4 9 0 0 0 0 0 0 0 0 0 0 0 0 0 0 0 0 0 0 0 0 0 0 0
57 52 47 64 75 9 9 0 22 9 4 9 23 7 6 9 0 0 0 0 7 1 4 2 0 0 0 0 0 0 0 0 0 0 0 0 0 0 0 0 0 0 0 0 0
34 47 53 65 19 42 29 0 2 0 0 9 26 22 21 1 0 0 0 1 0 2 0 0 0 0 0 0 0 0 0 0 0 0 0 0 0 0 0 0 0 0 0 0 0
15 30 74 8 26 5 38 1 11 11 0 17 4 38 24 13 1 0 0 0 0 8 3 0 0 0 0 0 0 0 0 0 0 0 0 0 0 0 0 0 0 0 0 0 0
35 86 77 52 31 0 2 8 0 0 3 16 11 13 26 26 0 2 4 0 0 0 0 0 0 0 0 0 0 0 0 0 0 0 0 0 0 0 0 0 0 0 0 0 0
51 155 8 87 103 1 12 5 0 0 16 8 23 14 30 15 16 13 1 0 0 0 0 0 0 0 0 0 0 0 0 0 0 0 0 0 0 0 0 0 0 0 0 0 0
98 0 45 21 11 0 1 0 2 25 3 16 9 5 5 9 8 10 1 0 0 0 0 0 0 0 0 0 0 0 1 0 0 0 0 0 0 0 0 0 0 0 0 0 0
4 2 5 16 0 0 7 39 2 14 14 3 3 3 15 20 5 12 7 0 0 0 0 0 0 0 3 1 0 0 0 0 0 0 0 0 0 0 0 0 0 0 0 0 0
0 8 44 33 0 16 7 3 6 8 5 8 0 3 0 4 3 10 0 0 0 0 0 0 0 0 0 0 0 0 5 1 0 0 0 0 0 0 0 0 0 0 0 0 0
0 11 12 11 0 1 3 3 22 2 0 7 0 0 0 1 4 4 0 0 0 0 0 0 0 0 0 0 0 0 0 0 0 0 0 0 0 0 0 0 0 0 0 0 0
7 7 1 4 4 1 1 3 1 24 32 24 6 0 1 4 0 6 0 0 0 0 0 0 0 0 0 0 0 0 0 0 0 0 0 0 0 0 0 0 0 0 0 0 0
0 0 0 3 2 2 12 5 8 12 8 0 0 0 1 5 0 0 0 0 0 0 15 1 0 0 0 0 0 0 0 0 0 0 0 0 0 0 0 0 0 0 0 0 0
0 0 0 1 4 4 11 0 4 2 0 3 3 0 3 2 0 0 0 0 0 0 0 0 0 0 0 0 0 0 0 0 0 0 0 0 0 0 0 4 2 0 0 0 0
0 1 0 0 0 3 0 0 11 0 0 2 0 0 0 0 0 0 0 0 0 0 0 0 0 0 0 0 0 0 0 0 0 0 1 1 1 0 0 0 0 0 0 0 0
1 0 3 0 0 0 0 0 4 1 0 0 0 0 0 0 0 0 0 0 0 0 0 4 1 0 0 0 0 0 0 0 0 0 0 3 0 0 0 1 5 4 1 2 1

GFSSW_con_sbcape_048.txt.gz
CAPE
43 25 28 27 24 22 25 25 21 44 54 135 28 9 16 17 19 18 7 0 0 22 0 0 0 0 0 0 0 0 0 0 0 0 0 0 0 0 0 0 0 0 0 0 0
33 47 38 31 45 35 30 33 29 30 24 41 80 34 16 26 20 7 0 0 0 32 49 0 0 0 0 0 0 0 0 0 0 0 0 0 0 0 0 0 0 0 0 0 1
72 60 53 36 35 38 49 18 46 30 25 41 134 68 17 32 9 0 0 0 0 15 21 0 0 0 0 0 0 0 0 0 0 0 0 0 0 0 0 0 0 0 0 0 0
67 72 60 64 61 48 39 39 34 38 25 18 111 78 39 38 1 0 160 0 2 54 10 7 4 0 0 0 0 0 0 0 0 0 0 0 0 0 0 0 0 0 0 0 0
97 97 95 112 63 59 38 37 44 52 37 7 41 70 52 13 0 0 250 82 47 51 13 0 8 0 0 0 0 0 0 0 0 0 0 0 0 0 0 0 0 0 0 0 0
94 112 131 162 133 87 75 51 61 52 41 24 9 86 0 4 0 0 70 51 112 75 45 38 24 0 0 0 0 0 0 0 0 0 0 0 0 0 0 0 0 0 0 0 0
124 138 165 160 181 157 111 86 72 68 30 4 1 44 3 0 0 0 22 97 124 74 23 36 44 2 0 0 0 0 0 0 0 0 0 0 0 0 0 0 0 0 0 0 0
127 154 177 166 187 173 136 165 100 74 34 3 12 72 0 0 0 0 0 0 0 4 83 84 46 3 0 0 0 0 0 0 0 0 0 0 0 0 0 0 0 0 0 0 0
109 150 147 156 158 143 148 134 134 101 48 6 13 28 0 0 0 0 0 0 33 19 59 102 25 10 0 0 0 0 0 0 0 0 0 0 0 0 0 0 0 0 0 0 0
94 100 100 115 80 118 116 64 84 69 24 21 38 8 0 0 0 0 0 0 22 95 71 36 5 4 0 0 1 0 0 0 0 0 0 0 0 0 0 0 0 0 0 0 0
83 65 58 79 103 153 25 0 0 20 83 0 4 1 0 0 0 0 0 0 46 5 11 18 1 2 0 0 0 0 0 0 0 0 0 0 0 0 0 0 0 0 0 0 0
60 52 61 50 58 105 0 7 0 11 4 6 12 2 0 0 0 0 0 3 36 1 0 2 0 0 0 0 0 0 0 0 0 0 0 0 0 0 0 0 0 0 0 0 0
30 29 42 42 33 12 0 4 8 8 8 13 18 8 4 0 0 0 0 1 2 0 0 0 0 0 0 0 1 0 0 0 0 0 0 0 0 0 0 0 0 0 0 0 0
36 29 25 49 3 0 6 3 2 10 1 40 35 31 18 3 0 0 1 0 1 1 0 0 0 0 0 0 0 0 0 0 0 0 0 0 0 0 0 0 0 0 0 0 0
43 44 52 70 7 4 57 0 4 9 0 3 28 7 22 1 0 0 0 0 0 0 0 0 0 0 0 0 0 0 0 0 0 0 0 0 0 0 0 0 0 0 0 0 0
55 87 162 60 33 1 47 19 4 0 0 6 19 8 17 0 0 1 4 0 0 0 0 0 0 0 0 0 0 0 0 0 0 0 0 0 0 0 0 0 0 0 0 0 0
65 144 140 77 28 0 9 10 0 0 1 5 18 20 4 6 0 8 1 0 0 0 0 0 0 0 0 0 0 0 0 0 0 0 0 0 0 0 0 0 0 0 0 0 0
122 32 6 73 52 0 4 0 0 1 0 6 2 17 34 0 8 8 0 0 0 0 0 0 0 0 0 0 0 0 0 0 0 0 0 0 0 0 0 0 0 0 0 0 0
19 0 1 13 0 0 1 0 2 7 5 21 15 5 28 6 13 1 0 0 0 0 0 0 0 0 0 0 0 0 0 0 0 0 0 0 0 0 0 0 0 0 0 0 0
0 0 30 31 0 0 5 15 7 1 7 0 1 0 9 5 10 3 0 0 0 0 0 0 0 0 0 1 0 0 0 0 0 0 0 0 0 0 0 0 0 0 0 0 0
0 0 17 7 1 1 1 8 4 8 5 1 0 0 0 0 0 0 0 0 0 0 0 0 0 0 0 0 0 0 0 0 0 0 0 0 0 0 0 0 0 0 0 0 0
0 3 0 2 0 3 5 8 5 6 0 0 0 0 0 0 0 0 0 0 0 0 0 0 0 0 0 0 0 0 0 0 0 0 0 0 0 0 0 0 0 0 0 0 0
0 0 0 0 2 2 3 2 7 5 3 11 0 0 0 0 0 0 0 0 0 0 0 0 0 0 0 0 0 0 0 0 0 0 0 0 0 0 0 0 0 0 0 0 0
0 0 0 0 0 2 6 1 3 8 0 0 0 0 0 1 0 0 0 0 0 1 21 0 0 0 0 0 0 0 0 0 0 0 0 0 0 0 0 0 0 0 0 0 0
0 0 0 0 8 0 0 0 2 1 0 0 0 0 5 1 0 0 0 0 0 0 0 0 0 0 0 0 0 0 0 0 0 0 0 0 0 0 0 0 0 0 0 0 0
0 1 1 0 0 0 0 0 0 0 0 0 0 0 0 0 0 0 0 0 0 0 0 0 0 0 0 0 0 0 0 0 0 0 0 0 0 0 0 0 0 0 0 0 0
1 0 5 0 0 0 0 0 0 0 0 0 0 0 0 0 0 0 0 0 0 0 0 0 0 0 0 0 0 0 0 0 0 0 0 0 0 0 0 0 1 0 0 0 0

GFSSW_con_sbcape_051.txt.gz
CAPE
30 40 36 31 35 47 47 43 47 31 31 14 18 123 23 32 37 21 2 0 0 0 16 0 0 0 0 0 0 0 0 0 0 0 0 0 0 0 0 0 0 0 0 0 0
64 53 62 52 56 45 44 36 46 32 23 18 8 55 78 61 21 15 0 0 0 0 42 0 0 0 0 0 0 0 0 0 0 0 0 0 0 0 0 0 0 0 0 0 0
81 88 97 100 81 73 57 41 49 21 24 21 2 17 117 8 3 0 0 0 0 2 44 0 0 0 0 0 0 0 0 0 0 0 0 0 0 0 0 0 0 0 0 0 0
97 107 111 109 73 89 68 60 48 45 30 22 7 20 54 6 0 0 49 3 0 0 15 33 0 0 0 0 0 0 0 0 0 0 0 0 0 0 0 0 0 0 0 0 0
94 97 106 148 167 180 124 111 76 65 41 45 23 28 40 17 0 0 25 401 0 13 16 23 0 0 0 0 0 0 0 0 0 0 0 0 0 0 0 0 0 0 0 0 0
91 77 108 120 153 171 151 148 143 79 71 63 30 13 26 0 0 0 0 165 1 115 28 11 3 0 0 0 0 0 0 0 0 0 0 0 0 0 0 0 0 0 0 0 0
83 79 106 142 164 185 184 183 178 133 111 72 42 6 13 0 0 0 192 145 185 136 58 1 1 16 0 0 0 0 0 0 0 0 0 0 0 0 0 0 0 0 0 0 0
79 80 96 134 128 187 200 190 209 175 106 67 52 14 20 0 0 0 0 105 90 72 59 57 61 6 0 0 0 0 0 0 0 0 0 0 0 0 0 0 0 0 0 0 0
71 74 83 81 120 157 163 202 200 144 126 79 44 13 0 1 0 0 0 0 5 25 60 99 70 14 0 1 0 0 0 0 0 0 0 0 0 0 0 0 0 0 0 0 0
61 63 62 51 88 113 181 146 32 77 61 69 75 4 0 0 0 0 0 24 124 127 114 132 93 2 0 0 0 0 0 0 0 0 0 0 0 0 0 0 0 0 0 0 0
72 66 61 65 63 94 9 0 0 8 62 26 35 0 0 0 0 0 0 11 122 48 100 14 23 10 2 0 0 0 0 0 0 0 0 0 0 0 0 0 0 0 0 0 0
45 12 33 29 77 99 0 2 1 6 0 25 3 0 0 0 0 0 0 18 87 16 8 9 1 0 8 1 1 0 0 0 0 0 0 0 0 0 0 0 0 0 0 0 0
28 45 28 29 71 1 0 0 2 5 7 4 1 1 0 4 0 0 0 9 15 0 0 3 0 0 0 8 8 0 0 0 0 0 0 0 0 0 0 0 0 0 0 0 0
58 67 89 139 7 0 0 21 0 1 0 6 6 1 14 8 0 0 0 2 5 0 0 0 0 0 0 0 0 0 0 0 0 0 0 0 0 0 0 0 0 0 0 0 0
69 123 201 142 5 3 17 0 0 1 0 3 11 41 25 8 0 0 0 0 0 0 0 0 0 0 0 0 0 0 0 0 0 0 0 0 0 0 0 0 0 0 0 0 0
129 150 62 97 65 15 18 7 3 0 0 7 25 7 10 1 6 1 6 0 0 0 0 0 0 0 0 0 0 0 0 0 0 0 0 0 0 0 0 0 0 0 0 0 0
209 98 46 108 39 6 1 6 0 0 4 4 16 19 6 25 23 13 0 0 0 2 0 0 0 0 0 0 0 0 0 0 0 0 0 0 0 0 0 0 0 0 0 0 0
80 1 16 2 0 0 0 0 0 0 1 3 11 14 21 27 7 8 0 0 0 0 0 0 0 0 0 0 0 0 0 0 0 0 0 0 0 0 0 0 0 0 0 0 0
0 0 0 18 0 0 1 0 1 2 4 21 5 2 33 9 7 4 0 0 0 0 0 0 0 0 0 0 0 0 0 0 0 0 0 0 0 0 0 0 0 0 0 0 0
0 0 0 6 0 0 1 3 5 7 3 0 0 6 2 4 2 1 0 0 0 0 0 0 0 0 0 0 0 0 0 0 0 0 0 0 0 0 0 0 0 0 0 0 0
0 0 0 0 0 0 0 9 5 9 2 0 0 0 0 0 0 0 0 0 0 0 0 0 0 0 0 0 0 0 0 0 0 0 0 0 0 0 0 0 0 0 0 0 0
0 0 1 0 0 1 5 6 0 1 0 0 0 0 0 0 0 0 0 0 0 0 0 0 0 1 0 0 0 0 0 0 0 0 0 0 0 0 0 0 0 0 0 0 0
0 0 0 0 0 0 2 1 0 1 0 0 0 0 0 0 0 0 0 0 0 0 0 0 0 0 0 0 0 0 0 0 0 0 0 0 0 0 0 0 0 0 0 0 0
0 0 0 0 0 2 2 0 2 0 0 0 0 0 0 0 0 0 0 0 0 0 0 0 0 0 0 0 0 0 0 0 0 0 0 0 0 0 0 0 0 0 0 0 0
0 0 1 0 0 0 0 0 0 0 0 0 0 0 0 0 0 0 0 0 0 7 0 0 0 0 0 0 0 0 0 0 0 0 0 0 0 0 0 0 0 0 0 0 0
0 0 0 0 0 0 0 0 0 0 0 0 0 0 0 0 0 0 0 0 0 0 0 0 0 1 0 0 0 0 0 0 0 0 0 0 0 0 0 0 0 0 0 0 0
1 0 3 0 0 0 0 0 0 0 0 0 0 0 0 0 0 0 0 0 0 0 0 0 0 0 0 0 0 0 0 0 0 0 0 0 0 0 0 0 0 0 0 0 0

GFSSW_con_sbcape_054.txt.gz
CAPE
68 69 80 75 72 65 60 42 41 20 15 13 18 24 25 151 98 25 8 0 0 0 19 8 13 0 0 0 0 0 0 0 0 0 0 0 0 0 0 0 0 0 0 0 5
58 63 69 101 99 101 74 85 61 53 39 15 2 12 12 61 34 7 0 0 0 0 1 28 30 0 0 0 0 0 0 0 0 0 0 0 0 0 0 0 0 0 0 0 360
66 73 87 101 89 115 90 110 101 80 59 20 5 5 11 55 2 0 0 1 0 4 0 0 3 0 0 0 0 0 0 0 0 0 0 0 0 0 0 0 0 0 0 0 11
86 83 77 83 85 103 117 113 136 131 77 41 23 28 29 31 0 0 13 5 12 0 0 29 0 8 0 0 0 0 0 0 0 0 0 0 0 0 0 0 0 0 0 0 0
92 83 71 72 71 89 110 141 174 183 137 67 54 51 44 20 0 0 5 3 17 3 4 34 2 1 5 0 0 0 0 0 0 0 0 0 0 0 0 0 0 0 0 0 0
94 65 62 74 70 100 145 182 219 197 164 128 75 59 55 5 0 0 0 120 7 41 34 36 9 0 0 0 0 0 0 0 0 0 0 0 0 0 0 0 0 0 0 0 0
90 78 73 66 72 106 153 235 229 221 209 174 93 55 53 2 0 0 0 181 12 107 51 68 0 0 0 0 0 0 0 0 0 0 0 0 0 0 0 0 0 0 0 0 0
75 66 65 56 57 76 155 256 243 253 235 156 83 60 30 0 0 0 0 114 125 208 181 94 1 12 1 0 0 0 0 0 0 0 0 0 0 0 0 0 0 0 0 0 0
80 98 78 76 60 81 166 209 283 290 229 189 41 46 48 5 0 0 0 204 203 101 102 146 58 24 5 0 0 0 0 0 0 0 0 0 0 0 0 0 0 0 0 0 0
84 90 52 17 32 95 154 170 128 102 115 113 68 46 8 0 0 0 0 48 139 103 124 136 40 31 2 3 0 2 0 0 0 0 0 0 0 0 0 0 0 0 0 0 0
65 40 27 17 32 118 7 0 0 0 34 19 0 20 1 0 0 0 0 117 125 116 157 70 12 16 8 3 0 0 0 0 0 0 0 0 0 0 0 0 0 0 0 0 0
11 14 58 95 33 99 0 0 0 3 1 20 0 17 2 0 3 0 0 39 72 62 15 42 0 3 9 0 1 0 0 0 0 0 0 0 0 0 0 0 0 0 0 0 0
82 100 149 152 155 0 0 0 1 4 2 5 1 1 2 4 3 0 0 18 23 16 5 4 8 28 14 2 6 0 0 0 0 0 0 0 0 0 0 0 0 0 0 0 0
119 244 267 233 23 1 0 0 0 0 0 0 6 4 10 18 1 0 9 18 15 1 0 0 1 26 5 1 0 0 0 0 0 0 0 0 0 0 0 0 0 0 0 0 0
188 239 125 74 2 10 0 0 0 0 0 0 8 13 11 16 0 1 0 1 1 1 0 0 0 0 4 0 0 0 0 0 0 0 0 0 0 0 0 0 0 0 0 0 0
85 113 112 1 30 14 0 0 0 0 0 9 15 14 16 5 4 10 6 0 0 0 0 0 0 0 0 0 0 0 0 0 0 0 0 0 0 0 0 0 0 0 0 0 0
19 3 5 13 1 0 0 0 0 0 3 8 7 8 12 30 19 15 1 0 1 0 0 0 0 0 0 0 0 0 0 0 0 0 0 0 0 0 0 0 0 0 0 0 0
16 1 6 2 0 0 0 0 0 1 2 3 19 12 17 18 26 10 0 0 0 0 0 0 0 0 0 0 0 0 0 0 0 0 0 0 0 0 0 0 0 0 0 0 0
0 0 5 12 0 0 0 0 2 3 2 13 2 4 17 10 23 8 0 0 0 0 0 0 0 0 0 0 0 0 0 0 0 0 0 0 0 0 0 0 0 0 0 0 0
0 0 0 0 0 0 0 3 2 3 0 0 1 0 3 10 4 0 0 0 0 0 0 0 0 0 0 0 0 0 0 0 0 0 0 0 0 0 0 0 0 0 0 0 0
0 0 0 1 0 0 0 4 3 5 0 0 0 0 0 0 0 0 0 0 0 0 0 0 0 0 0 0 0 0 0 0 0 0 0 0 0 0 0 0 0 0 0 0 0
0 0 0 0 0 2 0 4 0 2 0 0 0 0 0 0 0 0 0 0 0 0 0 0 0 0 0 0 0 0 0 0 0 0 0 0 0 0 0 0 0 0 0 0 0
0 0 0 0 0 0 0 0 0 0 0 0 0 0 0 0 0 0 0 0 0 0 0 0 0 0 0 0 0 0 0 0 0 0 0 0 0 0 0 0 0 0 0 0 0
0 0 0 0 0 0 1 0 0 0 0 0 0 0 0 0 0 0 0 0 0 0 0 0 0 0 0 0 0 0 0 0 0 0 0 0 0 0 0 0 0 0 0 0 0
0 0 2 0 0 0 0 0 0 0 0 0 0 0 0 0 0 0 0 0 0 1 0 0 0 0 0 0 0 0 0 0 0 0 0 0 0 0 0 0 0 0 0 0 0
0 2 0 0 0 0 0 0 0 0 0 0 0 0 0 0 0 0 0 0 0 0 0 0 0 0 0 0 0 0 0 0 0 0 0 0 0 0 0 0 0 0 0 0 0
1 0 2 0 0 0 0 0 0 0 0 0 3 0 0 0 0 0 0 0 0 0 0 0 0 0 0 0 0 0 0 0 0 0 0 0 0 0 0 0 0 0 0 0 0

GFSSW_con_sbcape_057.txt.gz
CAPE
36 50 62 62 61 73 82 88 67 44 35 18 12 11 7 16 21 46 23 0 0 0 109 0 1 4 0 0 0 0 0 0 0 0 0 0 0 0 0 0 0 0 0 0 36
63 60 68 62 71 78 76 95 90 85 70 43 1 4 8 16 12 22 0 9 13 0 0 42 8 1 0 0 0 0 0 0 0 0 0 0 0 0 0 0 0 0 0 61 244
71 71 75 74 78 70 74 70 73 89 107 63 15 5 3 30 28 3 161 40 64 1 6 32 36 11 0 0 0 0 0 0 0 0 0 0 0 0 0 0 0 0 0 21 263
77 86 88 72 78 73 66 54 36 84 87 81 55 47 40 44 23 0 0 193 202 2 1 20 0 15 5 0 0 0 0 0 0 0 0 0 0 0 0 0 0 0 0 0 145
82 92 98 76 84 67 59 53 82 138 175 192 132 90 67 34 6 0 0 0 75 8 0 34 12 27 16 0 0 0 0 0 0 0 0 0 0 0 0 0 0 0 0 0 0
100 100 104 87 84 82 70 62 148 227 225 259 190 126 55 67 1 0 0 0 13 30 8 87 5 0 10 0 0 0 0 0 0 0 0 0 0 0 0 0 0 0 0 0 0
116 107 117 97 89 60 64 136 251 271 258 292 219 114 53 8 0 0 0 2 37 33 47 147 2 12 0 0 0 0 0 0 0 0 0 0 0 0 0 0 0 0 0 0 0
101 115 143 115 117 87 85 170 268 292 276 224 203 63 14 52 0 0 0 79 29 93 151 245 24 0 0 0 0 0 0 0 0 0 0 0 0 0 0 0 0 0 0 0 0
123 107 140 88 39 33 124 241 294 318 311 212 76 34 23 86 2 0 0 41 65 205 258 168 39 24 0 0 0 0 0 0 0 0 0 0 0 0 0 0 0 0 0 0 0
69 48 30 22 63 35 161 202 152 104 125 163 31 16 0 12 20 0 0 14 145 214 140 92 71 36 4 0 0 1 0 0 0 0 0 0 0 0 0 0 0 0 0 0 0
66 87 96 117 129 60 3 0 0 0 4 0 0 2 37 42 21 0 0 156 169 92 20 65 49 7 8 4 0 0 0 0 0 0 0 0 0 0 0 0 0 0 0 0 0
141 152 188 153 145 83 0 0 2 0 0 2 18 1 21 26 45 0 0 77 77 42 81 27 29 17 0 0 0 0 0 0 0 0 0 0 0 0 0 0 0 0 0 0 0
208 228 249 212 70 23 0 0 0 4 3 27 11 15 33 23 8 1 0 36 68 44 0 2 2 47 0 18 14 0 0 0 0 0 0 0 0 0 0 0 0 0 0 0 0
177 213 127 6 1 2 0 0 0 0 0 2 40 21 54 28 16 0 18 24 7 4 0 6 3 44 13 24 18 5 0 0 0 0 0 0 0 0 0 0 0 0 0 0 0
39 144 102 11 2 7 0 0 0 0 0 0 22 32 9 6 0 2 5 4 0 13 0 0 17 0 3 5 0 0 0 0 0 0 0 0 0 0 0 0 0 0 0 0 0
16 15 20 0 5 2 0 0 0 0 0 13 8 12 3 15 5 31 7 0 0 0 0 0 0 0 0 1 0 0 0 0 0 0 0 0 0 0 0 0 0 0 0 0 0
9 10 0 1 0 0 0 0 0 0 0 2 5 6 9 19 17 19 3 0 1 0 0 0 0 0 0 0 0 0 0 0 0 0 0 0 0 0 0 0 0 0 0 0 0
1 0 6 0 0 0 0 0 0 0 0 2 29 31 37 1 3 6 4 0 0 0 0 0 2 0 0 0 0 0 0 0 0 0 0 0 0 0 0 0 0 0 0 0 0
0 0 0 0 0 0 0 0 5 1 1 11 5 6 24 12 6 4 0 0 0 0 0 0 0 0 0 0 0 0 0 0 0 0 0 0 0 0 0 0 0 0 0 0 0
0 0 0 0 0 0 0 5 3 3 0 0 0 0 12 17 19 0 0 0 0 0 0 0 0 0 0 0 0 0 0 0 0 0 0 0 0 0 0 0 0 0 0 0 0
0 0 0 0 0 0 0 0 1 1 0 0 0 0 0 0 0 0 0 0 0 0 0 0 0 0 0 0 0 0 0 0 0 0 0 0 0 0 0 0 0 0 0 0 0
0 0 0 0 0 0 0 0 0 0 0 0 0 0 0 0 0 0 0 0 0 0 0 0 0 0 0 0 0 0 0 0 0 0 0 0 0 0 0 0 0 0 0 0 0
0 0 0 0 0 0 0 0 0 0 0 0 0 0 0 0 0 0 0 0 0 0 0 0 0 0 1 0 0 0 0 0 0 0 0 0 0 0 0 0 0 0 0 0 0
0 0 0 0 0 0 0 0 0 0 0 0 0 0 0 0 0 0 0 0 0 0 0 0 0 0 0 0 0 0 0 0 0 0 0 0 0 0 0 0 0 0 0 0 0
0 0 1 0 0 0 0 0 0 0 0 0 0 0 0 0 0 0 0 0 0 0 0 0 0 0 0 0 0 0 0 0 0 0 0 0 0 0 0 0 0 0 0 0 0
0 0 0 0 0 0 0 0 0 0 0 0 0 0 0 0 0 0 0 0 0 0 0 0 0 0 0 0 0 0 0 0 0 0 0 0 0 0 0 0 0 0 0 0 0
0 0 4 0 0 0 0 0 0 0 1 0 0 0 0 0 0 0 0 0 0 0 0 0 0 0 0 0 0 0 0 0 0 0 0 0 0 0 0 0 0 0 0 0 0

GFSSW_con_sbcape_060.txt.gz
CAPE
58 59 61 60 63 69 59 61 73 73 64 57 26 2 0 2 8 1 8 23 0 5 171 0 4 111 0 0 0 0 0 0 0 0 0 0 0 0 0 0 0 0 0 3 20
68 72 73 80 83 91 66 78 71 68 79 93 63 27 10 1 8 2 0 31 5 13 58 0 31 90 12 0 0 0 0 0 0 0 0 0 0 0 0 0 0 0 0 283 403
69 68 80 100 108 78 78 94 75 62 49 72 74 51 20 6 1 0 11 205 255 93 11 29 99 125 42 2 0 0 0 0 0 0 0 0 0 0 0 0 0 0 0 238 422
89 80 84 94 109 92 95 80 72 58 61 66 60 57 47 34 0 41 55 516 447 156 35 50 124 106 55 5 0 0 0 0 0 0 0 0 0 0 0 0 0 0 0 0 460
85 102 105 115 116 103 98 96 72 61 77 101 109 95 77 45 0 18 1 199 342 143 41 52 81 65 32 17 3 0 0 0 0 0 0 0 0 0 0 0 0 0 0 0 0
100 108 134 171 176 148 106 82 95 137 172 172 190 169 86 24 0 2 0 0 50 152 26 92 57 70 48 24 6 0 0 0 0 0 0 0 0 0 0 0 0 0 0 0 0
115 123 171 201 171 183 161 167 107 182 222 252 270 159 103 2 64 43 1 8 98 213 6 109 126 95 47 26 6 1 0 0 0 0 0 0 0 0 0 0 0 0 0 0 0
119 122 79 111 116 68 33 49 200 265 295 295 225 100 13 3 0 0 0 3 44 260 37 206 189 154 26 16 6 1 1 0 0 0 0 0 0 0 0 0 0 0 0 0 0
86 90 56 42 24 55 48 133 273 279 294 259 95 55 45 60 28 8 44 34 44 236 151 246 119 81 40 30 24 13 0 0 0 0 0 0 0 0 0 0 0 0 0 0 0
174 189 174 154 114 68 91 140 111 164 210 139 18 39 6 16 143 45 1 80 199 250 118 146 102 88 81 37 1 1 0 0 0 0 0 0 0 0 0 0 0 0 0 0 0
157 180 214 199 130 116 53 0 0 156 126 46 16 12 39 154 185 12 0 0 273 94 55 74 30 40 28 12 0 3 1 0 0 0 0 0 0 0 0 0 0 0 0 0 0
111 148 156 127 98 35 11 0 2 1 9 17 31 11 0 61 53 11 0 99 124 54 36 60 30 29 47 30 4 0 0 0 0 0 0 0 0 0 0 0 0 0 0 0 0
37 86 67 27 10 9 12 0 2 2 29 37 27 3 0 43 21 17 8 43 49 16 51 26 3 21 37 28 17 7 0 0 0 0 0 0 0 0 0 0 0 0 0 0 0
12 13 5 0 7 10 4 11 8 3 36 3 12 5 23 19 14 6 0 30 10 20 3 4 0 44 35 32 17 14 0 0 0 0 0 0 0 0 0 0 0 0 0 0 0
0 1 0 0 13 8 13 0 0 3 22 12 14 6 30 12 1 7 38 0 4 11 5 4 3 48 59 26 41 2 0 0 0 0 0 0 0 0 0 0 0 0 0 0 0
1 0 0 0 4 7 0 0 1 16 11 11 15 5 12 12 16 35 7 0 1 1 0 5 2 0 2 4 0 0 0 0 0 0 0 0 0 0 0 0 0 0 0 0 0
11 0 0 0 0 0 0 10 4 7 4 8 11 2 15 16 22 2 13 18 10 14 9 1 8 1 2 1 2 0 0 6 1 2 0 0 0 0 0 0 0 0 0 0 0
3 0 0 0 0 0 1 4 4 2 4 2 7 21 19 8 11 5 1 1 0 0 5 22 12 4 0 0 1 0 0 4 0 0 0 0 0 0 0 0 0 0 0 0 0
0 0 0 0 0 0 5 4 11 4 1 19 3 6 16 15 10 5 0 0 0 0 0 0 4 0 0 0 0 0 1 0 0 0 0 0 0 0 0 0 0 0 0 0 0
0 0 0 0 0 0 4 8 33 2 0 0 0 3 1 0 1 4 0 0 0 0 0 0 5 0 0 0 0 0 0 0 0 0 0 0 0 0 0 0 0 0 0 0 0
0 0 0 0 0 0 0 7 8 1 0 0 0 0 3 2 2 0 0 0 0 0 0 0 0 2 0 0 0 0 0 0 0 0 0 0 0 0 0 0 0 0 0 0 0
0 0 0 0 0 3 3 1 0 0 0 0 0 1 3 0 2 0 0 0 0 0 0 0 1 4 3 0 0 0 0 0 0 0 0 0 0 0 0 0 0 0 0 0 0
0 0 0 0 0 2 0 0 0 0 0 0 0 0 0 0 0 0 0 0 0 0 0 0 0 5 3 0 0 0 0 0 0 0 0 0 0 0 0 0 0 0 0 0 0
0 0 0 0 0 0 0 0 0 0 0 0 0 0 0 0 0 0 0 0 0 0 0 0 0 0 0 0 0 0 0 0 0 0 0 0 0 0 0 0 0 0 0 0 0
1 2 2 1 0 0 0 0 0 0 0 0 0 0 0 0 0 0 0 0 0 0 0 0 0 0 0 0 0 0 0 0 0 0 0 0 0 0 0 0 0 0 0 0 0
5 4 1 0 0 0 0 0 0 0 0 0 0 0 0 0 0 0 0 0 0 0 0 0 0 0 0 0 0 0 0 0 0 0 0 0 0 0 0 0 0 0 0 0 0
1 2 6 0 0 0 0 0 0 0 0 0 0 0 0 0 0 0 0 0 0 0 0 0 0 0 0 0 0 0 0 0 0 0 0 0 0 0 0 0 0 0 0 0 0

GFSSW_con_sbcape_063.txt.gz
CAPE
72 66 65 68 69 76 102 85 77 77 92 74 78 57 27 4 0 0 1 21 16 1 45 0 11 195 17 1 0 0 36 35 9 1 0 8 0 0 0 0 0 0 0 17 543
72 76 80 73 102 85 72 71 93 96 101 87 94 94 57 5 1 0 0 28 194 16 64 0 15 239 13 2 0 0 3 0 0 0 1 3 0 0 0 0 0 0 0 112 422
84 80 87 91 96 85 80 86 85 92 85 64 65 78 63 20 13 0 0 11 485 99 24 35 32 262 61 29 0 0 0 0 0 0 0 0 0 0 0 0 0 0 0 113 319
84 99 103 124 114 127 127 135 135 114 81 67 63 54 42 31 2 15 76 151 400 207 22 25 12 150 88 28 0 0 0 0 1 0 0 0 0 0 0 0 0 0 0 0 273
93 125 126 141 158 165 184 177 130 144 95 85 80 69 58 32 1 31 70 233 343 337 20 14 21 58 49 41 3 0 0 0 1 0 0 0 0 0 0 0 0 0 0 0 0
137 136 153 159 187 195 196 214 199 150 165 197 139 82 49 10 1 0 4 4 368 341 27 14 27 63 59 47 28 2 7 3 0 0 0 0 0 0 0 0 0 0 0 0 0
112 98 105 62 29 70 94 82 145 180 197 224 210 144 65 1 19 270 74 0 35 248 25 25 56 107 54 48 46 16 5 9 0 0 0 0 0 0 0 0 0 0 0 0 0
154 164 176 150 7 12 23 44 39 204 307 289 242 104 54 12 4 0 1 18 26 162 103 56 171 229 119 75 41 29 20 22 0 0 0 0 0 0 0 0 0 0 0 0 0
106 143 169 182 163 78 2 64 111 214 251 304 250 104 31 129 1 1 25 23 15 273 257 135 297 226 153 84 42 43 3 0 0 0 0 0 0 0 0 0 0 0 0 0 0
68 102 105 137 184 83 86 96 21 127 261 174 102 106 2 78 59 89 98 68 25 257 140 122 163 113 92 88 40 4 0 0 0 0 0 0 0 0 0 0 0 0 0 0 0
67 71 36 33 100 48 36 17 80 173 150 79 45 15 60 112 239 224 40 10 129 72 18 90 79 31 4 7 1 7 0 0 0 0 0 0 0 0 0 0 0 0 0 0 0
53 58 23 18 27 12 20 15 6 23 41 4 25 35 11 22 4 102 43 157 235 31 33 81 22 2 47 37 31 4 11 2 0 0 0 0 0 0 0 0 0 0 0 0 0
34 32 9 0 0 12 12 6 5 8 31 24 23 16 7 23 21 4 56 33 68 34 37 28 23 2 35 40 16 15 13 1 0 0 0 0 0 0 0 0 0 0 0 0 0
26 7 0 0 2 13 4 6 3 2 124 7 11 37 70 56 4 16 5 3 36 47 51 23 22 9 30 38 10 23 10 1 0 0 0 0 0 0 0 0 0 0 0 0 0
9 12 0 0 0 3 6 0 0 3 76 10 5 0 56 8 2 13 23 77 22 2 8 2 27 24 34 56 16 24 4 5 0 0 0 0 0 0 0 0 0 0 0 0 0
8 1 0 2 3 0 2 4 9 10 41 7 12 13 9 7 22 18 2 0 1 0 1 4 2 0 7 0 5 8 0 0 0 0 4 0 0 0 0 0 0 0 0 0 0
5 1 4 1 3 1 12 5 12 35 2 16 12 4 19 21 17 27 5 12 8 7 5 3 3 1 0 0 0 0 25 29 29 14 4 0 0 0 0 0 0 0 0 0 0
2 0 0 0 10 12 5 10 14 3 5 1 10 21 13 7 13 21 14 4 4 2 18 14 12 2 8 2 3 6 13 66 12 8 1 0 0 0 0 0 0 0 0 0 0
0 0 2 0 5 7 6 4 14 5 0 16 21 11 7 1 0 17 7 3 0 0 5 15 17 5 6 0 0 8 8 0 0 0 0 0 0 0 0 0 0 0 0 0 0
0 0 0 0 0 1 4 3 16 3 7 4 9 2 3 2 7 9 2 0 0 0 0 0 8 0 0 0 0 1 0 0 0 0 0 0 0 0 0 0 0 0 0 0 0
0 1 0 0 0 0 9 25 15 1 0 1 2 2 2 3 5 2 0 0 0 0 0 0 0 3 1 0 2 0 0 0 0 0 0 0 0 0 0 0 0 0 0 0 0
0 2 0 0 0 3 3 0 0 1 0 0 4 3 4 3 4 2 3 2 0 0 0 0 3 8 7 0 0 0 1 0 0 0 0 0 0 0 0 0 0 0 0 0 0
0 0 0 0 1 10 0 0 0 0 0 0 0 0 0 2 0 2 0 0 0 0 0 0 0 3 1 0 0 0 0 0 0 0 0 0 0 0 0 0 0 0 0 0 0
1 1 0 0 0 4 2 0 0 0 0 0 0 0 0 0 0 0 0 0 0 0 0 0 0 0 2 0 0 0 0 0 0 0 0 0 0 0 0 0 0 0 0 0 0
0 4 1 6 3 0 0 0 0 0 0 0 0 0 0 1 0 0 0 0 0 0 0 0 2 0 0 0 0 0 0 0 0 0 2 0 0 0 0 0 0 0 0 0 0
6 2 3 0 0 0 1 3 0 0 0 0 0 0 0 0 0 0 0 1 1 0 0 0 0 0 0 0 0 0 0 0 0 0 0 0 0 0 0 0 0 0 0 0 0
9 10 9 0 0 0 8 1 0 0 0 0 1 0 0 0 0 0 0 0 0 0 0 2 0 0 0 0 0 0 0 0 0 0 0 0 0 0 0 0 0 0 0 0 0

GFSSW_con_sbcape_066.txt.gz
CAPE
84 81 89 91 106 112 117 90 77 80 80 83 66 66 60 41 0 0 0 4 41 56 0 0 0 264 255 178 0 0 52 11 13 15 3 2 0 0 0 0 0 0 40 458 887
60 86 86 99 118 151 123 108 91 116 103 100 96 83 91 65 3 0 0 1 85 194 29 0 0 253 179 119 11 0 0 0 0 4 8 0 0 0 0 0 0 0 19 404 801
69 90 105 143 146 169 150 159 111 124 102 81 74 98 88 44 15 0 0 0 107 344 6 29 0 97 151 57 17 0 0 0 0 0 0 0 0 0 0 0 0 0 8 114 458
68 97 120 146 158 173 171 176 183 124 141 118 87 88 65 46 0 53 0 0 297 363 44 67 3 17 72 25 3 0 0 0 0 0 0 0 0 0 0 0 0 0 0 131 180
75 108 146 139 130 146 176 163 210 123 118 99 89 74 44 8 0 0 70 27 156 334 83 37 0 16 43 40 7 0 0 0 0 0 0 0 0 0 0 0 0 0 0 0 19
94 120 154 173 158 33 74 93 148 166 176 143 184 68 1 6 0 0 0 0 82 234 133 12 7 3 3 92 62 1 0 0 2 0 0 0 0 0 0 0 0 0 0 0 0
78 80 146 180 161 33 29 34 5 69 147 178 209 88 21 0 5 165 76 13 0 97 166 27 0 8 39 56 29 30 7 5 0 0 0 0 0 0 0 0 0 0 0 0 0
57 76 93 118 157 128 11 20 40 82 235 274 221 65 15 0 0 0 10 0 0 5 203 74 0 161 109 74 50 31 16 28 2 0 0 0 0 0 0 0 0 0 0 0 0
44 42 39 49 88 136 31 11 80 131 186 243 185 90 1 56 0 0 0 0 0 4 192 248 101 128 111 62 34 38 2 3 3 0 0 0 0 0 0 0 0 0 0 0 0
51 49 22 28 22 96 31 112 32 45 234 166 96 26 12 5 42 0 141 27 7 105 231 169 72 52 77 56 2 0 0 0 0 0 0 0 0 0 0 0 0 0 0 0 0
42 34 8 11 27 30 65 148 96 118 71 19 22 24 12 50 147 36 108 12 57 190 222 74 17 0 0 0 0 0 0 0 0 0 0 0 0 0 0 0 0 0 0 0 0
19 30 20 0 9 9 41 3 4 3 9 5 3 3 68 57 45 94 94 21 54 0 31 55 13 0 13 15 80 1 0 0 1 3 0 0 0 0 0 0 0 0 0 0 0
14 27 7 2 0 33 1 3 2 0 21 7 25 36 59 0 14 48 39 18 1 13 0 5 5 15 1 0 2 7 0 0 0 0 0 0 0 0 0 0 0 0 0 0 0
7 14 9 0 0 0 0 0 0 0 7 22 23 16 44 0 29 48 39 20 39 8 42 20 24 0 17 3 9 15 0 5 0 0 0 0 0 0 0 0 0 0 0 0 0
6 6 5 0 10 0 0 1 0 4 0 0 23 7 19 18 2 0 34 2 9 22 12 0 5 1 0 0 13 6 34 9 0 0 0 0 0 0 0 0 0 0 0 0 0
4 3 1 8 20 0 2 4 5 1 1 4 9 5 6 6 9 19 17 0 0 1 0 2 0 2 5 7 15 42 16 7 2 15 1 0 0 0 0 0 0 0 0 0 0
8 0 0 1 5 5 2 1 1 1 0 1 3 15 1 8 6 20 9 15 4 0 0 3 3 0 0 7 0 21 0 19 28 12 0 0 0 0 0 0 0 0 0 0 0
0 0 0 0 6 3 1 2 0 3 1 5 1 19 7 1 4 11 11 5 0 0 6 1 0 2 1 3 0 0 2 20 1 1 0 0 0 0 0 0 0 0 0 0 0
0 0 0 0 0 1 1 0 4 0 0 1 11 12 11 0 0 1 0 3 5 1 9 18 8 6 7 0 0 0 0 0 0 0 0 0 0 0 0 0 0 0 0 0 0
0 0 0 0 0 0 0 0 9 0 1 0 5 2 5 2 3 7 2 0 0 0 0 0 6 8 8 7 0 2 0 0 0 0 0 0 0 0 0 0 0 0 0 0 0
0 0 0 0 0 0 0 1 3 1 0 0 0 2 0 0 10 0 0 0 0 0 0 0 0 3 0 1 1 2 1 0 0 0 0 0 0 0 0 0 0 0 0 0 0
0 1 0 0 0 3 2 0 0 0 0 0 0 0 2 0 4 2 0 0 0 0 0 0 0 0 0 0 0 0 0 0 0 0 0 0 0 0 0 0 0 0 0 0 0
0 0 0 0 10 17 0 0 0 0 0 0 0 0 0 0 0 0 0 0 0 0 0 0 0 0 0 0 0 0 0 0 0 0 0 0 0 0 0 0 0 0 0 0 0
0 0 0 0 0 1 7 0 0 0 0 0 0 0 0 0 0 0 0 0 0 0 0 0 0 0 0 0 0 0 0 0 0 0 0 0 0 0 0 0 0 0 0 0 0
0 1 1 3 3 0 3 8 0 0 0 0 0 0 0 0 0 0 0 0 0 0 0 0 0 0 0 0 0 0 0 0 0 0 0 0 0 0 0 0 0 0 0 0 0
0 1 0 0 0 0 0 11 4 1 0 0 0 0 0 0 0 0 0 0 0 0 0 0 0 0 0 0 0 0 0 0 0 0 0 0 0 0 0 0 0 0 0 0 0
0 0 5 0 0 0 4 3 8 0 0 0 0 0 0 2 0 0 0 0 0 0 0 0 0 0 0 0 0 0 0 0 0 0 0 0 0 0 0 0 0 0 0 0 0

GFSSW_con_sbcape_069.txt.gz
CAPE
56 56 76 99 131 168 169 173 155 124 102 91 84 59 74 35 37 0 0 0 19 154 8 0 0 0 159 240 0 26 17 0 0 1 0 0 0 0 0 0 0 1 231 755 776
50 68 104 144 156 201 198 206 191 138 138 96 60 65 59 55 10 0 0 0 22 186 3 0 0 30 149 152 5 5 9 0 0 0 0 0 0 0 0 0 0 317 819 906 839
26 82 131 170 167 168 192 196 154 159 162 125 79 93 63 59 3 0 2 0 7 174 79 0 0 161 109 53 21 0 0 0 0 0 0 0 0 0 0 0 0 74 642 783 756
76 84 110 124 164 160 132 160 134 170 127 115 127 106 57 49 0 12 14 84 0 82 82 1 0 0 77 20 19 0 0 0 1 0 0 0 0 0 0 0 0 0 112 357 600
61 64 80 99 100 154 43 77 140 158 137 140 111 124 60 15 0 0 0 30 1 262 80 42 0 0 35 20 1 0 0 0 1 0 0 0 0 0 0 0 0 0 0 119 327
60 57 62 67 110 149 11 2 25 51 157 159 196 120 2 0 0 0 0 0 24 187 60 35 1 0 48 25 5 0 5 13 0 0 0 0 0 0 0 0 0 0 0 0 3
60 36 26 45 63 107 2 4 30 4 68 178 232 100 70 0 0 18 94 44 27 27 67 19 0 0 0 0 0 18 21 7 0 0 0 0 0 0 0 0 0 0 0 0 0
48 32 12 36 10 75 63 0 27 39 186 262 244 85 19 0 0 0 0 14 0 0 19 86 12 25 23 17 14 39 0 8 0 0 0 0 0 0 0 0 0 0 0 0 0
38 20 14 27 26 71 74 6 90 125 153 190 134 88 6 48 0 0 0 0 0 0 43 179 23 18 60 47 15 11 5 0 0 0 0 0 0 0 0 0 0 0 0 0 0
24 17 2 8 4 8 13 39 45 11 115 192 73 11 1 6 18 0 47 6 0 22 93 168 61 18 39 9 0 6 0 0 0 0 0 0 0 0 0 0 0 0 0 0 0
14 10 0 0 0 3 0 0 0 0 5 9 6 0 0 40 81 28 117 3 6 25 95 49 28 0 0 0 2 0 0 0 0 0 0 0 0 0 0 0 0 0 0 0 0
4 5 6 0 0 0 0 0 0 0 0 9 18 26 19 0 54 105 17 3 49 17 12 34 4 0 0 0 5 0 0 0 0 0 0 0 0 0 0 0 0 0 0 0 0
11 6 3 0 0 0 0 0 0 0 5 5 7 37 5 0 15 0 0 13 24 41 2 5 1 0 4 4 15 1 0 0 0 0 0 0 0 0 0 0 0 0 0 0 0
14 5 2 0 0 0 0 0 0 0 0 19 16 14 5 0 13 27 28 22 3 5 3 12 12 7 1 0 0 0 0 0 0 0 0 0 0 0 0 0 0 0 0 0 0
9 4 0 0 0 0 0 0 0 0 0 1 8 0 47 9 1 3 47 10 13 11 8 1 23 1 0 0 0 0 0 0 0 0 0 0 0 0 0 0 0 0 0 0 0
5 4 0 0 0 0 0 1 0 0 0 0 5 10 9 3 7 30 21 8 0 0 0 1 0 0 0 0 0 11 0 0 0 0 0 0 0 0 0 0 0 0 0 0 0
5 5 0 0 0 0 0 0 0 0 0 0 2 4 5 7 23 10 13 9 1 0 1 0 1 0 0 0 0 0 0 0 0 0 0 0 0 0 0 0 0 0 0 0 0
1 0 0 0 0 0 0 0 0 0 0 0 0 6 1 8 8 0 23 10 0 0 0 0 0 2 0 0 0 2 0 0 0 0 0 0 0 0 0 0 0 0 0 0 0
0 0 0 0 0 0 0 0 0 0 0 0 0 2 1 0 1 1 0 6 0 0 0 0 1 3 0 0 0 9 0 0 0 0 0 0 0 0 0 0 0 0 0 0 0
0 0 0 0 0 0 0 0 0 0 0 0 0 0 0 0 6 0 0 0 0 0 0 0 0 7 6 2 0 6 0 0 0 0 0 0 0 0 0 0 0 0 0 0 0
0 0 0 0 0 0 0 0 1 1 0 0 0 1 0 0 0 0 0 0 0 0 0 0 0 14 8 6 6 5 2 0 0 0 0 0 0 0 0 0 0 0 0 0 0
0 0 0 0 0 0 0 0 0 0 0 0 0 0 0 0 0 0 0 0 0 0 0 0 0 0 0 0 0 0 0 0 0 0 0 0 0 0 0 0 0 0 0 0 0
0 0 0 0 0 0 0 0 0 0 0 0 0 0 0 0 0 0 0 0 0 0 0 0 0 0 0 0 0 0 0 0 0 0 0 0 0 0 0 0 0 0 0 0 0
0 0 0 0 0 0 0 0 0 0 0 0 0 0 0 0 0 0 0 0 0 0 0 0 0 0 0 0 0 0 0 0 0 0 0 0 0 0 0 0 0 0 0 0 0
0 0 0 0 0 0 0 0 0 1 0 0 0 0 0 0 0 0 0 0 0 0 0 0 0 0 0 0 0 0 0 0 0 0 0 0 0 0 0 0 0 0 0 0 0
0 0 0 0 0 0 0 0 6 1 0 0 0 0 0 0 0 0 0 0 0 0 0 0 0 0 0 0 0 0 0 0 0 0 0 0 0 0 0 0 0 0 0 0 0
0 0 0 0 0 0 0 0 1 0 0 0 0 0 0 0 0 0 0 0 0 0 0 0 0 0 0 0 0 0 0 0 0 0 0 0 0 0 0 0 0 0 0 0 0

GFSSW_con_sbcape_072.txt.gz
CAPE
38 51 80 105 132 194 218 211 204 158 189 134 85 105 107 97 41 0 0 0 6 94 158 0 0 0 65 140 69 41 60 5 0 6 6 0 0 0 0 1 10 81 377 533 524
73 69 77 86 101 186 204 176 206 167 172 160 112 89 76 99 35 0 0 0 4 68 13 0 0 19 78 143 14 7 14 0 0 0 0 0 0 0 0 1 229 869 788 698 512
66 51 41 101 91 169 198 145 191 60 148 70 123 117 118 79 22 0 6 13 18 6 50 0 0 107 104 41 0 0 0 0 0 0 0 0 0 0 0 0 72 843 851 565 445
65 64 62 65 113 156 131 70 131 129 105 91 86 141 104 77 3 0 6 48 106 6 87 0 0 80 63 36 17 2 0 2 2 8 0 0 0 0 0 0 0 310 539 489 472
42 41 30 39 64 133 33 11 32 91 115 132 125 160 94 1 1 0 20 12 91 9 87 15 0 45 42 13 18 6 0 0 2 26 18 23 13 0 0 0 0 231 382 406 372
27 30 21 42 39 70 0 0 10 35 114 176 222 145 20 1 2 10 37 3 4 47 73 32 0 1 32 56 51 0 8 0 0 0 0 0 1 7 0 0 0 0 59 210 355
37 24 20 36 11 31 0 0 33 14 100 181 252 104 39 0 0 0 0 20 39 84 72 24 0 17 1 0 9 5 41 2 0 0 0 0 0 0 0 0 0 0 0 0 8
24 28 10 25 41 24 0 0 12 27 142 221 218 80 0 0 0 0 7 0 3 18 62 70 9 0 0 2 3 28 1 12 0 0 0 0 0 0 0 0 0 0 0 0 0
22 24 18 15 3 10 0 0 3 28 75 128 118 1 0 1 0 0 0 0 4 0 25 67 6 0 17 27 18 31 0 0 0 0 0 0 0 0 0 0 0 0 0 0 0
22 10 20 6 1 5 0 0 0 0 0 23 17 0 0 0 0 31 57 34 29 80 64 55 52 0 0 1 1 0 0 0 0 0 0 0 0 0 0 0 0 0 0 0 0
19 5 7 5 0 0 0 0 0 0 0 0 0 0 0 7 12 56 72 4 18 24 56 69 18 0 0 0 0 0 0 0 0 0 0 0 0 0 0 0 0 0 0 0 0
16 14 8 1 0 0 0 0 0 0 0 0 11 13 1 0 32 7 0 0 22 0 21 46 14 0 0 16 2 0 0 0 0 0 0 0 0 0 0 0 0 0 0 0 0
14 15 5 2 0 0 0 0 0 0 1 7 7 3 5 2 4 0 4 3 14 3 13 18 6 0 0 5 4 0 0 0 0 0 0 0 0 0 0 0 0 0 0 0 0
5 11 5 4 0 0 0 0 0 0 0 6 4 7 34 0 44 22 62 19 22 4 3 5 1 2 1 2 2 13 0 0 0 0 0 0 0 0 0 0 0 0 0 0 0
4 5 2 4 0 0 0 0 0 0 0 2 2 0 45 12 16 11 16 33 7 4 15 1 0 2 19 0 0 2 0 0 0 0 0 0 0 0 0 0 0 0 0 0 0
5 2 0 0 0 0 1 0 0 0 0 0 1 23 28 9 21 42 22 7 16 19 0 1 0 0 0 0 1 0 0 0 0 0 0 0 0 0 0 0 0 0 0 0 0
0 0 0 0 0 0 0 0 0 0 0 0 3 20 4 18 34 3 2 25 8 1 0 0 1 0 0 0 0 8 0 1 0 0 0 0 0 0 0 0 0 0 0 0 0
0 0 0 0 0 0 0 0 0 0 0 0 0 0 10 10 1 8 13 0 0 0 0 0 6 0 0 0 0 0 0 0 0 0 0 0 0 0 0 0 0 0 0 0 0
0 0 0 0 0 0 0 0 0 0 0 0 0 0 0 6 4 5 0 0 0 0 0 1 0 0 0 0 0 1 1 0 0 0 0 0 0 0 0 0 0 0 0 0 0
0 0 0 0 0 0 0 0 0 0 0 0 0 0 0 2 1 0 0 0 0 0 0 0 5 0 0 1 0 2 0 1 0 0 0 0 0 0 0 0 0 0 0 0 0
0 0 0 0 0 0 0 0 0 0 0 0 0 0 0 0 0 0 0 0 0 0 0 0 0 7 15 14 5 7 6 0 0 0 0 0 0 0 0 0 0 0 0 0 0
0 0 0 0 0 0 0 0 0 0 0 0 0 0 0 0 0 0 0 0 0 0 0 0 0 4 3 2 1 2 0 0 0 0 0 0 0 0 0 0 0 0 0 0 0
0 0 0 0 0 0 0 0 0 0 0 0 0 0 0 0 0 0 0 0 0 0 0 0 0 0 0 0 0 5 0 0 0 0 0 0 0 0 0 0 0 0 0 0 0
0 0 0 0 0 0 0 0 2 0 0 0 0 0 0 0 0 0 0 0 0 0 0 0 0 0 0 0 0 0 0 0 0 0 0 0 0 0 0 0 0 0 0 0 0
0 0 0 0 0 0 0 0 0 0 0 0 0 0 0 0 0 0 0 0 0 0 0 0 0 0 0 0 0 0 0 0 0 0 0 0 0 0 0 0 0 0 0 0 0
0 0 0 0 0 0 0 0 0 1 0 0 0 0 0 0 0 0 0 0 0 0 0 0 0 0 0 0 0 0 0 0 0 0 0 0 0 0 0 0 0 0 0 0 0
0 0 0 0 0 0 0 0 0 0 0 1 0 0 0 0 0 0 0 0 0 0 0 0 0 0 0 0 0 0 0 0 0 0 0 0 0 0 0 0 0 0 0 0 0

GFSSW_con_sbcape_075.txt.gz
CAPE
55 69 60 52 101 118 196 203 208 235 203 158 125 106 47 113 65 5 0 0 4 88 135 0 1 34 73 27 106 110 26 0 0 0 2 0 0 0 0 0 4 189 322 418 348
56 68 61 49 79 111 182 164 146 101 82 162 135 143 99 67 28 17 0 2 2 9 75 0 0 98 167 60 16 42 8 0 0 0 0 0 0 0 0 0 22 682 581 456 755
60 54 33 52 79 96 124 46 84 14 71 17 85 138 124 67 0 0 3 23 16 9 2 0 0 33 110 45 2 2 0 0 0 0 0 0 0 0 0 0 0 441 865 537 337
44 33 41 54 58 70 1 6 32 83 103 59 66 151 115 80 0 22 69 49 67 7 8 0 1 11 66 95 11 0 0 0 11 3 0 0 0 0 0 0 0 0 400 395 379
35 26 34 36 26 30 0 0 9 35 58 96 84 169 48 0 1 0 24 0 28 53 0 1 0 27 37 34 63 1 0 2 6 0 0 0 0 0 0 0 0 7 324 357 352
34 18 18 21 20 3 2 1 6 37 109 179 188 82 7 0 0 0 0 8 111 50 0 2 0 17 40 14 89 25 4 3 0 15 1 0 0 0 0 0 0 188 301 211 284
26 18 15 16 5 2 0 3 7 29 113 184 230 107 21 0 0 0 0 0 6 44 10 64 0 32 0 18 5 7 17 0 0 1 2 19 46 0 0 0 0 0 106 163 173
23 12 22 17 4 0 0 0 0 17 86 155 142 22 0 0 0 0 2 0 0 55 54 63 19 0 0 0 0 12 5 2 0 0 1 20 0 0 0 0 0 0 0 0 0
16 7 12 19 16 2 0 0 0 0 23 49 15 0 0 1 0 0 0 0 6 53 54 72 10 0 7 1 11 5 0 0 0 0 0 0 0 1 2 0 0 0 0 0 0
9 5 3 4 10 2 0 0 0 0 0 0 0 0 0 0 0 43 35 40 51 90 58 88 38 2 0 4 2 0 0 0 0 0 0 0 0 0 0 0 0 0 0 0 0
13 9 3 1 1 0 0 0 0 0 0 2 9 0 1 0 1 40 35 25 47 46 3 35 11 0 0 0 0 0 0 0 0 0 1 0 0 0 0 0 0 0 0 0 0
5 15 3 1 1 0 0 0 0 0 0 0 0 3 2 0 6 2 4 14 39 23 9 16 5 0 0 1 0 0 0 0 0 0 1 2 24 0 0 0 0 0 0 0 0
5 7 3 0 0 0 0 0 0 0 0 3 5 13 9 2 3 0 8 24 16 10 12 5 0 0 11 17 2 0 0 0 0 0 0 0 0 0 0 0 0 0 0 0 0
4 0 3 1 0 0 0 0 0 0 0 5 11 7 40 1 6 7 49 34 16 3 2 22 2 0 4 1 0 9 0 0 0 0 0 0 0 0 0 0 0 0 0 0 0
7 3 2 0 0 0 0 0 0 0 0 0 4 5 24 19 1 29 26 58 0 3 3 1 1 3 3 0 3 0 3 0 0 0 0 0 0 0 0 0 0 0 0 0 0
5 3 0 0 0 0 0 0 0 0 0 0 2 32 40 33 38 15 2 10 19 1 5 1 0 0 0 0 0 0 0 0 0 0 0 0 0 0 0 0 0 0 0 0 0
0 0 0 0 0 0 0 0 0 0 0 0 9 5 16 23 27 0 0 10 3 5 0 1 1 0 0 0 0 1 0 3 0 0 0 0 0 0 0 0 0 0 0 0 0
0 0 0 0 0 0 0 0 0 0 0 0 0 2 25 29 11 14 32 5 0 0 1 0 10 0 0 0 1 0 0 0 0 0 0 0 0 0 0 0 0 0 0 0 0
0 0 0 0 0 0 0 0 0 0 0 0 0 0 13 15 5 10 12 0 0 0 0 0 0 0 0 0 0 0 0 0 0 0 0 0 0 0 0 0 0 0 0 0 0
0 0 0 0 0 0 0 0 0 0 0 0 0 0 0 0 4 2 0 0 0 0 0 0 0 0 0 4 0 0 0 0 0 0 0 0 0 0 0 0 0 0 0 0 0
0 0 0 0 0 0 0 0 0 0 0 0 0 0 0 0 0 0 0 0 0 0 0 0 0 4 0 14 6 8 8 1 0 0 0 0 0 0 0 0 0 0 0 0 0
0 0 0 0 0 0 0 0 0 0 0 0 0 0 0 0 0 0 0 0 0 0 0 0 0 0 5 6 0 0 2 2 0 0 0 0 0 0 0 0 0 0 0 0 0
0 0 0 0 0 0 0 0 0 0 0 0 0 0 0 0 0 0 0 0 0 0 0 0 0 0 1 0 4 16 3 19 0 0 0 0 0 0 0 0 0 0 0 0 0
0 0 0 0 0 0 0 0 0 0 0 0 0 0 0 0 0 0 0 0 0 0 0 0 0 0 0 0 0 1 0 4 2 0 0 0 0 0 0 0 0 0 0 0 0
0 0 0 0 0 0 0 0 0 0 0 0 0 0 0 0 0 0 0 0 0 0 0 0 0 0 0 0 0 0 0 0 0 0 0 0 0 0 0 0 0 0 0 0 0
0 0 0 0 0 0 0 0 0 0 0 0 0 0 0 0 0 0 0 0 0 0 0 0 0 0 0 0 0 0 0 0 0 0 0 0 0 0 0 0 0 0 0 0 0
0 0 0 0 0 0 0 0 0 0 0 1 0 0 0 0 0 0 0 0 0 0 0 0 0 0 0 0 0 0 0 0 0 0 0 0 0 0 0 0 0 0 0 0 0

GFSSW_con_sbcape_078.txt.gz
CAPE
49 36 38 34 15 40 53 104 117 150 123 161 141 108 83 57 47 6 0 0 0 148 147 0 0 108 75 17 44 10 0 0 0 0 0 1 0 0 0 0 0 354 238 261 348
29 34 33 45 24 30 12 27 40 29 45 56 80 167 124 63 33 5 28 101 79 35 6 0 3 8 110 10 4 16 0 0 0 0 3 0 0 0 0 0 0 1 126 461 866
28 26 21 30 26 8 1 3 4 61 111 41 103 99 114 68 0 0 0 76 129 33 2 3 0 4 32 31 0 1 0 0 0 0 9 0 0 0 0 0 0 0 0 11 812
30 14 22 23 20 5 0 4 7 25 69 61 91 166 97 11 5 17 46 81 124 36 18 0 0 10 47 32 0 7 0 0 14 0 0 0 0 0 0 0 0 0 0 0 289
25 11 11 28 10 1 0 2 4 14 94 149 129 164 15 0 0 1 13 0 15 63 2 0 1 2 30 38 11 2 7 11 5 0 0 0 0 0 0 0 0 0 1 119 144
21 14 16 21 12 3 0 2 1 12 86 189 212 81 1 0 0 0 0 0 21 91 7 19 1 0 37 39 39 9 9 15 2 0 0 0 0 0 0 0 0 0 0 38 112
14 9 20 9 10 3 0 0 0 0 51 148 194 84 0 0 0 0 0 0 7 81 54 52 1 27 9 36 28 29 20 0 0 0 1 0 0 0 0 0 0 0 0 0 77
7 9 13 15 13 9 0 0 0 0 6 95 103 0 0 0 0 0 0 0 1 125 121 101 9 0 0 0 21 59 24 15 0 0 0 0 0 0 0 0 0 0 0 0 0
11 4 10 7 7 2 3 0 0 0 0 0 0 0 0 1 2 1 25 0 29 111 104 115 26 0 0 3 11 8 20 8 0 0 3 0 0 0 0 0 0 0 0 0 0
13 4 7 3 2 1 0 0 0 0 0 0 0 0 0 0 5 0 32 25 30 84 46 54 27 0 0 0 1 17 0 6 1 0 9 0 0 0 0 0 0 0 0 0 0
7 9 2 3 2 0 0 0 0 0 0 0 0 0 0 0 13 15 28 16 28 19 28 2 14 0 0 0 0 0 0 0 0 0 0 6 0 0 0 0 0 0 0 0 0
4 7 8 5 1 0 0 0 0 0 0 3 0 0 3 0 0 0 8 24 20 30 8 9 1 0 0 0 0 0 0 0 0 0 0 0 0 0 0 0 0 0 0 0 0
3 4 6 5 1 0 0 0 0 0 0 15 6 6 7 3 0 0 16 18 30 6 13 7 2 0 9 12 3 0 0 0 0 0 0 0 0 0 0 0 0 0 0 0 0
5 2 1 3 0 0 0 0 0 0 0 5 11 6 21 0 0 2 25 7 0 11 2 2 0 0 14 19 0 0 0 0 0 0 0 0 0 0 0 0 0 0 0 0 0
5 2 0 0 0 0 0 0 0 0 0 0 9 8 29 0 0 0 7 20 0 6 4 1 8 4 3 7 0 0 0 0 0 0 0 0 0 0 0 0 0 0 0 0 0
4 0 2 0 0 0 0 0 0 0 0 0 6 39 37 16 22 12 0 1 0 17 14 2 0 0 0 0 0 2 0 0 0 0 0 0 0 0 0 0 0 0 0 0 0
1 0 0 0 0 0 0 0 0 0 0 0 9 1 11 9 2 0 3 0 0 1 1 0 1 0 0 0 0 1 6 6 13 2 3 0 0 0 0 0 0 0 0 0 0
0 0 0 0 0 0 0 0 0 0 0 0 0 10 20 9 1 6 10 0 0 0 8 2 9 0 0 0 2 0 0 0 0 0 0 0 0 0 0 0 0 0 0 0 0
0 0 0 0 0 0 0 0 0 0 0 0 0 8 1 23 6 10 2 0 0 0 0 0 0 0 0 0 0 0 0 0 0 0 0 0 0 0 0 0 0 0 0 0 0
0 0 0 0 0 0 0 0 0 0 0 0 0 0 1 0 0 2 0 0 0 0 0 0 0 0 0 0 0 0 0 0 0 0 0 0 0 0 0 0 0 0 0 0 0
0 0 0 0 0 0 0 0 0 0 0 0 0 0 0 0 0 0 0 0 0 0 0 0 0 3 1 1 6 10 3 0 0 0 0 0 0 0 0 0 0 0 0 0 0
0 0 0 0 0 0 0 0 0 0 0 0 0 0 0 0 0 0 0 0 0 0 0 0 0 0 0 1 0 6 7 2 1 0 0 0 0 0 0 0 0 0 0 0 0
0 0 0 0 0 0 0 0 0 0 0 0 0 0 0 0 0 0 0 0 0 0 0 0 0 1 4 1 5 9 2 4 0 0 0 0 0 0 0 0 0 0 0 0 0
0 0 0 0 0 0 0 0 0 0 0 0 0 0 0 0 0 0 0 0 0 0 0 0 0 0 0 0 0 10 0 3 2 2 0 0 0 0 0 0 0 0 0 0 0
0 0 0 0 0 0 0 0 0 0 0 0 0 0 0 0 0 0 0 0 0 0 0 0 0 0 0 0 0 0 0 0 6 3 1 0 0 0 0 0 0 0 0 0 0
0 0 0 0 0 0 0 0 0 0 0 0 0 0 0 0 0 0 0 0 0 0 0 0 0 0 0 0 0 0 0 0 0 0 5 0 0 0 0 0 0 0 0 0 0
0 0 0 0 0 0 0 0 0 0 0 0 0 0 0 0 0 0 0 0 0 0 0 0 0 0 0 0 0 0 0 0 0 0 0 2 0 0 0 0 0 0 0 0 0

GFSSW_con_sbcape_081.txt.gz
CAPE
33 27 12 37 44 34 18 10 1 1 16 95 101 186 185 124 48 58 1 0 2 77 84 13 76 236 50 48 43 0 5 5 0 0 0 0 0 0 0 0 0 9 61 176 567
30 21 22 22 31 15 8 7 2 3 15 22 73 141 143 127 4 0 1 131 131 70 47 2 32 46 175 27 35 37 4 0 0 0 0 0 0 0 0 0 0 0 0 0 815
29 8 20 26 12 9 4 16 16 3 19 30 54 84 119 46 10 1 40 76 177 114 38 30 0 1 34 26 1 10 2 0 0 0 0 0 0 0 0 0 0 0 0 0 57
29 12 13 15 13 6 1 23 10 1 31 48 61 106 57 0 6 25 94 82 65 76 46 21 2 0 12 38 0 31 0 18 19 0 0 0 0 0 0 0 0 0 0 0 0
28 11 12 10 12 5 2 6 9 2 49 99 87 53 1 0 0 0 24 2 3 71 60 14 1 1 10 18 0 2 19 52 5 0 0 0 0 0 0 0 0 0 0 0 39
20 19 25 9 10 9 4 2 1 3 25 87 118 51 0 0 0 0 0 1 4 85 59 23 3 0 4 45 13 7 39 29 0 0 0 0 0 0 0 0 0 0 0 0 0
20 19 15 24 15 12 6 1 0 0 6 85 100 0 0 0 0 0 0 0 9 114 54 67 0 35 14 62 11 0 44 14 1 0 0 0 0 0 0 0 0 0 0 0 0
11 18 3 12 15 9 9 0 0 0 0 63 33 0 0 0 0 0 0 0 16 130 111 138 1 0 5 0 7 49 23 11 0 0 0 0 0 0 0 0 0 0 0 0 0
16 16 8 8 8 6 0 0 0 0 0 0 0 0 0 0 0 0 14 0 21 96 86 83 15 0 0 11 29 23 8 0 2 0 0 0 0 0 0 0 0 0 0 0 0
4 15 14 7 4 4 0 0 0 0 0 0 0 0 0 0 14 17 11 3 9 75 53 51 10 0 1 1 1 7 15 4 1 0 0 0 0 0 0 0 0 0 0 0 0
4 9 14 2 4 2 0 0 0 0 0 0 0 0 0 0 0 12 0 0 3 44 0 23 5 13 0 0 0 0 11 1 0 0 0 0 0 0 0 0 0 0 0 0 0
8 5 10 1 5 0 0 0 0 0 0 0 0 0 0 0 0 0 15 1 9 8 10 3 25 0 0 2 1 0 1 0 0 0 3 0 0 0 0 0 0 0 0 0 0
8 2 11 1 6 0 0 0 0 0 0 7 1 0 0 0 0 0 20 14 3 2 6 3 4 0 7 6 4 0 0 0 0 0 0 0 0 0 0 0 0 0 0 0 0
8 2 1 2 0 0 0 0 0 0 0 11 17 3 0 0 0 11 4 0 1 9 3 15 14 0 13 2 0 0 0 0 0 0 9 0 5 0 0 0 0 0 0 0 0
3 0 1 0 0 0 0 0 0 0 0 0 23 5 0 0 0 2 0 1 0 2 2 3 15 10 18 0 0 0 0 0 0 0 0 0 0 0 0 0 0 0 0 0 0
2 0 1 0 0 0 0 0 0 0 0 1 16 22 2 1 4 14 0 0 0 1 6 3 0 3 0 0 0 0 0 0 0 0 0 0 0 0 0 0 0 0 0 0 0
2 0 0 0 0 0 0 0 0 0 0 0 0 2 4 0 0 9 7 0 0 1 0 3 1 0 0 4 8 8 0 1 1 1 0 0 0 0 0 0 0 0 0 0 0
0 0 0 0 0 0 0 0 0 0 0 0 0 1 9 0 0 0 10 0 0 0 2 1 5 1 0 0 2 0 0 0 0 0 0 0 0 0 0 0 0 0 0 0 0
0 0 0 0 0 0 0 0 0 0 0 0 0 12 0 16 1 0 19 0 0 0 0 0 1 0 0 0 0 0 0 0 0 0 0 0 0 0 0 0 0 0 0 0 0
0 0 0 0 0 0 0 0 0 0 0 0 0 0 1 2 1 5 0 0 0 0 0 0 1 0 0 0 0 0 0 0 1 0 0 0 0 0 0 0 0 0 0 0 0
0 0 0 0 0 0 0 0 0 0 0 0 0 0 0 0 0 0 0 0 0 0 0 0 0 5 0 4 8 11 4 0 0 0 0 0 0 0 0 0 0 0 0 0 0
0 0 0 0 0 0 0 0 0 0 0 0 0 0 0 0 3 0 0 0 0 0 0 0 0 0 0 0 0 1 0 3 10 0 0 0 0 0 0 0 0 0 0 0 0
0 0 0 0 0 0 0 0 0 0 0 0 0 0 0 0 0 0 0 0 0 0 0 0 0 1 2 1 1 7 0 5 0 0 0 0 0 0 0 0 0 0 0 0 0
0 0 0 0 0 0 0 0 0 0 0 0 0 0 0 0 0 0 0 0 0 0 0 0 0 0 0 0 0 1 0 2 5 2 0 0 0 0 0 0 0 0 0 0 0
0 0 0 0 0 0 0 0 0 0 0 0 0 0 0 1 0 0 0 0 0 0 4 1 2 0 0 0 0 0 0 0 0 0 0 0 0 0 0 0 0 0 0 0 0
0 0 0 0 0 0 0 0 0 0 0 0 0 0 0 0 11 0 1 0 0 0 0 0 0 0 0 0 0 0 0 0 0 0 0 0 0 0 0 0 0 0 0 0 0
0 0 0 0 0 0 0 0 0 0 0 0 0 0 0 0 0 1 0 0 1 0 0 0 0 0 0 0 0 0 0 0 0 0 0 1 0 0 0 0 0 0 0 0 0

GFSSW_con_sbcape_084.txt.gz
CAPE
28 24 24 26 16 11 5 4 5 3 3 16 65 165 172 195 135 18 15 16 49 12 51 139 165 257 462 301 196 28 141 100 59 27 5 0 0 0 0 0 0 0 0 0 478
31 23 26 23 11 8 7 16 17 5 3 31 85 128 140 149 44 5 8 86 131 153 61 104 123 184 243 277 253 130 95 57 64 25 25 6 0 4 0 0 0 0 0 0 1019
40 17 19 16 7 6 2 17 3 4 7 19 82 145 157 137 60 44 30 96 138 112 53 87 95 139 73 231 143 117 2 48 44 0 20 36 21 0 0 0 0 0 0 0 85
27 10 21 19 9 5 2 3 5 6 22 84 90 139 78 30 34 10 56 63 63 12 60 117 112 95 80 58 138 126 88 41 102 104 84 72 6 0 0 0 0 0 0 0 0
23 18 26 17 5 4 3 1 2 3 37 78 106 87 14 0 11 5 34 2 6 10 62 69 83 38 4 25 88 84 123 95 41 29 34 24 33 5 0 0 0 0 0 0 0
23 19 12 26 16 7 1 1 0 0 0 102 127 31 0 3 0 0 0 0 7 81 86 48 74 20 45 90 101 11 121 132 49 28 5 28 19 3 0 0 0 0 0 0 0
17 23 14 9 20 9 11 0 0 0 0 96 90 0 42 14 3 1 0 0 0 90 84 47 45 80 37 114 61 54 88 129 74 69 52 0 0 0 0 0 0 0 0 0 0
13 15 15 6 9 8 5 0 0 0 0 1 37 0 34 0 33 16 11 3 80 108 55 63 39 60 84 66 103 75 53 87 99 47 25 5 12 15 0 0 0 0 0 0 0
6 12 12 10 7 6 1 0 0 0 0 0 0 0 0 10 21 2 14 3 81 99 80 53 56 45 80 129 118 97 25 30 72 54 32 2 6 3 0 0 0 0 0 0 0
7 8 13 7 4 3 0 0 0 0 0 0 0 0 0 22 7 4 14 4 66 86 54 33 61 90 86 122 46 14 36 33 27 4 0 2 1 0 0 0 0 0 0 0 0
8 5 9 5 3 2 0 0 0 0 0 0 1 0 6 18 6 15 0 2 55 51 12 3 38 37 5 73 13 37 42 42 20 2 8 1 0 0 0 0 0 0 1 0 0
6 6 5 6 2 0 0 0 0 0 0 1 2 5 0 0 0 22 1 0 16 27 6 5 10 29 8 29 6 24 26 10 0 0 18 3 0 0 0 0 0 0 0 0 0
2 4 6 1 1 0 0 0 0 0 5 3 7 0 0 2 5 22 18 5 6 12 9 7 3 18 18 14 18 13 14 3 0 0 23 0 0 0 0 0 0 0 0 0 0
1 4 1 0 0 0 0 0 0 0 38 1 15 5 0 0 11 20 26 0 6 2 2 7 2 2 30 15 11 19 0 0 1 16 15 3 1 0 0 0 0 0 0 0 0
1 1 1 0 0 0 0 0 0 0 5 0 14 19 0 0 1 15 27 15 2 2 4 10 5 6 34 27 19 16 0 11 10 40 20 2 16 0 0 0 0 0 0 0 0
1 0 1 0 0 0 0 0 0 2 0 1 12 23 19 6 2 4 29 4 8 3 4 2 1 16 16 19 15 2 6 6 6 24 18 3 15 0 0 0 0 0 0 0 0
0 2 0 0 0 0 0 0 10 1 0 0 1 5 6 9 9 9 24 13 15 2 2 4 21 16 14 60 36 55 67 42 54 49 7 0 0 0 0 0 0 0 0 0 0
0 1 0 0 0 0 0 0 1 0 0 0 0 0 26 1 6 3 9 7 0 3 11 22 12 20 14 25 29 25 31 15 1 1 1 0 0 0 0 0 0 0 0 0 0
0 0 0 0 0 0 0 4 0 0 0 0 0 9 6 19 16 9 2 3 1 1 37 17 3 0 2 0 19 38 57 0 6 0 1 0 0 0 0 0 0 0 0 0 0
0 0 0 0 0 0 0 0 0 0 0 0 0 0 4 7 0 3 8 0 0 0 0 0 4 11 1 1 1 33 3 20 33 21 7 0 0 0 0 0 0 0 0 0 0
0 0 0 0 0 0 2 0 0 0 0 0 0 0 0 4 6 0 0 0 0 0 0 0 0 12 12 27 29 3 16 14 6 15 15 0 0 0 0 0 0 0 0 0 0
0 0 1 0 0 0 0 0 0 0 0 0 0 0 0 0 17 9 8 0 0 0 0 0 0 7 3 2 2 20 15 26 26 4 5 1 0 0 0 0 0 0 0 0 0
0 0 0 1 0 0 0 0 0 0 0 0 0 0 0 0 8 10 9 0 0 0 2 0 26 9 13 7 6 28 13 11 18 1 10 8 0 0 0 0 0 0 0 0 0
0 0 0 0 0 0 0 0 0 0 0 0 0 0 0 0 4 17 4 0 0 4 0 1 4 0 4 0 0 2 4 14 21 43 8 9 0 0 0 0 0 0 0 0 0
0 0 0 0 0 0 0 0 0 0 0 0 0 0 3 7 14 28 22 15 0 1 8 0 14 2 0 0 0 0 0 6 11 7 15 0 0 0 0 0 0 0 0 0 0
0 0 0 0 0 0 0 0 0 0 0 0 0 0 0 6 49 100 3 11 75 0 33 5 14 5 4 2 0 0 0 0 0 0 0 0 0 0 0 0 0 0 0 0 0
0 0 0 0 0 0 0 0 0 0 0 0 0 0 0 0 0 4 6 3 3 21 17 3 2 3 23 1 3 5 0 0 0 0 0 3 0 0 0 0 0 0 0 0 0

GFSSW_con_sbcape_087.txt.gz
CAPE
41 21 24 18 10 8 7 19 19 9 6 27 75 133 198 262 241 165 83 7 79 120 121 199 216 52 168 190 202 168 235 128 70 62 16 0 0 0 0 9 11 0 28 94 577
35 13 18 11 12 5 4 24 7 7 7 33 83 144 188 218 198 73 35 31 66 184 251 191 125 57 141 66 172 182 168 47 34 62 73 26 0 0 0 0 8 4 25 570 1115
33 18 26 11 13 6 4 6 14 10 23 97 99 137 172 191 124 102 45 53 103 110 40 207 123 44 31 107 52 128 80 96 109 45 58 59 17 0 0 2 0 0 18 432 1296
27 27 12 25 9 7 7 7 7 7 51 118 136 122 136 157 18 17 91 100 99 8 38 239 126 38 24 68 70 112 119 69 70 13 6 42 21 5 0 11 0 0 3 338 496
26 29 15 17 33 9 5 6 4 2 12 124 160 108 90 53 11 0 8 1 12 7 154 242 81 54 7 37 122 105 53 71 92 72 54 34 17 21 24 0 0 0 0 66 376
23 21 17 4 18 17 13 13 2 0 0 107 129 79 72 37 10 11 4 0 9 100 144 164 79 57 28 26 72 105 83 74 89 82 74 89 78 43 1 0 0 0 0 3 0
11 17 18 16 5 15 11 11 0 0 0 21 112 13 64 37 28 15 2 0 0 110 134 118 78 17 26 54 66 84 76 92 41 72 76 73 58 19 24 0 0 0 0 0 0
11 14 16 16 4 7 6 1 0 0 0 0 7 10 19 10 42 39 25 14 77 79 49 58 71 110 101 91 76 50 71 75 62 90 73 40 0 18 10 4 0 0 0 0 0
11 8 13 12 2 4 4 0 0 0 0 0 2 3 22 36 11 7 6 35 57 84 97 66 64 45 103 95 94 74 37 61 61 68 71 38 0 6 45 3 0 0 0 0 0
15 7 10 14 4 0 0 0 0 0 0 0 1 2 11 12 3 4 0 38 41 72 1 10 57 55 66 74 22 26 33 43 50 62 50 62 3 48 17 0 0 0 0 0 0
5 3 11 12 1 1 0 0 0 6 0 2 14 12 13 22 11 5 0 48 48 53 7 8 38 27 13 36 41 18 42 39 39 31 31 15 33 14 15 0 0 0 0 0 0
7 3 8 10 0 0 0 0 0 0 12 2 1 4 0 2 15 9 13 31 22 31 21 11 62 15 23 43 37 67 56 59 26 27 0 8 8 0 2 1 0 0 0 0 1
3 2 6 2 0 0 0 0 0 0 15 0 0 2 0 0 7 27 14 5 22 14 19 12 20 8 24 30 38 32 43 44 26 0 7 11 2 0 0 0 0 0 0 0 0
3 1 1 0 0 0 0 0 0 0 21 3 3 4 3 0 8 11 18 30 16 4 1 0 0 0 21 21 8 34 21 6 0 17 30 2 0 0 0 0 0 0 0 0 0
4 1 0 0 0 1 0 0 0 0 8 0 9 1 0 4 0 20 27 31 11 4 26 19 8 9 22 5 1 50 26 23 27 28 31 29 15 0 1 0 0 0 0 0 0
2 1 0 0 4 0 0 0 0 4 0 0 6 9 6 0 0 4 14 11 16 14 13 3 4 11 27 42 24 22 14 34 36 50 40 12 16 0 1 0 0 0 0 0 0
0 0 1 0 2 0 0 1 0 12 0 0 6 9 0 4 4 1 12 18 33 39 50 6 32 28 11 42 34 27 26 54 39 40 7 0 2 1 0 0 0 0 0 0 0
0 0 0 0 1 0 6 0 3 0 0 0 0 2 3 1 3 0 10 15 11 7 35 30 33 20 12 33 20 11 38 33 21 19 6 0 0 0 0 0 0 0 0 0 0
0 2 6 1 4 3 3 2 0 0 0 0 9 11 16 7 8 12 13 11 11 8 49 65 101 7 0 30 38 29 88 43 27 2 1 3 0 0 0 0 0 0 0 0 0
0 1 5 0 2 7 0 0 0 0 0 0 7 2 5 15 11 16 7 0 6 0 15 18 21 9 7 4 14 35 14 32 47 19 9 0 0 0 0 0 0 0 0 0 0
0 0 5 1 3 0 0 0 0 0 0 1 0 0 0 8 27 13 6 2 1 0 0 10 16 19 13 23 3 12 11 14 12 6 24 18 5 0 0 0 0 0 0 0 0
0 0 6 6 0 0 0 0 0 0 0 0 0 0 0 6 13 35 13 32 2 13 6 1 36 93 3 1 14 7 5 9 65 21 15 2 1 0 0 0 0 0 0 0 0
0 0 0 3 0 0 0 0 0 0 0 0 0 0 0 2 15 18 48 45 35 68 19 5 46 29 43 30 15 35 33 28 21 35 69 20 1 0 0 0 0 0 0 0 0
0 0 0 0 0 0 0 0 0 0 0 0 0 1 7 15 26 30 41 51 36 41 78 38 27 6 22 4 0 3 1 3 35 56 8 14 0 0 0 0 0 0 0 0 0
0 0 0 0 0 0 0 0 0 0 0 0 0 6 13 18 15 5 30 48 61 78 51 9 13 12 13 0 0 0 0 0 5 6 24 3 9 0 0 0 0 0 0 0 0
0 0 0 0 0 0 0 0 0 0 0 0 0 0 0 0 0 0 8 4 53 50 7 13 8 6 5 4 0 0 0 0 4 6 12 16 2 0 0 0 0 0 0 0 0
0 0 0 0 0 0 0 0 0 0 0 0 0 0 0 0 0 0 0 9 9 3 21 7 4 13 39 12 11 12 0 0 0 0 0 4 0 0 0 0 0 0 0 0 0

GFSSW_con_sbcape_090.txt.gz
CAPE
35 38 21 20 15 10 3 25 11 9 17 58 91 141 181 254 255 217 115 131 125 188 80 1 18 42 67 140 229 172 138 12 27 41 0 0 0 0 0 5 17 34 61 495 1509
33 37 16 17 6 14 9 4 20 10 43 95 133 131 178 217 196 107 201 124 97 176 80 32 93 151 16 9 121 158 84 43 15 19 3 0 0 0 1 5 13 98 676 1081 1301
29 34 25 37 14 12 11 7 10 11 34 124 165 151 163 129 68 11 105 177 81 67 13 13 96 92 200 3 32 93 2 49 139 147 67 19 2 0 0 17 8 0 605 1200 1411
22 34 30 16 33 19 13 6 9 5 14 57 180 164 110 73 10 0 44 51 77 35 0 56 54 74 24 0 6 28 19 28 185 113 79 83 58 0 2 0 0 7 563 998 1499
15 25 25 19 6 27 17 19 4 4 0 27 173 157 90 23 5 1 1 0 0 0 0 156 62 74 23 16 0 1 0 84 88 61 37 23 25 27 1 0 0 0 337 656 897
5 17 21 23 4 10 21 12 8 0 0 0 109 134 99 1 10 7 0 0 0 23 96 156 68 50 40 80 48 0 0 8 70 95 13 3 32 33 0 0 0 0 0 188 632
12 7 11 21 4 7 13 9 3 0 0 0 58 30 0 0 9 8 2 0 0 59 131 155 82 112 33 21 97 28 0 50 40 57 68 46 20 13 2 0 0 0 0 0 2
13 9 10 19 5 5 7 4 0 0 0 12 38 12 1 0 2 2 4 0 20 96 81 37 20 34 34 18 26 61 52 11 3 55 69 52 0 16 48 3 0 0 0 0 0
10 6 5 6 7 2 3 1 0 0 0 0 0 8 0 6 3 0 2 25 64 43 6 1 13 1 43 11 5 9 33 4 9 21 58 63 15 15 51 7 0 0 0 0 0
3 2 3 5 4 0 1 0 0 0 0 0 5 1 0 0 0 2 0 28 44 0 0 0 0 0 0 31 0 0 3 19 18 55 36 45 1 0 20 14 0 0 0 0 0
4 2 6 9 5 0 0 0 0 0 0 0 0 2 0 0 2 3 0 35 9 0 0 0 8 1 0 0 5 6 5 1 2 86 33 6 0 0 8 4 0 0 0 0 0
3 3 3 5 0 0 0 0 0 0 0 0 0 0 0 0 9 0 2 16 17 0 4 6 13 1 19 16 17 9 0 0 7 54 43 14 0 0 0 0 0 0 0 0 0
1 2 2 1 0 0 0 0 0 0 5 0 0 0 0 0 4 3 0 7 5 8 14 0 19 8 16 32 28 24 8 23 17 3 0 0 0 0 0 0 0 0 0 0 0
0 2 1 0 0 0 0 0 0 0 0 0 0 1 0 0 0 0 0 2 1 8 0 4 4 0 19 21 8 21 20 3 5 8 0 0 0 0 0 0 0 0 0 0 0
0 1 0 0 0 0 0 0 0 0 0 0 1 0 0 0 0 1 0 0 0 0 7 12 1 1 25 5 2 20 23 8 3 1 5 4 4 0 0 0 0 0 0 0 0
0 0 0 0 5 0 0 0 0 1 0 0 1 4 4 0 0 0 1 3 7 6 1 1 0 3 9 28 13 50 28 22 11 9 3 0 1 0 0 0 0 0 0 0 0
0 0 0 1 0 0 0 0 2 0 0 0 1 2 0 0 1 0 12 5 4 4 0 1 0 0 2 14 17 35 20 17 20 15 0 0 0 0 0 0 0 0 0 0 0
0 0 0 1 0 0 0 0 0 0 0 0 0 1 1 0 1 0 1 0 0 2 2 0 1 0 0 8 0 13 11 5 5 0 0 0 0 0 0 0 0 0 0 0 0
0 1 2 0 0 0 0 0 0 0 0 0 2 3 6 1 0 2 0 0 0 2 25 3 0 0 0 2 3 0 0 8 0 6 0 0 0 0 0 0 0 0 0 0 0
0 1 2 0 0 1 0 0 0 0 0 0 0 0 1 8 8 13 8 0 0 8 34 24 9 1 1 2 5 23 1 13 1 0 0 0 0 0 0 0 0 0 0 0 0
0 2 0 2 3 0 0 0 0 0 0 0 0 0 0 0 6 11 16 4 3 7 23 34 8 14 0 3 5 6 28 14 1 0 0 1 1 0 0 0 0 0 0 0 0
0 2 1 4 3 0 1 0 0 0 0 0 0 0 0 0 0 3 36 16 66 44 3 1 4 3 1 0 0 2 3 3 3 0 0 0 0 0 0 0 0 0 0 0 0
0 1 0 2 1 0 0 0 0 0 0 0 0 0 0 0 1 0 12 81 66 56 3 1 1 6 54 6 17 17 0 1 0 0 0 0 0 0 0 0 0 0 0 0 0
0 0 0 0 0 0 0 0 0 0 0 0 0 0 0 0 0 8 20 34 51 45 172 15 5 0 0 0 0 3 0 0 6 5 0 0 0 0 0 0 0 0 0 0 0
0 0 0 0 0 0 0 0 0 0 0 0 0 0 0 0 0 0 0 0 0 2 33 1 0 2 0 13 0 0 0 6 5 0 0 0 0 0 0 0 0 0 0 0 0
0 0 0 0 0 0 0 0 0 0 0 0 0 0 0 0 0 0 0 0 0 0 3 8 5 0 0 11 3 0 0 2 0 0 0 0 0 0 0 0 0 0 0 0 0
0 0 0 0 0 0 0 0 0 0 0 0 0 0 0 0 0 0 0 0 1 0 0 2 4 7 5 2 1 3 0 0 0 0 0 0 0 0 0 0 0 0 0 0 0

GFSSW_con_sbcape_093.txt.gz
CAPE
20 21 22 27 6 10 15 11 8 6 24 101 120 161 204 252 277 135 102 117 130 190 285 3 3 0 26 51 142 92 59 14 0 3 0 0 0 0 0 4 131 1 154 1131 1454
12 18 23 12 35 10 14 13 9 4 15 63 162 220 200 204 113 0 54 304 228 179 43 43 43 49 5 33 100 73 39 30 0 31 0 0 0 0 0 0 388 931 819 1301 1358
8 16 14 22 11 38 23 19 12 5 3 25 119 224 188 90 27 0 22 163 178 104 23 7 11 22 8 31 56 64 8 43 50 123 113 0 0 0 4 0 11 816 1114 1316 1406
6 13 13 22 9 6 38 18 28 4 3 0 105 211 220 0 0 0 23 1 25 1 23 11 9 39 29 1 15 62 3 25 38 70 37 56 9 0 0 0 0 832 1182 1480 1497
8 6 11 14 15 5 15 16 20 4 0 0 43 157 61 1 0 0 6 0 0 0 0 41 5 20 36 1 5 0 0 22 4 55 35 85 47 1 0 0 1 837 1066 1503 1536
10 8 4 8 5 5 6 4 12 2 0 0 44 103 18 0 0 0 0 0 0 0 20 49 10 34 11 5 0 0 0 0 0 2 25 30 60 3 0 0 0 536 768 933 1403
14 10 6 7 3 2 3 4 5 0 0 0 46 28 0 0 0 0 0 0 0 8 66 71 46 32 7 10 32 6 19 0 0 2 8 8 18 0 0 0 0 0 218 671 798
13 10 6 7 3 1 0 0 2 0 0 0 20 5 0 0 0 0 0 0 8 22 34 1 1 13 14 12 47 54 0 0 0 2 1 6 0 15 0 0 0 0 0 0 67
8 6 4 3 4 0 0 0 0 0 0 3 0 0 0 0 0 0 0 32 6 1 0 0 4 3 9 0 8 0 4 1 0 1 9 26 6 0 1 3 0 0 0 0 0
8 7 2 3 7 0 0 0 0 0 0 0 0 0 0 0 0 0 0 1 0 0 0 0 0 0 0 0 0 0 0 1 0 0 2 1 0 3 0 0 0 0 0 0 0
5 3 2 2 4 0 0 0 0 0 0 0 0 0 0 0 0 0 0 2 0 0 0 0 0 0 0 0 0 2 11 11 16 32 4 18 9 7 0 0 0 0 0 0 0
3 1 1 2 0 0 0 0 0 0 0 0 0 0 0 0 0 0 0 0 0 0 0 0 0 0 0 0 0 0 0 2 24 122 38 2 0 0 0 0 0 0 0 0 0
0 0 0 0 0 0 0 0 0 0 0 0 0 0 0 0 0 0 0 0 0 0 1 0 0 0 0 3 0 0 0 0 2 20 5 0 0 0 0 0 0 0 0 0 0
0 0 0 0 0 0 0 0 0 0 0 0 0 0 0 0 0 0 0 0 0 0 0 0 0 0 0 3 4 16 28 24 3 0 0 0 0 0 0 0 0 0 0 0 0
0 0 0 0 0 0 0 0 0 0 0 0 0 0 0 0 0 0 0 0 0 0 0 0 0 0 0 0 0 2 1 9 0 0 0 0 0 0 0 0 0 0 0 0 0
0 0 0 0 0 0 0 0 0 0 0 0 0 0 3 0 0 0 0 0 0 0 0 0 0 0 0 4 3 15 9 0 0 0 0 0 0 0 0 0 0 0 0 0 0
0 0 0 0 0 0 0 0 0 0 0 0 0 0 0 0 0 0 0 0 0 0 0 0 0 0 0 0 9 19 30 1 0 0 0 0 0 0 0 0 0 0 0 0 0
0 0 0 0 0 0 0 0 0 0 0 0 0 0 0 0 0 0 0 14 2 2 0 0 0 0 0 0 0 0 1 0 0 0 0 0 0 0 0 0 0 0 0 0 0
0 0 0 0 0 0 0 0 0 0 0 0 0 0 0 0 0 0 0 0 0 0 20 0 0 0 0 0 0 0 7 0 0 0 0 0 0 0 0 0 0 0 0 0 0
0 0 0 0 0 0 0 0 0 0 0 0 0 0 0 0 0 0 0 0 0 0 0 14 1 0 0 3 1 3 0 14 0 0 0 0 0 0 0 0 0 0 0 0 0
0 0 0 0 0 0 0 0 0 0 0 0 0 0 0 0 0 0 1 0 14 7 0 32 18 6 8 2 0 0 2 15 0 0 0 0 0 0 0 0 0 0 0 0 0
0 0 1 0 0 0 0 0 0 0 0 0 0 0 0 0 0 0 12 39 47 32 8 1 20 6 71 0 2 2 0 1 0 0 0 0 0 0 0 0 0 0 0 0 0
0 2 1 1 0 0 0 0 0 0 0 0 0 0 0 0 0 0 0 10 8 26 24 7 2 6 5 8 8 6 3 1 0 0 0 0 0 0 0 0 0 0 0 0 0
0 0 0 2 0 0 0 0 0 0 0 0 0 0 0 0 0 0 0 0 0 0 72 6 0 1 0 0 0 3 0 1 0 0 0 0 0 0 0 0 0 0 0 0 0
0 0 0 0 0 0 0 0 0 0 0 0 0 0 0 0 0 0 0 0 0 0 12 0 9 8 1 1 4 6 0 6 0 0 0 0 0 0 0 0 0 0 0 0 0
0 0 0 0 0 0 0 0 0 0 0 0 0 0 0 0 0 0 0 0 0 0 0 2 9 5 0 0 3 3 3 0 4 0 0 0 0 0 0 0 0 0 0 0 0
0 0 0 0 0 0 0 0 0 0 0 0 0 0 0 0 0 0 0 0 0 0 0 0 0 0 0 4 0 1 0 0 0 0 0 0 0 0 0 0 0 0 0 0 0

GFSSW_con_sbcape_096.txt.gz
CAPE
14 22 27 23 15 20 5 7 9 9 9 35 35 123 179 150 150 16 27 53 190 118 162 169 3 41 12 80 8 143 55 1 0 0 0 0 0 0 1 54 155 29 561 694 964
8 10 27 29 11 10 27 10 15 5 7 8 24 121 217 205 3 0 0 164 219 108 29 58 68 25 40 0 52 54 1 3 11 12 0 0 0 0 16 187 541 752 1315 1309 932
9 11 16 21 18 5 11 14 11 16 7 3 0 79 183 68 0 0 0 102 114 25 29 41 2 37 36 58 29 83 4 39 43 149 96 0 0 4 10 2 485 818 972 1083 753
7 8 8 21 24 9 6 9 13 16 9 0 0 61 128 0 0 0 13 29 18 0 8 18 6 50 37 1 25 44 29 66 38 79 60 48 4 0 0 0 339 873 1019 1160 950
8 7 6 9 18 4 5 3 3 16 7 0 9 54 12 0 0 0 9 0 0 1 7 0 21 33 41 47 38 6 3 0 2 3 0 20 0 0 0 0 767 1153 1252 1288 989
4 12 6 8 16 3 3 2 3 8 2 0 10 30 0 0 0 0 0 0 0 0 0 0 13 4 9 55 0 0 8 0 0 0 16 7 0 0 0 0 793 1046 1162 1282 1168
2 7 5 7 7 4 1 0 0 2 0 0 0 0 0 0 0 0 0 0 0 15 0 0 0 3 2 13 3 11 4 0 0 1 0 1 0 0 0 0 408 742 886 1014 1196
3 2 1 4 5 3 0 0 0 0 0 0 0 0 0 0 0 0 0 5 1 11 16 7 3 1 1 3 0 0 0 6 5 6 9 0 7 0 0 0 0 39 286 658 838
3 0 0 1 7 4 0 0 0 0 0 0 0 0 0 0 0 0 0 4 0 0 0 0 0 0 4 10 2 0 3 4 5 12 38 0 0 0 0 0 0 0 0 49 266
2 0 0 0 1 3 0 0 0 0 0 0 0 0 0 0 0 0 0 0 0 0 0 0 0 0 0 0 1 0 0 0 0 10 35 15 0 0 0 0 0 0 0 0 0
1 0 0 0 2 1 0 0 0 0 0 0 0 0 0 0 0 0 0 0 0 0 0 0 0 0 0 0 0 0 6 5 0 0 9 0 0 1 0 0 0 0 0 0 0
1 0 0 0 0 0 0 0 0 0 0 0 0 0 0 0 0 0 0 0 0 0 0 0 0 0 0 0 0 0 0 0 0 9 0 1 0 0 1 0 0 0 0 0 0
0 0 0 0 0 0 0 0 0 0 0 0 0 0 0 0 0 0 0 0 0 0 0 0 0 0 0 0 0 0 0 0 0 5 0 0 0 1 0 0 0 0 0 0 0
0 0 0 0 0 0 0 0 0 0 0 0 0 0 0 0 0 0 0 0 0 0 0 0 0 0 0 3 0 0 0 0 3 0 0 0 0 0 0 0 0 0 0 0 0
0 0 0 0 0 0 0 0 0 0 0 0 0 0 0 0 0 0 0 0 0 0 0 0 0 0 0 0 0 0 0 0 1 0 0 0 0 0 0 0 0 0 0 0 0
0 0 0 0 0 0 0 0 0 0 0 0 0 0 0 0 0 0 0 0 0 0 0 0 0 0 0 0 0 0 0 0 0 0 0 0 0 0 0 0 0 0 0 0 0
2 0 0 0 0 0 0 0 0 0 0 0 0 0 0 0 0 0 0 0 0 0 0 0 0 0 0 0 1 7 7 0 11 0 0 0 0 0 0 0 0 0 0 0 0
4 1 0 0 0 0 0 0 0 0 0 0 0 0 0 0 0 0 0 0 0 0 0 0 0 0 0 0 0 0 0 0 0 0 0 0 0 0 0 0 0 0 0 0 0
12 0 0 0 0 0 0 0 0 0 0 0 0 0 0 0 0 0 0 0 0 0 3 0 0 0 0 0 0 1 0 0 0 0 0 0 0 0 0 0 0 0 0 0 0
0 0 0 0 0 0 0 0 0 0 0 0 0 0 0 0 0 0 0 0 0 0 0 1 14 0 0 7 5 0 0 0 0 0 0 0 0 0 0 0 0 0 0 0 0
0 0 0 0 0 0 0 0 0 0 0 0 0 0 0 0 0 0 0 0 5 0 0 4 12 1 24 10 0 1 1 0 0 0 0 0 0 0 0 0 0 0 0 0 0
0 2 0 0 0 0 0 0 0 0 0 0 0 0 0 0 0 0 0 10 24 36 35 21 81 16 0 21 0 3 0 4 0 0 0 0 0 0 0 0 0 0 0 0 0
0 4 0 0 0 0 0 0 0 0 0 0 0 0 0 0 0 0 0 0 0 7 38 50 6 0 2 5 3 13 1 1 0 0 0 0 0 0 0 0 0 0 0 0 0
0 1 0 10 0 0 0 0 0 0 0 0 0 0 0 0 0 0 0 0 0 0 48 39 0 6 1 8 6 4 7 7 1 0 0 0 0 0 0 0 0 0 0 0 0
0 0 0 0 0 0 0 0 0 0 0 0 0 0 0 0 0 0 0 0 0 0 0 1 4 0 1 1 5 5 3 7 1 0 0 0 0 0 0 0 0 0 0 0 0
0 0 0 0 0 0 0 0 0 0 0 0 0 0 0 0 0 0 0 0 0 0 0 0 5 0 0 0 0 0 8 15 9 2 2 0 0 0 0 0 0 0 0 0 0
0 0 0 0 0 0 0 0 0 0 0 0 0 0 0 0 0 0 0 0 0 0 0 0 0 0 0 0 0 0 0 1 0 0 0 1 0 0 0 0 0 0 0 0 0

GFSSW_con_sbcape_099.txt.gz
CAPE
6 7 16 24 30 12 35 26 19 20 9 11 10 7 104 157 83 0 0 4 115 144 26 16 127 77 29 0 0 90 133 0 0 0 0 0 0 0 41 68 251 202 647 839 669
7 8 5 14 24 17 6 24 24 12 15 5 3 5 53 112 0 0 0 127 145 75 1 56 86 119 1 0 0 42 51 1 15 43 0 0 6 0 106 494 503 938 1138 1002 743
7 6 7 5 16 19 10 11 24 14 12 4 0 8 52 2 0 0 3 62 91 35 5 78 61 45 17 0 3 33 38 40 51 186 50 0 0 0 189 237 632 1172 1303 876 764
11 9 7 5 4 16 8 10 13 9 9 4 8 19 16 0 0 0 28 17 21 16 0 1 32 65 16 0 6 32 49 65 34 55 38 25 0 0 0 21 158 1294 1285 1093 898
13 11 11 1 3 12 6 10 10 7 6 5 13 18 0 0 0 0 10 0 0 14 6 0 41 7 17 3 29 19 4 0 2 16 16 1 0 0 0 672 900 1109 1165 1208 1062
11 12 13 1 1 1 3 8 5 2 3 4 9 0 0 0 0 0 0 0 0 0 0 0 0 0 1 2 4 21 19 0 0 0 1 3 0 0 0 426 1107 983 1017 809 673
10 11 12 1 2 0 2 5 2 0 0 1 1 0 0 0 0 0 0 0 0 0 0 1 1 1 0 1 12 50 17 0 0 0 0 0 0 0 0 11 787 1026 776 657 536
6 10 6 3 1 0 0 1 0 0 0 0 0 0 0 0 0 0 0 4 0 2 2 0 3 0 1 14 75 26 4 3 2 0 0 0 0 0 0 0 0 53 326 501 749
3 8 7 6 1 0 0 0 0 0 0 0 0 0 0 0 0 0 0 0 0 0 0 0 0 0 0 14 0 4 5 4 4 10 0 0 0 0 0 0 0 0 0 83 277
3 4 5 0 2 0 0 0 0 0 0 0 0 0 0 0 0 0 0 0 0 0 0 0 0 0 0 0 0 0 0 4 2 14 2 0 0 0 0 0 0 0 0 0 0
2 3 4 0 0 0 0 0 0 0 0 0 0 0 0 0 0 0 0 0 0 0 0 0 0 0 0 0 0 0 0 0 0 0 5 3 0 11 0 0 0 0 0 0 0
12 5 1 0 0 0 0 0 0 0 0 0 0 0 0 0 0 0 0 0 0 0 0 0 0 0 0 0 0 0 0 0 0 0 25 4 0 10 0 0 0 0 0 0 0
12 6 0 0 0 0 0 0 0 0 0 0 0 0 0 0 0 0 0 0 0 0 0 0 0 0 0 0 0 0 0 0 0 0 3 0 0 0 0 0 0 0 0 0 0
10 10 0 0 0 0 0 0 0 0 0 0 0 0 0 0 0 0 0 0 0 0 0 0 0 0 0 0 0 0 0 0 0 0 1 0 0 0 0 0 0 0 0 0 0
17 20 0 3 0 0 0 0 0 0 0 0 0 0 0 0 0 0 0 0 0 0 0 0 0 0 0 0 0 0 0 0 13 0 0 0 0 0 0 0 0 0 0 0 0
22 13 6 1 0 0 0 0 0 0 0 0 0 0 0 0 0 0 0 0 0 0 0 0 0 0 0 0 0 0 0 0 0 0 5 0 0 0 0 0 0 0 0 0 0
18 24 11 0 0 0 0 0 0 0 0 0 0 0 0 0 0 0 0 0 0 0 0 0 0 0 0 0 0 1 0 7 18 4 0 0 0 0 0 0 0 0 0 0 0
60 10 4 0 0 0 0 0 0 0 0 0 0 0 0 0 0 0 0 0 0 0 0 0 0 0 0 0 0 0 0 0 1 0 0 0 0 0 0 0 0 0 0 0 0
57 0 0 0 0 0 0 0 0 0 0 0 0 0 0 0 0 0 0 0 0 0 0 0 0 0 0 0 0 1 0 0 0 0 0 0 0 0 0 0 0 0 0 0 0
16 2 0 0 0 0 0 0 0 0 0 0 0 0 0 0 0 0 0 0 0 0 0 0 7 0 0 3 1 0 0 0 0 0 0 0 0 0 0 0 0 0 0 0 0
41 36 3 0 0 0 0 0 0 0 0 0 0 0 0 0 0 0 0 0 2 0 0 1 5 0 20 13 1 4 1 0 0 0 0 0 0 0 0 0 0 0 0 0 0
36 44 0 0 0 0 0 0 0 0 0 0 0 0 0 0 0 0 0 0 0 12 6 11 8 1 0 8 3 5 23 1 0 0 0 0 0 0 0 0 0 0 0 0 0
31 10 2 0 1 3 0 0 0 0 0 0 0 0 0 0 0 0 0 0 0 0 12 17 10 2 0 38 7 86 0 17 0 0 0 0 0 0 0 0 0 0 0 0 0
0 2 1 2 0 1 0 0 0 0 0 0 0 0 0 0 0 0 0 0 0 0 17 13 0 9 0 2 14 17 12 13 2 0 0 0 0 0 0 0 0 0 0 0 0
0 0 0 2 1 1 0 0 0 0 0 0 0 0 0 0 0 0 0 0 0 0 0 0 1 2 0 1 15 1 9 31 0 0 0 0 0 0 0 0 0 0 0 0 0
0 0 0 0 0 0 0 0 0 0 0 0 0 0 0 0 0 0 0 0 0 0 0 0 0 0 0 0 0 0 0 6 14 5 2 0 0 0 0 0 0 0 0 0 0
0 0 0 0 0 0 0 0 0 0 0 0 0 0 0 0 0 0 0 0 0 0 0 0 0 0 0 0 0 0 0 0 2 1 1 0 0 0 0 0 0 0 0 0 0

GFSSW_con_sbcape_102.txt.gz
CAPE
6 9 14 14 30 26 12 5 24 19 23 20 5 1 9 56 73 0 0 1 75 136 30 0 84 177 102 21 9 2 13 9 0 0 0 0 2 0 7 46 113 3 222 511 754
6 9 9 15 18 32 17 10 9 23 18 14 2 5 41 74 0 0 0 96 122 47 1 61 102 110 16 4 0 0 30 10 6 0 3 0 12 125 314 397 429 862 1036 733 648
4 5 9 18 11 18 19 9 7 12 17 7 1 26 53 1 0 0 5 56 52 35 3 22 106 173 2 0 0 0 41 10 16 89 127 1 3 0 393 352 422 442 1285 1150 876
2 3 6 14 18 13 23 8 6 11 17 6 4 26 30 0 0 0 9 28 4 4 0 18 93 47 1 3 1 0 0 2 211 82 116 25 0 1 1 44 529 1197 1290 1068 434
1 2 1 11 10 10 13 9 5 7 11 3 18 26 0 0 0 0 0 0 0 18 0 6 59 24 3 3 0 0 5 17 15 23 17 11 0 0 0 152 1180 1247 1005 854 554
1 1 1 5 6 10 9 9 4 2 3 0 19 16 0 0 0 0 0 0 0 0 0 0 0 0 0 0 0 8 21 2 3 1 0 8 0 0 0 1 963 1165 1147 702 542
2 1 3 2 5 7 7 7 2 0 0 0 11 0 0 0 0 0 0 0 0 0 0 0 0 0 0 0 0 12 5 0 10 0 0 0 6 0 0 10 243 503 909 810 573
5 5 3 1 8 6 5 6 1 0 0 0 4 0 0 0 0 0 0 0 0 0 0 0 1 0 5 0 13 4 0 0 1 4 0 0 0 0 0 0 0 0 96 350 542
6 9 15 0 5 3 5 2 0 0 0 0 0 0 0 0 0 0 0 0 0 0 0 3 0 0 0 5 25 11 2 1 2 24 0 0 0 0 0 0 0 0 0 6 188
8 14 19 0 0 0 6 0 0 0 0 0 0 0 0 0 0 0 0 0 0 0 0 0 0 0 0 0 1 9 0 3 1 23 0 0 0 0 0 0 0 0 0 0 0
43 18 20 6 0 0 1 0 0 0 0 0 0 0 0 0 0 0 0 0 0 0 0 0 0 0 0 0 0 0 0 0 9 24 0 1 0 0 0 0 0 0 0 0 0
49 8 11 20 0 4 0 0 0 0 0 0 0 0 0 0 0 0 0 0 0 0 0 0 0 0 0 0 0 0 0 0 19 21 4 10 0 0 0 0 0 0 0 0 0
11 3 34 4 0 1 0 0 0 0 0 0 0 0 0 0 0 0 0 0 0 0 0 0 0 0 0 0 0 0 0 0 0 23 19 2 0 0 0 0 0 0 0 0 0
16 18 36 0 0 0 0 0 0 0 0 0 0 0 0 0 0 0 0 0 0 0 0 0 0 0 0 0 0 0 0 0 0 0 0 1 0 0 0 0 0 0 0 0 0
31 9 25 18 0 0 0 0 0 0 0 0 0 0 0 0 0 0 0 0 0 0 0 0 0 0 0 0 0 0 0 0 1 0 0 0 0 0 0 0 0 0 0 0 0
31 20 20 28 0 0 0 0 0 0 0 0 0 0 0 0 0 0 0 0 0 0 0 0 0 0 0 0 0 0 0 0 0 0 11 0 0 0 0 0 0 0 0 0 0
21 13 14 4 0 0 0 0 0 0 0 0 0 0 0 0 0 0 0 0 0 0 0 0 0 0 0 0 0 0 6 13 13 3 0 0 0 0 0 0 0 0 0 0 0
23 18 27 0 0 0 0 0 0 0 0 0 0 0 0 0 0 0 0 0 0 0 0 0 0 0 0 0 0 0 0 0 0 0 0 0 0 0 0 0 0 0 0 0 0
18 8 4 3 0 0 0 0 0 0 0 0 0 0 0 0 0 0 0 0 0 0 0 0 0 0 0 0 0 0 0 0 0 0 0 0 0 0 0 0 0 0 0 0 0
5 21 11 0 0 0 6 0 0 0 0 0 0 0 0 0 0 0 0 0 0 0 0 0 4 0 0 5 1 0 0 0 2 0 0 0 0 0 0 0 0 0 0 0 0
14 9 8 0 0 13 4 0 0 0 0 0 0 0 0 0 0 0 0 0 0 0 0 2 15 0 4 4 1 43 83 0 0 0 0 0 0 0 0 0 0 0 0 0 0
11 12 15 0 16 15 1 0 0 0 0 0 0 0 0 0 0 0 0 0 0 0 0 0 32 0 0 5 48 49 41 3 0 0 0 0 0 0 0 0 0 0 0 0 0
10 23 10 1 3 7 5 0 0 0 0 0 0 0 0 0 0 0 0 0 0 0 0 0 2 0 0 2 33 101 34 10 5 0 0 0 0 0 0 0 0 0 0 0 0
21 4 9 16 4 1 3 0 0 0 0 0 0 0 0 0 0 0 0 0 0 0 0 1 0 0 0 0 0 0 0 2 9 0 0 0 0 0 0 0 0 0 0 0 0
23 3 0 2 3 6 0 0 0 0 0 0 0 0 0 0 0 0 0 0 0 0 0 0 0 0 2 0 4 0 0 0 8 1 0 0 0 0 0 0 0 0 0 0 0
0 0 0 0 0 5 0 0 0 0 0 0 0 0 0 0 0 0 0 0 0 0 0 0 0 0 0 0 0 0 0 1 3 0 14 2 0 0 0 0 0 0 0 0 0
0 0 0 0 0 0 0 0 0 0 0 0 0 0 0 0 0 0 0 0 0 0 0 0 0 0 0 0 0 0 0 0 0 1 8 1 0 0 0 0 0 0 0 0 0

GFSSW_con_sbcape_105.txt.gz
CAPE
2 3 5 7 7 11 20 20 12 19 25 29 5 5 42 61 55 0 0 0 43 69 24 6 16 99 204 181 129 63 102 3 7 15 0 0 0 136 198 265 92 0 0 0 357
3 2 4 5 8 8 9 21 17 11 17 22 3 24 66 70 0 0 0 37 71 44 3 31 60 145 176 132 49 53 66 1 15 0 26 32 0 376 527 671 66 30 12 158 292
5 4 4 2 9 8 12 23 17 10 13 16 2 36 64 0 0 0 0 35 41 52 4 8 76 112 21 27 10 12 70 1 1 15 41 11 1 97 512 475 54 2 66 298 312
8 5 2 3 9 9 8 11 12 10 10 10 2 29 60 0 0 0 0 26 35 8 21 18 72 82 0 14 0 0 0 0 2 0 111 1 0 3 282 182 308 157 411 222 194
16 8 7 3 9 7 8 8 13 15 8 4 0 23 0 0 0 0 0 0 0 26 14 28 55 68 2 0 0 0 0 0 0 1 57 26 0 7 1 0 692 900 761 974 98
39 11 6 8 6 4 3 8 9 18 4 1 0 10 0 0 0 0 0 0 0 0 4 0 0 1 0 0 0 0 0 0 0 3 5 14 0 0 1 0 673 575 921 957 208
22 14 7 22 5 12 1 3 7 13 1 1 0 0 0 0 0 0 0 0 0 0 0 0 0 3 0 1 0 0 0 0 1 4 3 0 28 0 0 0 441 513 751 735 346
19 30 3 24 7 3 7 1 2 5 1 0 0 0 0 0 0 0 0 0 0 0 0 0 4 0 7 0 17 0 0 3 0 0 0 0 17 0 0 0 0 83 266 263 366
4 28 6 9 15 11 8 0 0 0 0 0 0 0 0 0 0 0 0 0 0 0 0 0 0 0 18 26 17 1 0 0 0 0 14 1 0 0 0 0 0 0 0 159 197
2 5 15 3 2 5 6 0 0 0 0 0 0 0 0 0 0 0 0 0 0 0 0 0 0 0 0 0 0 2 1 1 0 0 13 1 0 0 0 0 0 0 0 0 247
19 26 18 0 0 1 0 0 0 0 0 0 0 0 0 0 0 0 0 0 0 0 0 0 1 0 0 0 0 0 0 0 1 0 18 1 0 0 0 0 0 0 0 0 0
5 20 27 0 0 3 0 0 0 0 0 0 0 0 0 0 0 0 0 0 0 0 0 0 0 0 0 0 0 0 0 0 0 13 4 0 0 0 0 0 0 0 0 0 0
8 12 7 13 0 0 0 0 0 0 0 0 0 0 0 0 0 0 0 0 0 0 0 0 0 0 0 0 0 0 0 0 0 13 14 0 0 0 0 0 0 0 0 0 0
7 37 7 7 0 0 0 0 0 0 0 0 0 0 0 0 0 0 0 0 0 0 0 0 0 0 0 0 0 0 0 0 9 20 2 0 0 0 0 0 0 0 0 0 0
13 9 15 1 0 0 0 0 0 0 0 0 0 0 0 0 0 0 0 0 0 0 0 0 0 0 0 0 0 0 0 1 11 0 0 3 0 0 0 0 0 0 0 0 0
14 13 38 21 2 0 0 0 0 0 0 0 0 0 0 0 0 0 0 0 0 0 0 0 0 0 0 0 0 0 0 0 0 0 2 0 0 0 0 0 0 0 0 0 0
0 2 25 8 0 0 0 0 0 0 0 0 0 0 0 0 0 0 0 0 0 0 0 0 0 0 0 0 0 0 0 8 22 27 0 0 0 0 0 0 0 0 0 0 0
6 17 12 0 0 0 0 0 0 0 0 0 0 0 0 0 0 0 0 0 0 0 0 0 0 0 0 0 1 0 0 0 0 0 0 0 0 0 0 0 0 0 0 0 0
4 3 11 4 0 0 0 0 0 0 0 0 0 0 0 0 0 0 0 0 0 0 0 0 0 0 0 6 3 0 1 0 0 0 0 0 0 0 0 0 0 0 0 0 0
28 6 10 7 0 0 0 0 0 0 0 0 0 0 0 0 0 0 0 0 0 0 0 0 0 0 1 10 1 7 0 58 12 0 0 0 0 0 0 0 0 0 0 0 0
27 3 17 0 0 0 5 0 0 0 0 0 0 0 0 0 0 0 0 0 0 0 0 0 3 0 0 10 0 88 80 1 1 0 0 0 0 0 0 0 0 0 0 0 0
28 9 10 1 8 0 0 0 0 0 0 0 0 0 0 0 0 0 0 0 0 0 0 0 10 0 0 1 26 23 21 3 29 0 0 0 0 0 0 0 0 0 0 0 0
10 17 17 15 3 5 1 4 0 0 0 0 0 0 0 0 0 0 0 0 0 0 0 0 0 0 0 0 0 0 0 1 3 0 0 0 0 0 0 0 0 0 0 0 0
32 5 16 34 6 0 0 0 0 0 0 0 0 0 0 0 0 0 0 0 0 0 0 0 0 0 0 0 0 0 0 0 0 12 0 0 0 0 0 0 0 0 0 0 0
18 8 3 2 9 0 0 0 0 0 0 0 0 0 0 0 0 0 0 0 0 0 0 0 0 0 0 0 0 4 2 0 0 0 8 0 0 0 0 0 0 0 0 0 0
17 1 0 0 1 2 0 0 0 0 0 0 0 0 0 0 0 0 0 0 0 0 0 0 0 0 0 0 0 0 0 0 0 0 0 0 0 0 0 0 0 0 0 0 0
23 0 0 0 0 1 0 0 0 0 0 0 0 0 0 0 0 0 0 0 0 0 0 0 0 0 0 0 0 0 0 0 0 0 4 4 1 1 0 0 0 0 0 0 0

GFSSW_con_sbcape_108.txt.gz
CAPE
5 4 5 5 5 8 7 8 28 10 6 19 25 4 11 14 19 0 0 0 2 53 8 1 17 40 98 154 149 260 131 161 60 6 32 12 31 16 10 226 418 297 167 108 616
24 9 6 5 9 11 10 10 24 10 8 17 16 9 27 23 1 0 0 0 59 49 15 13 50 82 147 68 144 156 142 47 52 18 30 15 23 7 20 262 423 329 164 289 815
20 32 8 2 6 7 6 7 6 8 8 12 14 12 4 0 0 0 0 21 62 40 7 27 115 112 102 226 112 92 120 90 33 8 4 6 0 27 26 117 308 266 246 130 2
12 40 23 2 6 5 5 11 6 5 5 8 14 9 0 0 0 0 0 14 24 0 27 33 75 86 71 73 197 68 79 64 11 34 0 7 0 0 5 25 356 278 236 202 37
22 35 39 1 6 2 9 6 14 6 3 0 13 8 0 0 0 0 0 0 0 1 23 70 77 47 71 126 168 142 59 25 16 2 0 0 18 2 47 232 37 328 311 307 186
17 7 24 0 0 1 6 12 12 9 1 0 13 3 0 0 0 0 0 0 0 0 1 28 42 117 50 43 135 36 1 15 0 0 0 6 19 28 9 8 2 488 450 252 171
6 3 30 4 0 5 6 2 5 11 6 0 8 4 0 0 0 0 0 0 0 0 0 12 20 23 16 0 8 4 7 7 0 0 0 0 0 15 0 0 16 430 493 461 209
11 6 10 10 0 1 1 1 1 2 1 0 5 0 0 0 0 0 0 0 3 16 2 9 19 18 40 10 9 4 0 10 1 0 0 1 1 46 0 0 123 288 430 574 301
12 14 26 23 7 3 0 0 0 0 0 0 0 0 0 0 0 0 0 0 0 0 0 0 0 29 13 22 11 2 0 0 0 0 1 1 2 5 0 2 38 214 357 412 246
13 7 3 6 9 0 0 0 0 0 0 0 0 0 0 0 0 0 0 0 0 0 0 0 0 27 0 44 7 0 0 0 0 0 0 0 0 1 0 0 0 8 80 162 258
11 3 0 5 7 0 0 0 0 0 0 0 0 0 0 0 0 0 0 0 0 0 0 0 56 7 4 5 0 2 0 0 0 0 1 0 0 0 0 0 0 0 0 1 161
3 0 20 14 1 2 0 0 0 0 0 0 0 0 0 0 0 0 0 0 0 0 0 5 28 6 0 0 0 4 0 1 0 0 11 0 0 1 0 0 0 0 0 0 1
5 0 27 11 6 1 0 0 0 0 0 0 0 0 0 0 0 0 0 0 0 0 0 10 1 0 0 0 2 1 3 0 0 1 1 6 0 0 0 0 0 0 0 0 0
11 0 1 19 0 0 0 0 0 0 0 0 0 0 0 0 0 0 0 0 0 0 0 0 0 0 0 0 0 1 0 0 0 10 13 0 1 0 0 0 0 0 0 0 0
28 0 0 26 4 0 0 0 0 0 0 0 0 0 0 0 0 0 0 0 0 0 0 0 0 0 0 0 0 9 0 0 12 1 4 1 0 4 0 0 0 0 0 0 0
39 1 23 46 9 0 0 0 0 3 0 0 0 0 0 0 0 0 0 0 0 0 0 0 0 0 0 0 0 0 32 45 45 29 9 0 3 0 0 0 0 0 0 2 0
24 11 42 33 0 0 0 0 8 0 0 0 0 0 0 0 0 0 0 0 0 0 0 0 0 0 0 15 27 43 62 62 27 41 2 0 6 0 0 0 0 0 0 0 0
26 22 66 13 0 0 0 1 0 1 0 0 0 0 0 0 0 0 0 0 0 0 0 0 0 0 1 40 41 50 45 73 16 17 5 0 0 0 0 0 0 0 0 0 0
41 10 23 7 0 0 4 4 0 0 0 0 0 0 0 0 0 0 0 0 0 0 0 0 0 0 0 17 41 57 71 18 20 0 16 7 0 0 0 0 0 0 0 0 0
61 27 11 3 0 0 5 0 0 0 0 0 0 0 0 0 0 0 0 0 0 0 0 0 3 0 19 27 36 59 19 134 172 64 25 0 0 0 0 0 0 0 0 0 0
65 12 29 21 1 9 20 4 0 0 0 0 0 0 0 0 0 0 0 0 0 0 0 6 11 0 0 35 16 42 40 54 11 34 56 9 0 0 0 0 0 0 0 0 0
54 25 39 14 7 13 18 0 0 0 0 0 0 0 0 0 0 0 0 0 0 0 7 3 24 4 0 0 23 31 27 39 79 35 0 2 3 0 0 0 0 0 0 0 0
13 18 29 30 22 20 7 1 0 0 0 0 0 0 0 0 0 0 0 0 0 0 0 0 6 5 0 9 2 6 8 7 9 18 16 78 19 0 0 0 0 0 0 0 0
20 12 19 24 14 11 4 0 0 0 0 0 0 0 0 0 0 0 0 0 0 0 0 0 0 2 4 7 5 1 0 5 3 3 9 8 0 0 0 0 0 0 0 0 0
7 12 9 18 10 7 0 0 0 0 0 0 0 0 0 0 0 0 0 0 0 0 0 0 0 0 0 0 0 0 0 0 1 0 4 3 0 0 0 0 0 0 0 0 0
9 9 10 6 5 4 0 0 0 0 0 0 0 0 0 0 0 0 0 0 0 0 0 0 0 0 0 0 4 0 0 0 0 0 1 0 0 0 0 0 0 0 0 0 0
8 1 5 10 12 3 0 0 0 0 0 0 0 0 0 0 0 0 0 0 0 0 0 0 0 0 0 0 0 1 1 1 2 4 5 5 9 4 0 0 0 0 0 0 0

GFSSW_con_sbcape_111.txt.gz
CAPE
19 49 24 2 3 0 7 8 3 20 9 3 0 14 5 13 0 1 0 0 0 34 45 35 28 28 27 51 70 83 97 85 56 55 22 37 84 23 49 18 15 2 244 530 1333
15 21 67 18 2 0 4 6 4 10 8 9 2 6 7 9 1 0 0 0 1 50 28 28 38 28 37 42 73 105 85 55 31 112 128 60 7 13 1 9 7 123 172 995 1711
35 40 57 59 2 0 2 4 3 5 7 16 1 0 3 2 0 0 0 0 22 45 13 46 51 32 35 46 43 51 66 58 102 79 43 0 10 4 56 47 10 2 389 694 1439
27 18 20 20 9 0 0 5 2 3 8 11 4 0 0 0 0 0 0 0 6 7 23 24 32 47 52 38 63 25 60 84 111 86 53 3 23 17 54 4 10 0 0 838 1120
17 16 15 12 16 0 0 2 3 5 5 8 6 1 0 0 0 0 0 0 0 1 33 31 42 43 65 52 68 65 70 105 94 31 7 22 16 0 15 11 0 13 65 671 951
21 18 18 9 16 0 0 4 3 6 4 7 1 3 11 0 0 0 0 0 0 0 12 32 75 70 116 47 54 52 65 87 43 0 24 12 0 0 0 4 51 46 17 491 397
23 16 16 41 42 2 10 4 4 4 3 6 4 4 5 0 0 0 0 0 0 0 0 6 42 45 61 4 5 37 55 82 33 19 18 9 16 0 0 22 12 8 374 533 434
23 17 7 8 12 10 11 0 1 2 1 5 3 7 1 0 0 0 0 0 2 4 12 13 50 55 83 30 21 34 58 85 33 11 5 0 0 0 11 30 62 132 444 432 404
15 17 6 2 4 16 8 3 1 4 4 2 6 0 0 0 0 0 0 0 0 1 4 0 0 66 37 10 33 19 5 10 3 0 0 0 0 0 1 27 41 183 311 322 368
20 14 3 19 12 5 9 1 0 0 0 0 1 0 0 0 0 0 0 0 0 1 0 0 0 33 6 27 33 20 2 0 0 0 0 0 0 0 0 25 70 298 231 412 346
67 14 1 15 66 21 4 0 0 0 0 0 0 0 0 0 0 0 0 0 0 0 18 3 29 46 22 23 26 11 7 0 0 0 0 0 1 0 0 50 83 324 496 467 342
101 23 0 9 38 7 1 0 0 0 0 0 0 0 0 0 0 0 0 0 0 9 18 10 18 24 8 17 23 21 9 3 1 0 0 0 5 9 0 28 90 147 383 436 250
114 53 0 9 11 7 0 0 0 0 0 0 0 0 0 0 0 0 0 0 0 3 16 23 6 0 6 11 3 20 23 15 7 4 1 3 2 2 0 23 19 19 120 273 280
122 81 8 0 20 4 0 0 0 0 8 0 0 0 0 0 0 0 0 0 0 0 0 1 4 0 5 21 30 13 0 10 14 12 25 0 5 6 0 11 20 4 0 6 110
123 110 22 0 10 9 0 0 0 0 1 0 0 0 0 0 0 0 0 0 0 5 0 3 0 3 2 13 5 19 7 22 18 19 10 7 0 14 8 2 11 25 0 0 0
132 91 18 11 45 2 0 0 0 13 0 0 1 0 0 0 0 0 0 0 0 0 0 0 0 0 8 0 0 18 42 33 36 11 8 1 0 30 14 12 18 80 19 0 0
61 45 2 5 19 2 1 0 18 20 0 0 2 0 0 0 0 0 0 0 1 4 0 0 0 0 0 37 29 41 50 54 39 47 5 0 0 1 0 0 2 11 24 0 0
33 19 0 17 49 0 1 18 13 0 0 0 1 0 0 0 0 0 0 0 0 0 3 0 2 0 0 31 44 45 58 77 39 29 16 0 0 2 0 0 0 0 0 0 0
47 19 68 59 19 5 8 41 16 0 0 0 0 0 0 0 0 0 0 0 0 0 0 0 1 0 0 13 37 48 99 58 47 10 15 16 1 0 0 0 0 0 0 0 0
48 13 42 23 7 11 19 5 0 0 0 0 0 0 0 0 0 0 0 0 0 0 0 5 5 0 0 5 37 34 30 72 82 53 27 22 0 1 0 0 0 0 0 0 0
79 11 18 5 6 9 41 10 0 0 0 0 0 0 0 0 0 0 0 0 0 2 0 6 11 7 5 13 14 26 23 21 3 17 73 23 0 0 0 0 0 0 0 0 0
83 23 45 24 7 15 21 5 0 0 0 0 0 0 0 0 0 0 0 0 0 0 8 10 7 9 0 0 14 28 7 0 34 20 7 2 4 0 0 0 0 0 0 0 0
26 11 35 25 33 18 3 2 0 1 0 0 0 0 0 0 0 0 0 0 0 0 2 0 5 3 0 9 2 6 9 7 2 11 44 19 9 3 0 0 0 0 0 0 0
13 18 12 21 3 16 5 0 0 0 0 0 0 0 0 0 0 0 0 0 0 0 0 0 3 0 0 4 3 0 0 0 2 5 0 17 1 16 1 0 0 0 0 0 0
6 16 11 18 15 16 11 3 0 0 0 0 0 0 0 0 0 0 0 0 0 0 0 0 0 0 0 0 0 0 0 0 0 0 1 0 1 1 1 3 1 0 0 0 0
12 13 0 17 11 10 2 0 0 0 0 0 0 0 0 0 0 0 0 0 0 0 0 0 1 0 0 0 0 0 0 0 0 0 0 0 0 0 0 4 3 0 0 0 0
12 5 3 9 12 4 3 0 0 0 0 0 0 0 0 0 0 0 0 0 0 0 0 0 0 0 0 0 0 1 2 3 6 4 3 3 2 0 0 2 4 0 0 0 0

GFSSW_con_sbcape_114.txt.gz
CAPE
12 34 43 67 67 3 0 4 8 4 13 8 8 7 5 5 3 0 0 0 0 0 26 1 4 4 41 30 42 55 36 6 0 5 0 0 88 12 16 2 0 0 9 0 229
14 33 13 47 50 35 0 2 4 2 6 6 10 3 4 10 3 0 0 0 0 25 11 0 7 30 24 27 48 37 17 0 0 0 16 128 99 18 22 0 0 0 0 0 93
15 21 15 18 39 77 8 0 2 2 1 7 11 2 1 9 0 0 0 0 0 10 1 2 32 34 11 25 15 20 0 0 9 40 103 114 49 30 29 0 0 0 0 15 11
15 14 21 33 37 80 33 2 2 2 6 12 7 1 0 0 0 0 0 0 0 0 0 6 29 7 4 23 38 20 10 2 26 37 100 37 16 0 0 0 0 0 0 1 26
28 17 22 16 36 40 12 3 5 4 9 12 6 2 0 0 0 0 0 0 0 0 0 34 38 23 20 28 59 28 1 15 21 20 48 10 0 0 0 0 0 0 0 30 45
24 24 19 8 8 10 4 10 8 11 9 13 12 2 10 0 0 0 0 0 0 0 1 15 21 24 11 46 55 49 43 26 32 12 5 2 0 0 0 0 0 0 12 28 6
34 19 15 10 2 3 51 45 12 10 11 18 12 4 4 0 0 0 0 0 0 0 0 23 23 7 13 21 19 32 41 42 34 27 0 0 0 0 0 0 2 4 67 30 0
64 23 9 8 3 5 4 75 4 10 7 17 11 11 1 0 0 0 0 0 0 1 6 14 16 0 3 33 14 5 20 29 8 10 5 0 0 1 4 2 17 9 29 26 95
102 64 16 2 4 34 29 37 3 10 11 21 5 14 0 0 0 0 0 0 0 0 9 2 0 10 27 19 26 9 6 2 5 0 4 0 0 0 0 6 6 0 3 34 71
109 105 58 0 8 75 45 41 12 10 0 3 1 1 0 0 0 0 0 0 0 1 10 0 2 18 3 2 50 46 24 1 4 0 0 0 0 0 0 0 4 0 0 176 286
117 120 92 1 12 67 24 0 0 0 3 0 0 0 0 0 0 0 0 0 0 0 0 18 25 22 9 14 5 6 0 0 0 0 0 0 0 0 0 0 0 0 16 262 161
138 139 95 13 7 33 1 0 0 0 0 0 0 0 0 0 0 0 0 0 10 14 25 24 5 24 8 13 3 2 4 10 4 0 0 0 0 2 0 0 6 12 106 242 183
138 143 127 40 0 27 6 0 0 1 0 0 0 0 0 0 0 0 0 0 0 0 6 4 4 22 15 11 4 0 4 6 0 5 0 0 0 0 2 0 3 33 199 216 244
206 210 107 28 0 4 1 3 1 3 15 0 0 0 0 0 0 0 0 0 0 0 0 0 1 0 0 5 19 1 3 0 7 5 1 3 0 0 0 0 3 23 257 372 315
168 95 62 27 0 9 3 21 1 2 5 0 0 0 0 0 0 0 0 0 0 0 0 0 1 0 0 21 4 0 0 0 0 12 0 0 0 0 0 0 21 8 26 103 243
56 42 42 15 18 10 20 36 4 11 1 0 0 0 0 0 0 0 0 0 0 0 0 0 0 0 1 0 0 0 1 0 7 17 1 0 0 3 1 4 4 15 2 1 45
36 27 23 15 28 22 9 9 18 9 0 0 0 0 0 0 0 0 0 0 0 0 0 0 0 0 0 0 1 18 16 5 10 30 3 0 0 0 0 0 0 0 2 0 0
45 28 15 2 15 17 1 4 6 0 0 0 0 0 0 0 0 0 0 0 0 0 0 0 0 0 0 3 12 0 19 23 4 35 4 0 15 0 0 0 0 0 0 0 0
102 23 57 45 26 5 0 4 6 0 0 0 0 0 0 0 0 0 0 0 0 0 0 0 0 0 0 0 10 6 23 0 29 2 0 6 0 0 0 0 0 0 0 0 0
29 17 25 23 5 9 7 16 2 0 0 0 0 0 0 0 0 0 0 0 0 0 0 1 1 0 0 0 25 21 7 4 8 0 2 0 0 0 0 0 0 0 0 0 0
67 10 29 23 0 1 3 0 1 0 0 0 0 0 0 0 0 0 0 0 0 0 0 1 3 0 1 0 0 3 0 0 0 0 11 4 2 0 0 0 0 0 0 0 0
41 10 8 3 3 2 15 2 0 0 0 0 0 0 0 0 0 0 0 0 0 0 0 0 0 0 0 0 2 0 2 0 0 0 5 1 2 0 0 0 0 0 0 0 0
10 7 4 12 16 20 2 0 0 0 0 0 0 0 0 0 0 0 0 0 0 0 0 0 0 0 0 0 0 1 0 0 0 0 0 0 2 0 0 0 0 0 0 0 0
9 9 3 0 1 13 4 0 0 0 0 0 0 0 0 0 0 0 0 0 0 0 0 0 0 0 0 0 0 0 0 0 0 0 0 0 0 1 0 0 0 0 0 0 0
0 5 2 8 4 11 0 0 0 0 0 0 0 0 0 0 0 0 0 0 0 0 0 0 0 0 0 0 0 0 0 0 0 0 0 0 0 3 0 0 0 0 0 0 0
0 0 0 0 0 3 0 0 0 0 0 0 0 0 0 0 0 0 0 0 0 0 0 0 0 0 0 0 0 0 0 0 0 0 0 0 0 0 0 0 0 0 0 0 0
1 1 0 0 1 0 0 0 0 0 0 0 0 0 0 0 0 0 0 0 0 0 0 0 0 0 0 0 0 0 0 0 0 0 0 0 0 0 0 0 0 0 0 0 0

GFSSW_con_sbcape_117.txt.gz
CAPE
15 11 25 12 16 53 73 8 1 1 3 9 9 10 13 16 12 1 0 0 0 1 16 0 1 27 51 25 29 35 41 1 0 0 0 0 0 0 0 9 0 0 0 0 0
17 34 25 23 22 48 46 61 2 4 1 6 7 8 10 9 7 1 0 0 0 0 0 16 2 32 31 19 23 16 21 3 0 0 0 0 0 8 18 24 0 0 0 0 0
30 20 32 18 14 40 44 103 19 12 4 4 6 6 7 0 4 0 0 0 0 0 0 6 14 26 19 16 9 0 0 0 0 0 0 7 0 13 59 28 0 0 0 0 0
27 32 21 16 7 9 28 78 1 6 3 3 3 2 2 1 0 0 0 0 0 0 0 0 17 33 7 6 3 2 0 0 0 0 0 0 3 0 2 0 0 0 0 0 0
50 33 22 11 6 2 7 21 4 9 9 8 7 1 0 1 0 0 0 0 0 0 0 9 32 32 12 0 7 1 0 0 0 1 0 8 0 0 0 0 0 0 1 23 0
75 54 31 12 6 0 1 6 38 18 12 5 12 4 5 0 0 0 0 0 0 0 0 20 29 28 28 0 6 0 4 0 0 0 15 31 0 13 0 0 0 0 0 8 0
63 82 46 25 9 1 6 4 60 6 3 8 5 8 15 0 0 0 0 0 0 0 0 17 10 7 12 0 0 0 0 1 4 5 28 59 4 0 0 0 0 0 5 0 3
68 77 103 49 18 0 24 41 26 8 13 9 1 11 1 0 0 0 0 0 0 0 4 2 5 6 5 0 0 0 0 0 0 16 13 5 0 0 1 47 1 42 48 56 26
93 92 101 87 23 7 77 74 29 27 23 6 0 4 0 0 0 0 0 0 0 1 0 0 0 0 18 26 4 0 0 0 0 0 8 0 0 0 0 6 3 7 19 0 41
107 105 98 85 14 9 70 56 51 18 3 15 1 0 0 0 0 0 0 0 0 1 0 0 0 0 8 0 0 38 16 9 2 0 0 0 0 0 0 0 0 0 0 0 192
138 164 137 93 36 30 22 0 3 0 8 0 0 0 0 0 0 0 0 0 0 0 0 0 3 0 0 0 0 3 0 0 0 0 0 0 0 0 0 0 0 0 0 21 215
155 221 201 72 95 0 25 0 0 0 0 0 0 0 0 0 0 0 0 0 1 0 0 17 0 0 2 27 18 6 1 4 12 0 0 0 0 0 0 0 0 0 0 164 117
221 269 152 39 74 5 46 30 6 0 0 0 0 0 0 0 0 0 0 0 0 0 0 2 0 14 4 0 0 0 8 3 1 0 0 0 0 0 0 0 0 0 18 125 91
125 150 76 62 7 12 18 18 5 0 0 0 0 0 0 0 0 0 0 0 0 0 0 0 1 3 0 1 13 0 4 0 0 0 0 0 0 0 0 0 0 0 123 76 34
68 63 39 36 0 7 54 22 0 0 0 0 0 0 0 0 0 0 0 0 0 0 0 0 0 0 0 0 0 0 0 0 0 0 0 0 0 2 4 3 0 0 39 60 122
57 45 41 42 20 24 23 9 0 0 0 0 0 0 0 0 0 0 0 0 0 0 0 0 0 0 0 0 1 0 0 0 0 0 0 0 0 1 0 14 1 0 0 31 146
74 50 4 4 33 0 1 0 3 0 0 0 0 0 0 0 0 0 0 0 0 0 0 0 0 0 0 0 2 0 0 0 2 0 0 0 0 0 0 31 9 0 0 0 0
99 15 38 8 1 0 0 3 1 2 0 0 0 0 0 0 0 0 0 0 0 0 0 0 0 0 1 0 0 0 7 9 2 2 1 0 0 0 0 0 0 0 0 0 0
46 0 8 23 0 0 0 0 8 0 0 0 0 0 0 0 0 0 0 0 0 0 0 0 0 0 1 6 8 0 0 0 6 2 0 0 0 0 0 0 0 0 0 0 0
0 0 2 1 0 0 0 11 0 0 0 0 0 0 0 0 0 0 0 0 0 0 0 0 0 0 0 0 0 0 0 0 0 0 3 0 0 0 0 0 0 0 0 0 0
1 1 0 0 0 0 1 1 1 0 0 0 0 0 0 0 0 0 0 0 0 0 0 0 0 0 0 1 0 0 0 0 0 0 1 0 15 0 0 0 0 0 0 0 0
0 1 0 0 0 0 0 0 0 0 0 0 0 0 0 0 0 0 0 0 0 0 0 0 0 0 1 0 0 0 0 0 0 0 0 0 12 0 0 0 0 0 0 0 0
2 0 0 0 0 0 0 0 0 0 0 0 0 0 0 0 0 0 0 0 0 0 0 0 0 0 0 0 0 0 0 0 0 0 0 0 10 0 0 0 0 0 0 0 0
0 0 0 0 0 0 0 0 0 0 0 0 0 0 0 0 0 0 0 0 0 0 0 0 0 0 0 0 0 0 0 0 0 0 0 0 0 0 0 0 0 0 0 0 0
0 1 0 0 0 0 0 0 0 0 0 0 0 0 0 0 0 0 0 0 0 0 0 0 0 0 0 0 0 0 0 0 0 0 0 0 1 0 0 0 0 0 0 0 0
0 0 0 0 0 0 0 0 0 0 0 0 0 0 0 0 0 0 0 0 0 0 0 0 0 0 0 0 0 0 0 0 0 0 0 0 0 0 0 0 0 0 0 0 0
0 0 0 0 0 0 0 0 0 0 0 0 0 0 0 0 0 0 0 0 0 0 0 0 0 0 0 0 0 0 0 0 0 0 0 0 0 0 0 0 0 0 0 0 0